<?xml version="1.0" encoding="UTF-8" standalone="no" ?>
<gpx xmlns="http://www.topografix.com/GPX/1/1" xmlns:xsi="http://www.w3.org/2001/XMLSchema-instance" xsi:schemaLocation="http://www.topografix.com/GPX/1/1 http://www.topografix.com/GPX/1/1/gpx.xsd" version="1.1" creator="VisuGPX - https://www.visugpx.com">
  <metadata>
    <name>retour par les maréchaux est</name>
    <desc><![CDATA[ça grimpe ça grimpe à la fin, dur dur les buttes chaumonts]]></desc>
  </metadata>
  <trk>
    <name><![CDATA[périphérie est]]></name>
    <trkseg>
      <trkpt lat="48.909" lon="2.38731">
        <ele>45</ele>
        <time>2013-07-18T17:34:29Z</time>
      </trkpt>
      <trkpt lat="48.90885" lon="2.38737">
        <ele>45</ele>
        <time>2013-07-18T17:36:25Z</time>
      </trkpt>
      <trkpt lat="48.90853" lon="2.38752">
        <ele>43</ele>
        <time>2013-07-18T17:36:27Z</time>
      </trkpt>
      <trkpt lat="48.90852" lon="2.3873">
        <ele>33</ele>
        <time>2013-07-18T17:36:37Z</time>
      </trkpt>
      <trkpt lat="48.90849" lon="2.38726">
        <ele>34</ele>
        <time>2013-07-18T17:36:39Z</time>
      </trkpt>
      <trkpt lat="48.90854" lon="2.3871">
        <ele>50</ele>
        <time>2013-07-18T17:36:57Z</time>
      </trkpt>
      <trkpt lat="48.90864" lon="2.38701">
        <ele>46</ele>
        <time>2013-07-18T17:37:01Z</time>
      </trkpt>
      <trkpt lat="48.90884" lon="2.38685">
        <ele>48</ele>
        <time>2013-07-18T17:37:05Z</time>
      </trkpt>
      <trkpt lat="48.90891" lon="2.38681">
        <ele>46</ele>
        <time>2013-07-18T17:37:06Z</time>
      </trkpt>
      <trkpt lat="48.90931" lon="2.38656">
        <ele>47</ele>
        <time>2013-07-18T17:37:14Z</time>
      </trkpt>
      <trkpt lat="48.9094" lon="2.38652">
        <ele>48</ele>
        <time>2013-07-18T17:37:16Z</time>
      </trkpt>
      <trkpt lat="48.9095" lon="2.38649">
        <ele>40</ele>
        <time>2013-07-18T17:37:18Z</time>
      </trkpt>
      <trkpt lat="48.90954" lon="2.38647">
        <ele>39</ele>
        <time>2013-07-18T17:37:19Z</time>
      </trkpt>
      <trkpt lat="48.90974" lon="2.3863">
        <ele>39</ele>
        <time>2013-07-18T17:37:25Z</time>
      </trkpt>
      <trkpt lat="48.90988" lon="2.38624">
        <ele>35</ele>
        <time>2013-07-18T17:37:27Z</time>
      </trkpt>
      <trkpt lat="48.90994" lon="2.3862">
        <ele>43</ele>
        <time>2013-07-18T17:37:28Z</time>
      </trkpt>
      <trkpt lat="48.91008" lon="2.38608">
        <ele>39</ele>
        <time>2013-07-18T17:37:31Z</time>
      </trkpt>
      <trkpt lat="48.9101" lon="2.38601">
        <ele>38</ele>
        <time>2013-07-18T17:37:33Z</time>
      </trkpt>
      <trkpt lat="48.91014" lon="2.38594">
        <ele>42</ele>
        <time>2013-07-18T17:37:35Z</time>
      </trkpt>
      <trkpt lat="48.91039" lon="2.38549">
        <ele>46</ele>
        <time>2013-07-18T17:37:49Z</time>
      </trkpt>
      <trkpt lat="48.91041" lon="2.38542">
        <ele>36</ele>
        <time>2013-07-18T17:37:52Z</time>
      </trkpt>
      <trkpt lat="48.91044" lon="2.38533">
        <ele>37</ele>
        <time>2013-07-18T17:37:55Z</time>
      </trkpt>
      <trkpt lat="48.91046" lon="2.38523">
        <ele>30</ele>
        <time>2013-07-18T17:37:58Z</time>
      </trkpt>
      <trkpt lat="48.91045" lon="2.385">
        <ele>29</ele>
        <time>2013-07-18T17:38:05Z</time>
      </trkpt>
      <trkpt lat="48.9104" lon="2.38486">
        <ele>28</ele>
        <time>2013-07-18T17:38:08Z</time>
      </trkpt>
      <trkpt lat="48.91037" lon="2.38478">
        <ele>29</ele>
        <time>2013-07-18T17:38:10Z</time>
      </trkpt>
      <trkpt lat="48.91033" lon="2.38462">
        <ele>32</ele>
        <time>2013-07-18T17:38:13Z</time>
      </trkpt>
      <trkpt lat="48.91029" lon="2.38452">
        <ele>34</ele>
        <time>2013-07-18T17:38:15Z</time>
      </trkpt>
      <trkpt lat="48.91028" lon="2.38441">
        <ele>43</ele>
        <time>2013-07-18T17:38:17Z</time>
      </trkpt>
      <trkpt lat="48.91027" lon="2.38428">
        <ele>43</ele>
        <time>2013-07-18T17:38:19Z</time>
      </trkpt>
      <trkpt lat="48.91029" lon="2.38415">
        <ele>44</ele>
        <time>2013-07-18T17:38:21Z</time>
      </trkpt>
      <trkpt lat="48.91032" lon="2.38406">
        <ele>40</ele>
        <time>2013-07-18T17:38:22Z</time>
      </trkpt>
      <trkpt lat="48.91041" lon="2.38379">
        <ele>41</ele>
        <time>2013-07-18T17:38:27Z</time>
      </trkpt>
      <trkpt lat="48.91044" lon="2.38369">
        <ele>44</ele>
        <time>2013-07-18T17:38:29Z</time>
      </trkpt>
      <trkpt lat="48.91045" lon="2.38361">
        <ele>46</ele>
        <time>2013-07-18T17:38:31Z</time>
      </trkpt>
      <trkpt lat="48.9105" lon="2.38339">
        <ele>42</ele>
        <time>2013-07-18T17:38:39Z</time>
      </trkpt>
      <trkpt lat="48.91054" lon="2.38332">
        <ele>41</ele>
        <time>2013-07-18T17:38:41Z</time>
      </trkpt>
      <trkpt lat="48.91058" lon="2.38324">
        <ele>41</ele>
        <time>2013-07-18T17:38:43Z</time>
      </trkpt>
      <trkpt lat="48.91062" lon="2.38318">
        <ele>45</ele>
        <time>2013-07-18T17:38:45Z</time>
      </trkpt>
      <trkpt lat="48.91065" lon="2.38309">
        <ele>48</ele>
        <time>2013-07-18T17:38:48Z</time>
      </trkpt>
      <trkpt lat="48.91071" lon="2.38304">
        <ele>36</ele>
        <time>2013-07-18T17:38:51Z</time>
      </trkpt>
      <trkpt lat="48.91081" lon="2.3829">
        <ele>45</ele>
        <time>2013-07-18T17:39:00Z</time>
      </trkpt>
      <trkpt lat="48.91084" lon="2.38281">
        <ele>43</ele>
        <time>2013-07-18T17:39:03Z</time>
      </trkpt>
      <trkpt lat="48.91083" lon="2.38273">
        <ele>42</ele>
        <time>2013-07-18T17:39:06Z</time>
      </trkpt>
      <trkpt lat="48.91083" lon="2.38239">
        <ele>43</ele>
        <time>2013-07-18T17:39:13Z</time>
      </trkpt>
      <trkpt lat="48.91084" lon="2.38229">
        <ele>43</ele>
        <time>2013-07-18T17:39:15Z</time>
      </trkpt>
      <trkpt lat="48.91083" lon="2.3822">
        <ele>47</ele>
        <time>2013-07-18T17:39:17Z</time>
      </trkpt>
      <trkpt lat="48.91088" lon="2.3821">
        <ele>40</ele>
        <time>2013-07-18T17:39:19Z</time>
      </trkpt>
      <trkpt lat="48.91087" lon="2.38195">
        <ele>39</ele>
        <time>2013-07-18T17:39:22Z</time>
      </trkpt>
      <trkpt lat="48.91087" lon="2.38181">
        <ele>40</ele>
        <time>2013-07-18T17:39:25Z</time>
      </trkpt>
      <trkpt lat="48.91089" lon="2.38171">
        <ele>41</ele>
        <time>2013-07-18T17:39:27Z</time>
      </trkpt>
      <trkpt lat="48.91091" lon="2.38159">
        <ele>33</ele>
        <time>2013-07-18T17:39:29Z</time>
      </trkpt>
      <trkpt lat="48.91091" lon="2.38147">
        <ele>37</ele>
        <time>2013-07-18T17:39:31Z</time>
      </trkpt>
      <trkpt lat="48.91093" lon="2.38139">
        <ele>37</ele>
        <time>2013-07-18T17:39:32Z</time>
      </trkpt>
      <trkpt lat="48.91096" lon="2.38127">
        <ele>45</ele>
        <time>2013-07-18T17:39:34Z</time>
      </trkpt>
      <trkpt lat="48.91099" lon="2.38115">
        <ele>39</ele>
        <time>2013-07-18T17:39:36Z</time>
      </trkpt>
      <trkpt lat="48.91102" lon="2.38105">
        <ele>35</ele>
        <time>2013-07-18T17:39:38Z</time>
      </trkpt>
      <trkpt lat="48.91105" lon="2.3809">
        <ele>35</ele>
        <time>2013-07-18T17:39:41Z</time>
      </trkpt>
      <trkpt lat="48.91106" lon="2.38079">
        <ele>39</ele>
        <time>2013-07-18T17:39:43Z</time>
      </trkpt>
      <trkpt lat="48.91109" lon="2.38073">
        <ele>34</ele>
        <time>2013-07-18T17:39:45Z</time>
      </trkpt>
      <trkpt lat="48.91111" lon="2.38066">
        <ele>30</ele>
        <time>2013-07-18T17:39:47Z</time>
      </trkpt>
      <trkpt lat="48.91114" lon="2.38056">
        <ele>27</ele>
        <time>2013-07-18T17:39:49Z</time>
      </trkpt>
      <trkpt lat="48.91117" lon="2.38049">
        <ele>33</ele>
        <time>2013-07-18T17:39:51Z</time>
      </trkpt>
      <trkpt lat="48.9112" lon="2.38041">
        <ele>30</ele>
        <time>2013-07-18T17:39:54Z</time>
      </trkpt>
      <trkpt lat="48.91121" lon="2.38029">
        <ele>33</ele>
        <time>2013-07-18T17:39:58Z</time>
      </trkpt>
      <trkpt lat="48.91123" lon="2.3802">
        <ele>36</ele>
        <time>2013-07-18T17:40:00Z</time>
      </trkpt>
      <trkpt lat="48.91124" lon="2.38013">
        <ele>37</ele>
        <time>2013-07-18T17:40:02Z</time>
      </trkpt>
      <trkpt lat="48.91128" lon="2.37973">
        <ele>23</ele>
        <time>2013-07-18T17:40:15Z</time>
      </trkpt>
      <trkpt lat="48.91106" lon="2.3796">
        <ele>26</ele>
        <time>2013-07-18T17:40:28Z</time>
      </trkpt>
      <trkpt lat="48.91088" lon="2.37936">
        <ele>22</ele>
        <time>2013-07-18T17:40:42Z</time>
      </trkpt>
      <trkpt lat="48.91064" lon="2.37924">
        <ele>26</ele>
        <time>2013-07-18T17:40:48Z</time>
      </trkpt>
      <trkpt lat="48.91025" lon="2.37899">
        <ele>34</ele>
        <time>2013-07-18T17:41:04Z</time>
      </trkpt>
      <trkpt lat="48.91008" lon="2.37873">
        <ele>27</ele>
        <time>2013-07-18T17:41:12Z</time>
      </trkpt>
      <trkpt lat="48.91002" lon="2.37865">
        <ele>31</ele>
        <time>2013-07-18T17:41:14Z</time>
      </trkpt>
      <trkpt lat="48.90996" lon="2.37861">
        <ele>28</ele>
        <time>2013-07-18T17:41:16Z</time>
      </trkpt>
      <trkpt lat="48.90978" lon="2.37846">
        <ele>30</ele>
        <time>2013-07-18T17:41:23Z</time>
      </trkpt>
      <trkpt lat="48.90968" lon="2.37841">
        <ele>31</ele>
        <time>2013-07-18T17:41:26Z</time>
      </trkpt>
      <trkpt lat="48.9096" lon="2.37834">
        <ele>30</ele>
        <time>2013-07-18T17:41:28Z</time>
      </trkpt>
      <trkpt lat="48.90952" lon="2.3783">
        <ele>27</ele>
        <time>2013-07-18T17:41:30Z</time>
      </trkpt>
      <trkpt lat="48.90946" lon="2.37829">
        <ele>25</ele>
        <time>2013-07-18T17:41:32Z</time>
      </trkpt>
      <trkpt lat="48.90937" lon="2.37825">
        <ele>30</ele>
        <time>2013-07-18T17:41:34Z</time>
      </trkpt>
      <trkpt lat="48.9092" lon="2.37814">
        <ele>28</ele>
        <time>2013-07-18T17:41:41Z</time>
      </trkpt>
      <trkpt lat="48.90906" lon="2.37805">
        <ele>28</ele>
        <time>2013-07-18T17:41:45Z</time>
      </trkpt>
      <trkpt lat="48.90897" lon="2.37802">
        <ele>29</ele>
        <time>2013-07-18T17:41:47Z</time>
      </trkpt>
      <trkpt lat="48.9089" lon="2.37797">
        <ele>37</ele>
        <time>2013-07-18T17:41:49Z</time>
      </trkpt>
      <trkpt lat="48.90854" lon="2.37777">
        <ele>41</ele>
        <time>2013-07-18T17:42:04Z</time>
      </trkpt>
      <trkpt lat="48.90846" lon="2.37774">
        <ele>51</ele>
        <time>2013-07-18T17:42:18Z</time>
      </trkpt>
      <trkpt lat="48.9084" lon="2.3777">
        <ele>45</ele>
        <time>2013-07-18T17:42:20Z</time>
      </trkpt>
      <trkpt lat="48.90834" lon="2.37763">
        <ele>42</ele>
        <time>2013-07-18T17:42:23Z</time>
      </trkpt>
      <trkpt lat="48.90818" lon="2.37742">
        <ele>41</ele>
        <time>2013-07-18T17:42:28Z</time>
      </trkpt>
      <trkpt lat="48.9081" lon="2.37731">
        <ele>36</ele>
        <time>2013-07-18T17:42:30Z</time>
      </trkpt>
      <trkpt lat="48.90805" lon="2.37727">
        <ele>35</ele>
        <time>2013-07-18T17:42:31Z</time>
      </trkpt>
      <trkpt lat="48.908" lon="2.37724">
        <ele>36</ele>
        <time>2013-07-18T17:42:32Z</time>
      </trkpt>
      <trkpt lat="48.90781" lon="2.37712">
        <ele>45</ele>
        <time>2013-07-18T17:42:36Z</time>
      </trkpt>
      <trkpt lat="48.90774" lon="2.37704">
        <ele>44</ele>
        <time>2013-07-18T17:42:38Z</time>
      </trkpt>
      <trkpt lat="48.90759" lon="2.37686">
        <ele>50</ele>
        <time>2013-07-18T17:42:42Z</time>
      </trkpt>
      <trkpt lat="48.90753" lon="2.37679">
        <ele>50</ele>
        <time>2013-07-18T17:42:44Z</time>
      </trkpt>
      <trkpt lat="48.90747" lon="2.37668">
        <ele>44</ele>
        <time>2013-07-18T17:42:47Z</time>
      </trkpt>
      <trkpt lat="48.90742" lon="2.37661">
        <ele>43</ele>
        <time>2013-07-18T17:42:49Z</time>
      </trkpt>
      <trkpt lat="48.90727" lon="2.37642">
        <ele>41</ele>
        <time>2013-07-18T17:42:56Z</time>
      </trkpt>
      <trkpt lat="48.90713" lon="2.37619">
        <ele>45</ele>
        <time>2013-07-18T17:43:03Z</time>
      </trkpt>
      <trkpt lat="48.90709" lon="2.37607">
        <ele>44</ele>
        <time>2013-07-18T17:43:05Z</time>
      </trkpt>
      <trkpt lat="48.90697" lon="2.37592">
        <ele>46</ele>
        <time>2013-07-18T17:43:09Z</time>
      </trkpt>
      <trkpt lat="48.90639" lon="2.37519">
        <ele>44</ele>
        <time>2013-07-18T17:43:29Z</time>
      </trkpt>
      <trkpt lat="48.90624" lon="2.37507">
        <ele>45</ele>
        <time>2013-07-18T17:43:32Z</time>
      </trkpt>
      <trkpt lat="48.9062" lon="2.37503">
        <ele>44</ele>
        <time>2013-07-18T17:43:33Z</time>
      </trkpt>
      <trkpt lat="48.90612" lon="2.37493">
        <ele>47</ele>
        <time>2013-07-18T17:43:35Z</time>
      </trkpt>
      <trkpt lat="48.90563" lon="2.37434">
        <ele>47</ele>
        <time>2013-07-18T17:43:47Z</time>
      </trkpt>
      <trkpt lat="48.90551" lon="2.37416">
        <ele>47</ele>
        <time>2013-07-18T17:43:50Z</time>
      </trkpt>
      <trkpt lat="48.90547" lon="2.37411">
        <ele>47</ele>
        <time>2013-07-18T17:43:51Z</time>
      </trkpt>
      <trkpt lat="48.90511" lon="2.37373">
        <ele>37</ele>
        <time>2013-07-18T17:43:59Z</time>
      </trkpt>
      <trkpt lat="48.90506" lon="2.37369">
        <ele>35</ele>
        <time>2013-07-18T17:44:00Z</time>
      </trkpt>
      <trkpt lat="48.90501" lon="2.37364">
        <ele>37</ele>
        <time>2013-07-18T17:44:01Z</time>
      </trkpt>
      <trkpt lat="48.90484" lon="2.3735">
        <ele>41</ele>
        <time>2013-07-18T17:44:04Z</time>
      </trkpt>
      <trkpt lat="48.9048" lon="2.37347">
        <ele>42</ele>
        <time>2013-07-18T17:44:05Z</time>
      </trkpt>
      <trkpt lat="48.90475" lon="2.37342">
        <ele>41</ele>
        <time>2013-07-18T17:44:06Z</time>
      </trkpt>
      <trkpt lat="48.90456" lon="2.3732">
        <ele>45</ele>
        <time>2013-07-18T17:44:10Z</time>
      </trkpt>
      <trkpt lat="48.90439" lon="2.37298">
        <ele>42</ele>
        <time>2013-07-18T17:44:15Z</time>
      </trkpt>
      <trkpt lat="48.90434" lon="2.37293">
        <ele>46</ele>
        <time>2013-07-18T17:44:16Z</time>
      </trkpt>
      <trkpt lat="48.90423" lon="2.37279">
        <ele>46</ele>
        <time>2013-07-18T17:44:19Z</time>
      </trkpt>
      <trkpt lat="48.90404" lon="2.37256">
        <ele>45</ele>
        <time>2013-07-18T17:44:23Z</time>
      </trkpt>
      <trkpt lat="48.90395" lon="2.37242">
        <ele>41</ele>
        <time>2013-07-18T17:44:25Z</time>
      </trkpt>
      <trkpt lat="48.9038" lon="2.37218">
        <ele>33</ele>
        <time>2013-07-18T17:44:30Z</time>
      </trkpt>
      <trkpt lat="48.90374" lon="2.37213">
        <ele>31</ele>
        <time>2013-07-18T17:44:32Z</time>
      </trkpt>
      <trkpt lat="48.90355" lon="2.37195">
        <ele>38</ele>
        <time>2013-07-18T17:44:37Z</time>
      </trkpt>
      <trkpt lat="48.9034" lon="2.37175">
        <ele>41</ele>
        <time>2013-07-18T17:44:40Z</time>
      </trkpt>
      <trkpt lat="48.90336" lon="2.37168">
        <ele>41</ele>
        <time>2013-07-18T17:44:41Z</time>
      </trkpt>
      <trkpt lat="48.9033" lon="2.37162">
        <ele>43</ele>
        <time>2013-07-18T17:44:43Z</time>
      </trkpt>
      <trkpt lat="48.90314" lon="2.37146">
        <ele>39</ele>
        <time>2013-07-18T17:44:47Z</time>
      </trkpt>
      <trkpt lat="48.90308" lon="2.37138">
        <ele>39</ele>
        <time>2013-07-18T17:44:49Z</time>
      </trkpt>
      <trkpt lat="48.903" lon="2.3713">
        <ele>39</ele>
        <time>2013-07-18T17:44:51Z</time>
      </trkpt>
      <trkpt lat="48.90293" lon="2.37125">
        <ele>35</ele>
        <time>2013-07-18T17:44:53Z</time>
      </trkpt>
      <trkpt lat="48.90289" lon="2.37118">
        <ele>34</ele>
        <time>2013-07-18T17:44:55Z</time>
      </trkpt>
      <trkpt lat="48.90277" lon="2.37103">
        <ele>41</ele>
        <time>2013-07-18T17:45:01Z</time>
      </trkpt>
      <trkpt lat="48.90269" lon="2.37095">
        <ele>34</ele>
        <time>2013-07-18T17:45:08Z</time>
      </trkpt>
      <trkpt lat="48.90263" lon="2.37091">
        <ele>40</ele>
        <time>2013-07-18T17:45:11Z</time>
      </trkpt>
      <trkpt lat="48.90249" lon="2.37079">
        <ele>39</ele>
        <time>2013-07-18T17:45:17Z</time>
      </trkpt>
      <trkpt lat="48.90245" lon="2.37073">
        <ele>38</ele>
        <time>2013-07-18T17:45:19Z</time>
      </trkpt>
      <trkpt lat="48.90239" lon="2.37066">
        <ele>43</ele>
        <time>2013-07-18T17:45:21Z</time>
      </trkpt>
      <trkpt lat="48.90203" lon="2.37027">
        <ele>35</ele>
        <time>2013-07-18T17:45:31Z</time>
      </trkpt>
      <trkpt lat="48.90195" lon="2.37023">
        <ele>35</ele>
        <time>2013-07-18T17:45:33Z</time>
      </trkpt>
      <trkpt lat="48.90185" lon="2.37015">
        <ele>33</ele>
        <time>2013-07-18T17:45:35Z</time>
      </trkpt>
      <trkpt lat="48.9018" lon="2.37011">
        <ele>37</ele>
        <time>2013-07-18T17:45:36Z</time>
      </trkpt>
      <trkpt lat="48.90175" lon="2.37009">
        <ele>35</ele>
        <time>2013-07-18T17:45:37Z</time>
      </trkpt>
      <trkpt lat="48.9017" lon="2.3701">
        <ele>33</ele>
        <time>2013-07-18T17:45:39Z</time>
      </trkpt>
      <trkpt lat="48.90165" lon="2.37011">
        <ele>31</ele>
        <time>2013-07-18T17:45:40Z</time>
      </trkpt>
      <trkpt lat="48.90156" lon="2.37013">
        <ele>34</ele>
        <time>2013-07-18T17:45:42Z</time>
      </trkpt>
      <trkpt lat="48.90145" lon="2.37015">
        <ele>37</ele>
        <time>2013-07-18T17:45:46Z</time>
      </trkpt>
      <trkpt lat="48.90139" lon="2.37015">
        <ele>38</ele>
        <time>2013-07-18T17:45:48Z</time>
      </trkpt>
      <trkpt lat="48.90134" lon="2.37016">
        <ele>35</ele>
        <time>2013-07-18T17:45:51Z</time>
      </trkpt>
      <trkpt lat="48.90114" lon="2.37021">
        <ele>35</ele>
        <time>2013-07-18T17:45:59Z</time>
      </trkpt>
      <trkpt lat="48.90109" lon="2.37019">
        <ele>33</ele>
        <time>2013-07-18T17:46:03Z</time>
      </trkpt>
      <trkpt lat="48.90099" lon="2.37025">
        <ele>51</ele>
        <time>2013-07-18T17:46:30Z</time>
      </trkpt>
      <trkpt lat="48.90093" lon="2.37024">
        <ele>51</ele>
        <time>2013-07-18T17:46:33Z</time>
      </trkpt>
      <trkpt lat="48.9005" lon="2.3702">
        <ele>41</ele>
        <time>2013-07-18T17:46:46Z</time>
      </trkpt>
      <trkpt lat="48.90045" lon="2.37017">
        <ele>40</ele>
        <time>2013-07-18T17:46:48Z</time>
      </trkpt>
      <trkpt lat="48.90045" lon="2.37004">
        <ele>47</ele>
        <time>2013-07-18T17:47:16Z</time>
      </trkpt>
      <trkpt lat="48.90037" lon="2.37005">
        <ele>38</ele>
        <time>2013-07-18T17:47:24Z</time>
      </trkpt>
      <trkpt lat="48.90031" lon="2.37006">
        <ele>43</ele>
        <time>2013-07-18T17:47:26Z</time>
      </trkpt>
      <trkpt lat="48.90016" lon="2.37007">
        <ele>42</ele>
        <time>2013-07-18T17:47:30Z</time>
      </trkpt>
      <trkpt lat="48.89995" lon="2.37007">
        <ele>40</ele>
        <time>2013-07-18T17:47:36Z</time>
      </trkpt>
      <trkpt lat="48.89985" lon="2.37009">
        <ele>43</ele>
        <time>2013-07-18T17:47:39Z</time>
      </trkpt>
      <trkpt lat="48.89979" lon="2.37009">
        <ele>40</ele>
        <time>2013-07-18T17:47:41Z</time>
      </trkpt>
      <trkpt lat="48.89958" lon="2.3701">
        <ele>42</ele>
        <time>2013-07-18T17:47:48Z</time>
      </trkpt>
      <trkpt lat="48.89942" lon="2.37012">
        <ele>36</ele>
        <time>2013-07-18T17:47:54Z</time>
      </trkpt>
      <trkpt lat="48.89924" lon="2.37012">
        <ele>38</ele>
        <time>2013-07-18T17:48:00Z</time>
      </trkpt>
      <trkpt lat="48.89916" lon="2.37008">
        <ele>44</ele>
        <time>2013-07-18T17:48:02Z</time>
      </trkpt>
      <trkpt lat="48.899" lon="2.37004">
        <ele>46</ele>
        <time>2013-07-18T17:48:07Z</time>
      </trkpt>
      <trkpt lat="48.89893" lon="2.37005">
        <ele>45</ele>
        <time>2013-07-18T17:48:09Z</time>
      </trkpt>
      <trkpt lat="48.89887" lon="2.37008">
        <ele>42</ele>
        <time>2013-07-18T17:48:11Z</time>
      </trkpt>
      <trkpt lat="48.8988" lon="2.37013">
        <ele>39</ele>
        <time>2013-07-18T17:48:16Z</time>
      </trkpt>
      <trkpt lat="48.89872" lon="2.37018">
        <ele>44</ele>
        <time>2013-07-18T17:48:30Z</time>
      </trkpt>
      <trkpt lat="48.89866" lon="2.3702">
        <ele>45</ele>
        <time>2013-07-18T17:48:33Z</time>
      </trkpt>
      <trkpt lat="48.89858" lon="2.37021">
        <ele>48</ele>
        <time>2013-07-18T17:48:36Z</time>
      </trkpt>
      <trkpt lat="48.89851" lon="2.37023">
        <ele>44</ele>
        <time>2013-07-18T17:48:39Z</time>
      </trkpt>
      <trkpt lat="48.89848" lon="2.37027">
        <ele>44</ele>
        <time>2013-07-18T17:48:41Z</time>
      </trkpt>
      <trkpt lat="48.89844" lon="2.37034">
        <ele>40</ele>
        <time>2013-07-18T17:48:44Z</time>
      </trkpt>
      <trkpt lat="48.89837" lon="2.37038">
        <ele>49</ele>
        <time>2013-07-18T17:48:49Z</time>
      </trkpt>
      <trkpt lat="48.89832" lon="2.37038">
        <ele>46</ele>
        <time>2013-07-18T17:48:51Z</time>
      </trkpt>
      <trkpt lat="48.89791" lon="2.37042">
        <ele>45</ele>
        <time>2013-07-18T17:49:05Z</time>
      </trkpt>
      <trkpt lat="48.89785" lon="2.37044">
        <ele>41</ele>
        <time>2013-07-18T17:49:07Z</time>
      </trkpt>
      <trkpt lat="48.8978" lon="2.37048">
        <ele>43</ele>
        <time>2013-07-18T17:49:09Z</time>
      </trkpt>
      <trkpt lat="48.89774" lon="2.37047">
        <ele>43</ele>
        <time>2013-07-18T17:49:12Z</time>
      </trkpt>
      <trkpt lat="48.89769" lon="2.37045">
        <ele>41</ele>
        <time>2013-07-18T17:49:16Z</time>
      </trkpt>
      <trkpt lat="48.89763" lon="2.37044">
        <ele>46</ele>
        <time>2013-07-18T17:49:19Z</time>
      </trkpt>
      <trkpt lat="48.89755" lon="2.37045">
        <ele>43</ele>
        <time>2013-07-18T17:49:22Z</time>
      </trkpt>
      <trkpt lat="48.89736" lon="2.37046">
        <ele>52</ele>
        <time>2013-07-18T17:49:28Z</time>
      </trkpt>
      <trkpt lat="48.89727" lon="2.37048">
        <ele>50</ele>
        <time>2013-07-18T17:49:34Z</time>
      </trkpt>
      <trkpt lat="48.89721" lon="2.37046">
        <ele>50</ele>
        <time>2013-07-18T17:49:36Z</time>
      </trkpt>
      <trkpt lat="48.89712" lon="2.37043">
        <ele>49</ele>
        <time>2013-07-18T17:49:38Z</time>
      </trkpt>
      <trkpt lat="48.89691" lon="2.37038">
        <ele>55</ele>
        <time>2013-07-18T17:49:45Z</time>
      </trkpt>
      <trkpt lat="48.89684" lon="2.37037">
        <ele>54</ele>
        <time>2013-07-18T17:49:47Z</time>
      </trkpt>
      <trkpt lat="48.89664" lon="2.37035">
        <ele>51</ele>
        <time>2013-07-18T17:49:51Z</time>
      </trkpt>
      <trkpt lat="48.89656" lon="2.37032">
        <ele>54</ele>
        <time>2013-07-18T17:49:53Z</time>
      </trkpt>
      <trkpt lat="48.8965" lon="2.37031">
        <ele>55</ele>
        <time>2013-07-18T17:49:54Z</time>
      </trkpt>
      <trkpt lat="48.8964" lon="2.37036">
        <ele>59</ele>
        <time>2013-07-18T17:49:56Z</time>
      </trkpt>
      <trkpt lat="48.89634" lon="2.3704">
        <ele>61</ele>
        <time>2013-07-18T17:49:57Z</time>
      </trkpt>
      <trkpt lat="48.89629" lon="2.37045">
        <ele>61</ele>
        <time>2013-07-18T17:49:58Z</time>
      </trkpt>
      <trkpt lat="48.89609" lon="2.3706">
        <ele>62</ele>
        <time>2013-07-18T17:50:01Z</time>
      </trkpt>
      <trkpt lat="48.89603" lon="2.37064">
        <ele>61</ele>
        <time>2013-07-18T17:50:02Z</time>
      </trkpt>
      <trkpt lat="48.89597" lon="2.37071">
        <ele>60</ele>
        <time>2013-07-18T17:50:03Z</time>
      </trkpt>
      <trkpt lat="48.89581" lon="2.3709">
        <ele>51</ele>
        <time>2013-07-18T17:50:06Z</time>
      </trkpt>
      <trkpt lat="48.89577" lon="2.37097">
        <ele>50</ele>
        <time>2013-07-18T17:50:07Z</time>
      </trkpt>
      <trkpt lat="48.89568" lon="2.37111">
        <ele>56</ele>
        <time>2013-07-18T17:50:10Z</time>
      </trkpt>
      <trkpt lat="48.8956" lon="2.37106">
        <ele>54</ele>
        <time>2013-07-18T17:50:23Z</time>
      </trkpt>
      <trkpt lat="48.89554" lon="2.37108">
        <ele>51</ele>
        <time>2013-07-18T17:50:26Z</time>
      </trkpt>
      <trkpt lat="48.89551" lon="2.37142">
        <ele>48</ele>
        <time>2013-07-18T17:50:50Z</time>
      </trkpt>
      <trkpt lat="48.89544" lon="2.37184">
        <ele>45</ele>
        <time>2013-07-18T17:51:22Z</time>
      </trkpt>
      <trkpt lat="48.89536" lon="2.37179">
        <ele>42</ele>
        <time>2013-07-18T17:51:38Z</time>
      </trkpt>
      <trkpt lat="48.89529" lon="2.37185">
        <ele>36</ele>
        <time>2013-07-18T17:51:41Z</time>
      </trkpt>
      <trkpt lat="48.89511" lon="2.37198">
        <ele>40</ele>
        <time>2013-07-18T17:51:49Z</time>
      </trkpt>
      <trkpt lat="48.89493" lon="2.3721">
        <ele>46</ele>
        <time>2013-07-18T17:52:02Z</time>
      </trkpt>
      <trkpt lat="48.89482" lon="2.37215">
        <ele>39</ele>
        <time>2013-07-18T17:52:07Z</time>
      </trkpt>
      <trkpt lat="48.89474" lon="2.37221">
        <ele>38</ele>
        <time>2013-07-18T17:52:12Z</time>
      </trkpt>
      <trkpt lat="48.89457" lon="2.37233">
        <ele>53</ele>
        <time>2013-07-18T17:52:25Z</time>
      </trkpt>
      <trkpt lat="48.89439" lon="2.37263">
        <ele>46</ele>
        <time>2013-07-18T17:52:43Z</time>
      </trkpt>
      <trkpt lat="48.89429" lon="2.3728">
        <ele>47</ele>
        <time>2013-07-18T17:52:46Z</time>
      </trkpt>
      <trkpt lat="48.89382" lon="2.3732">
        <ele>71</ele>
        <time>2013-07-18T17:53:02Z</time>
      </trkpt>
      <trkpt lat="48.89378" lon="2.37313">
        <ele>66</ele>
        <time>2013-07-18T17:53:03Z</time>
      </trkpt>
      <trkpt lat="48.89374" lon="2.37307">
        <ele>65</ele>
        <time>2013-07-18T17:53:04Z</time>
      </trkpt>
      <trkpt lat="48.89369" lon="2.37305">
        <ele>64</ele>
        <time>2013-07-18T17:53:06Z</time>
      </trkpt>
      <trkpt lat="48.89365" lon="2.37322">
        <ele>60</ele>
        <time>2013-07-18T17:53:13Z</time>
      </trkpt>
      <trkpt lat="48.89367" lon="2.37338">
        <ele>59</ele>
        <time>2013-07-18T17:53:17Z</time>
      </trkpt>
      <trkpt lat="48.89361" lon="2.37363">
        <ele>45</ele>
        <time>2013-07-18T17:53:30Z</time>
      </trkpt>
      <trkpt lat="48.89344" lon="2.37382">
        <ele>46</ele>
        <time>2013-07-18T17:53:37Z</time>
      </trkpt>
      <trkpt lat="48.89293" lon="2.37429">
        <ele>42</ele>
        <time>2013-07-18T17:53:51Z</time>
      </trkpt>
      <trkpt lat="48.89288" lon="2.37433">
        <ele>41</ele>
        <time>2013-07-18T17:53:53Z</time>
      </trkpt>
      <trkpt lat="48.89272" lon="2.37448">
        <ele>44</ele>
        <time>2013-07-18T17:54:00Z</time>
      </trkpt>
      <trkpt lat="48.89251" lon="2.37461">
        <ele>44</ele>
        <time>2013-07-18T17:54:10Z</time>
      </trkpt>
      <trkpt lat="48.89241" lon="2.37465">
        <ele>43</ele>
        <time>2013-07-18T17:54:14Z</time>
      </trkpt>
      <trkpt lat="48.89222" lon="2.37473">
        <ele>46</ele>
        <time>2013-07-18T17:54:27Z</time>
      </trkpt>
      <trkpt lat="48.89215" lon="2.37481">
        <ele>42</ele>
        <time>2013-07-18T17:54:33Z</time>
      </trkpt>
      <trkpt lat="48.89198" lon="2.37503">
        <ele>41</ele>
        <time>2013-07-18T17:54:39Z</time>
      </trkpt>
      <trkpt lat="48.89187" lon="2.37521">
        <ele>39</ele>
        <time>2013-07-18T17:54:43Z</time>
      </trkpt>
      <trkpt lat="48.89092" lon="2.37632">
        <ele>58</ele>
        <time>2013-07-18T17:55:43Z</time>
      </trkpt>
      <trkpt lat="48.8909" lon="2.37639">
        <ele>57</ele>
        <time>2013-07-18T17:55:54Z</time>
      </trkpt>
      <trkpt lat="48.8909" lon="2.37646">
        <ele>55</ele>
        <time>2013-07-18T17:55:56Z</time>
      </trkpt>
      <trkpt lat="48.89087" lon="2.37654">
        <ele>55</ele>
        <time>2013-07-18T17:56:00Z</time>
      </trkpt>
      <trkpt lat="48.89082" lon="2.37658">
        <ele>57</ele>
        <time>2013-07-18T17:56:02Z</time>
      </trkpt>
      <trkpt lat="48.89074" lon="2.37662">
        <ele>56</ele>
        <time>2013-07-18T17:56:06Z</time>
      </trkpt>
      <trkpt lat="48.89067" lon="2.37663">
        <ele>49</ele>
        <time>2013-07-18T17:56:09Z</time>
      </trkpt>
      <trkpt lat="48.89061" lon="2.37661">
        <ele>52</ele>
        <time>2013-07-18T17:56:11Z</time>
      </trkpt>
      <trkpt lat="48.89054" lon="2.37655">
        <ele>50</ele>
        <time>2013-07-18T17:56:13Z</time>
      </trkpt>
      <trkpt lat="48.89048" lon="2.37649">
        <ele>50</ele>
        <time>2013-07-18T17:56:15Z</time>
      </trkpt>
      <trkpt lat="48.89031" lon="2.37625">
        <ele>49</ele>
        <time>2013-07-18T17:56:21Z</time>
      </trkpt>
      <trkpt lat="48.89016" lon="2.37596">
        <ele>49</ele>
        <time>2013-07-18T17:56:27Z</time>
      </trkpt>
      <trkpt lat="48.89003" lon="2.37577">
        <ele>45</ele>
        <time>2013-07-18T17:56:31Z</time>
      </trkpt>
      <trkpt lat="48.8899" lon="2.37562">
        <ele>52</ele>
        <time>2013-07-18T17:56:35Z</time>
      </trkpt>
      <trkpt lat="48.88979" lon="2.37545">
        <ele>58</ele>
        <time>2013-07-18T17:56:40Z</time>
      </trkpt>
      <trkpt lat="48.88971" lon="2.37524">
        <ele>47</ele>
        <time>2013-07-18T17:56:46Z</time>
      </trkpt>
      <trkpt lat="48.88966" lon="2.37504">
        <ele>55</ele>
        <time>2013-07-18T17:56:54Z</time>
      </trkpt>
      <trkpt lat="48.88953" lon="2.37486">
        <ele>49</ele>
        <time>2013-07-18T17:56:58Z</time>
      </trkpt>
      <trkpt lat="48.88941" lon="2.37464">
        <ele>50</ele>
        <time>2013-07-18T17:57:01Z</time>
      </trkpt>
      <trkpt lat="48.88938" lon="2.37459">
        <ele>51</ele>
        <time>2013-07-18T17:57:02Z</time>
      </trkpt>
      <trkpt lat="48.8893" lon="2.37449">
        <ele>51</ele>
        <time>2013-07-18T17:57:04Z</time>
      </trkpt>
      <trkpt lat="48.88914" lon="2.37429">
        <ele>54</ele>
        <time>2013-07-18T17:57:09Z</time>
      </trkpt>
      <trkpt lat="48.88908" lon="2.37422">
        <ele>54</ele>
        <time>2013-07-18T17:57:11Z</time>
      </trkpt>
      <trkpt lat="48.88901" lon="2.37418">
        <ele>53</ele>
        <time>2013-07-18T17:57:13Z</time>
      </trkpt>
      <trkpt lat="48.88852" lon="2.37379">
        <ele>57</ele>
        <time>2013-07-18T17:57:27Z</time>
      </trkpt>
      <trkpt lat="48.88845" lon="2.3737">
        <ele>52</ele>
        <time>2013-07-18T17:57:29Z</time>
      </trkpt>
      <trkpt lat="48.88826" lon="2.37348">
        <ele>58</ele>
        <time>2013-07-18T17:57:36Z</time>
      </trkpt>
      <trkpt lat="48.8882" lon="2.37336">
        <ele>67</ele>
        <time>2013-07-18T17:57:39Z</time>
      </trkpt>
      <trkpt lat="48.88818" lon="2.37329">
        <ele>73</ele>
        <time>2013-07-18T17:57:41Z</time>
      </trkpt>
      <trkpt lat="48.88815" lon="2.37322">
        <ele>68</ele>
        <time>2013-07-18T17:57:43Z</time>
      </trkpt>
      <trkpt lat="48.88812" lon="2.37315">
        <ele>58</ele>
        <time>2013-07-18T17:57:45Z</time>
      </trkpt>
      <trkpt lat="48.88807" lon="2.37308">
        <ele>52</ele>
        <time>2013-07-18T17:57:47Z</time>
      </trkpt>
      <trkpt lat="48.8879" lon="2.37287">
        <ele>48</ele>
        <time>2013-07-18T17:57:53Z</time>
      </trkpt>
      <trkpt lat="48.88784" lon="2.37284">
        <ele>54</ele>
        <time>2013-07-18T17:57:55Z</time>
      </trkpt>
      <trkpt lat="48.88766" lon="2.37273">
        <ele>54</ele>
        <time>2013-07-18T17:58:01Z</time>
      </trkpt>
      <trkpt lat="48.8876" lon="2.37268">
        <ele>51</ele>
        <time>2013-07-18T17:58:03Z</time>
      </trkpt>
      <trkpt lat="48.88743" lon="2.37249">
        <ele>52</ele>
        <time>2013-07-18T17:58:10Z</time>
      </trkpt>
      <trkpt lat="48.88733" lon="2.37232">
        <ele>52</ele>
        <time>2013-07-18T17:58:15Z</time>
      </trkpt>
      <trkpt lat="48.88707" lon="2.37198">
        <ele>62</ele>
        <time>2013-07-18T17:58:25Z</time>
      </trkpt>
      <trkpt lat="48.88664" lon="2.37147">
        <ele>64</ele>
        <time>2013-07-18T17:58:36Z</time>
      </trkpt>
      <trkpt lat="48.88655" lon="2.37125">
        <ele>59</ele>
        <time>2013-07-18T17:58:40Z</time>
      </trkpt>
      <trkpt lat="48.88642" lon="2.37112">
        <ele>63</ele>
        <time>2013-07-18T17:58:43Z</time>
      </trkpt>
      <trkpt lat="48.88637" lon="2.37108">
        <ele>63</ele>
        <time>2013-07-18T17:58:44Z</time>
      </trkpt>
      <trkpt lat="48.88629" lon="2.371">
        <ele>66</ele>
        <time>2013-07-18T17:58:46Z</time>
      </trkpt>
      <trkpt lat="48.8861" lon="2.37085">
        <ele>68</ele>
        <time>2013-07-18T17:58:50Z</time>
      </trkpt>
      <trkpt lat="48.88606" lon="2.3708">
        <ele>70</ele>
        <time>2013-07-18T17:58:51Z</time>
      </trkpt>
      <trkpt lat="48.88602" lon="2.37075">
        <ele>73</ele>
        <time>2013-07-18T17:58:52Z</time>
      </trkpt>
      <trkpt lat="48.88588" lon="2.37065">
        <ele>70</ele>
        <time>2013-07-18T17:58:56Z</time>
      </trkpt>
      <trkpt lat="48.88574" lon="2.37058">
        <ele>63</ele>
        <time>2013-07-18T17:59:01Z</time>
      </trkpt>
      <trkpt lat="48.88559" lon="2.37047">
        <ele>59</ele>
        <time>2013-07-18T17:59:06Z</time>
      </trkpt>
      <trkpt lat="48.88546" lon="2.37031">
        <ele>56</ele>
        <time>2013-07-18T17:59:11Z</time>
      </trkpt>
      <trkpt lat="48.88545" lon="2.37026">
        <ele>61</ele>
        <time>2013-07-18T17:59:12Z</time>
      </trkpt>
      <trkpt lat="48.88542" lon="2.37018">
        <ele>64</ele>
        <time>2013-07-18T17:59:14Z</time>
      </trkpt>
      <trkpt lat="48.88535" lon="2.36991">
        <ele>64</ele>
        <time>2013-07-18T17:59:21Z</time>
      </trkpt>
      <trkpt lat="48.88531" lon="2.36983">
        <ele>60</ele>
        <time>2013-07-18T17:59:23Z</time>
      </trkpt>
      <trkpt lat="48.88517" lon="2.36958">
        <ele>57</ele>
        <time>2013-07-18T17:59:29Z</time>
      </trkpt>
      <trkpt lat="48.88504" lon="2.36933">
        <ele>52</ele>
        <time>2013-07-18T17:59:35Z</time>
      </trkpt>
      <trkpt lat="48.885" lon="2.36923">
        <ele>48</ele>
        <time>2013-07-18T17:59:40Z</time>
      </trkpt>
      <trkpt lat="48.88496" lon="2.36918">
        <ele>49</ele>
        <time>2013-07-18T17:59:45Z</time>
      </trkpt>
      <trkpt lat="48.88475" lon="2.36897">
        <ele>58</ele>
        <time>2013-07-18T17:59:54Z</time>
      </trkpt>
      <trkpt lat="48.8847" lon="2.36893">
        <ele>57</ele>
        <time>2013-07-18T17:59:56Z</time>
      </trkpt>
      <trkpt lat="48.88464" lon="2.36891">
        <ele>60</ele>
        <time>2013-07-18T17:59:58Z</time>
      </trkpt>
      <trkpt lat="48.88455" lon="2.36887">
        <ele>54</ele>
        <time>2013-07-18T18:00:01Z</time>
      </trkpt>
      <trkpt lat="48.8845" lon="2.3688">
        <ele>61</ele>
        <time>2013-07-18T18:00:05Z</time>
      </trkpt>
      <trkpt lat="48.88444" lon="2.36871">
        <ele>60</ele>
        <time>2013-07-18T18:00:13Z</time>
      </trkpt>
      <trkpt lat="48.88436" lon="2.36853">
        <ele>54</ele>
        <time>2013-07-18T18:00:19Z</time>
      </trkpt>
      <trkpt lat="48.88431" lon="2.36847">
        <ele>53</ele>
        <time>2013-07-18T18:00:21Z</time>
      </trkpt>
      <trkpt lat="48.88416" lon="2.36827">
        <ele>58</ele>
        <time>2013-07-18T18:00:28Z</time>
      </trkpt>
      <trkpt lat="48.88406" lon="2.36824">
        <ele>57</ele>
        <time>2013-07-18T18:00:33Z</time>
      </trkpt>
      <trkpt lat="48.884" lon="2.36823">
        <ele>53</ele>
        <time>2013-07-18T18:00:37Z</time>
      </trkpt>
      <trkpt lat="48.88395" lon="2.36819">
        <ele>47</ele>
        <time>2013-07-18T18:00:42Z</time>
      </trkpt>
      <trkpt lat="48.88389" lon="2.36821">
        <ele>59</ele>
        <time>2013-07-18T18:00:46Z</time>
      </trkpt>
      <trkpt lat="48.88386" lon="2.36826">
        <ele>55</ele>
        <time>2013-07-18T18:00:48Z</time>
      </trkpt>
      <trkpt lat="48.88382" lon="2.36834">
        <ele>53</ele>
        <time>2013-07-18T18:00:50Z</time>
      </trkpt>
      <trkpt lat="48.88378" lon="2.36841">
        <ele>52</ele>
        <time>2013-07-18T18:00:53Z</time>
      </trkpt>
      <trkpt lat="48.88372" lon="2.36843">
        <ele>48</ele>
        <time>2013-07-18T18:00:56Z</time>
      </trkpt>
      <trkpt lat="48.88366" lon="2.36845">
        <ele>46</ele>
        <time>2013-07-18T18:00:59Z</time>
      </trkpt>
      <trkpt lat="48.88361" lon="2.36845">
        <ele>46</ele>
        <time>2013-07-18T18:01:01Z</time>
      </trkpt>
      <trkpt lat="48.88346" lon="2.36844">
        <ele>47</ele>
        <time>2013-07-18T18:01:06Z</time>
      </trkpt>
      <trkpt lat="48.88332" lon="2.36828">
        <ele>50</ele>
        <time>2013-07-18T18:01:09Z</time>
      </trkpt>
      <trkpt lat="48.88363" lon="2.36652">
        <ele>27</ele>
        <time>2013-07-18T18:01:45Z</time>
      </trkpt>
      <trkpt lat="48.88341" lon="2.36664">
        <ele>52</ele>
        <time>2013-07-18T18:01:47Z</time>
      </trkpt>
      <trkpt lat="48.88314" lon="2.36656">
        <ele>56</ele>
        <time>2013-07-18T18:01:50Z</time>
      </trkpt>
      <trkpt lat="48.88289" lon="2.36649">
        <ele>62</ele>
        <time>2013-07-18T18:01:55Z</time>
      </trkpt>
      <trkpt lat="48.88206" lon="2.36584">
        <ele>44</ele>
        <time>2013-07-18T18:02:34Z</time>
      </trkpt>
      <trkpt lat="48.88155" lon="2.36567">
        <ele>43</ele>
        <time>2013-07-18T18:02:56Z</time>
      </trkpt>
      <trkpt lat="48.88138" lon="2.36526">
        <ele>59</ele>
        <time>2013-07-18T18:03:07Z</time>
      </trkpt>
      <trkpt lat="48.88153" lon="2.36539">
        <ele>69</ele>
        <time>2013-07-18T18:03:18Z</time>
      </trkpt>
      <trkpt lat="48.88137" lon="2.36518">
        <ele>57</ele>
        <time>2013-07-18T18:03:38Z</time>
      </trkpt>
      <trkpt lat="48.88125" lon="2.36508">
        <ele>63</ele>
        <time>2013-07-18T18:03:42Z</time>
      </trkpt>
      <trkpt lat="48.88114" lon="2.365">
        <ele>61</ele>
        <time>2013-07-18T18:03:45Z</time>
      </trkpt>
      <trkpt lat="48.88107" lon="2.36496">
        <ele>65</ele>
        <time>2013-07-18T18:03:47Z</time>
      </trkpt>
      <trkpt lat="48.88051" lon="2.3646">
        <ele>46</ele>
        <time>2013-07-18T18:04:09Z</time>
      </trkpt>
      <trkpt lat="48.87959" lon="2.36329">
        <ele>51</ele>
        <time>2013-07-18T18:05:02Z</time>
      </trkpt>
      <trkpt lat="48.87918" lon="2.36285">
        <ele>62</ele>
        <time>2013-07-18T18:05:18Z</time>
      </trkpt>
      <trkpt lat="48.87911" lon="2.36264">
        <ele>58</ele>
        <time>2013-07-18T18:05:20Z</time>
      </trkpt>
      <trkpt lat="48.87925" lon="2.3625">
        <ele>11</ele>
        <time>2013-07-18T18:05:21Z</time>
      </trkpt>
      <trkpt lat="48.87916" lon="2.36233">
        <ele>28</ele>
        <time>2013-07-18T18:05:28Z</time>
      </trkpt>
      <trkpt lat="48.87915" lon="2.36231">
        <ele>29</ele>
        <time>2013-07-18T18:05:29Z</time>
      </trkpt>
      <trkpt lat="48.8792" lon="2.36233">
        <ele>44</ele>
        <time>2013-07-18T18:05:43Z</time>
      </trkpt>
      <trkpt lat="48.87913" lon="2.36227">
        <ele>46</ele>
        <time>2013-07-18T18:05:48Z</time>
      </trkpt>
      <trkpt lat="48.87894" lon="2.36212">
        <ele>53</ele>
        <time>2013-07-18T18:05:53Z</time>
      </trkpt>
      <trkpt lat="48.87887" lon="2.36208">
        <ele>55</ele>
        <time>2013-07-18T18:05:55Z</time>
      </trkpt>
      <trkpt lat="48.87879" lon="2.362">
        <ele>49</ele>
        <time>2013-07-18T18:05:57Z</time>
      </trkpt>
      <trkpt lat="48.8787" lon="2.36189">
        <ele>54</ele>
        <time>2013-07-18T18:06:00Z</time>
      </trkpt>
      <trkpt lat="48.87862" lon="2.36183">
        <ele>50</ele>
        <time>2013-07-18T18:06:02Z</time>
      </trkpt>
      <trkpt lat="48.87823" lon="2.36153">
        <ele>52</ele>
        <time>2013-07-18T18:06:12Z</time>
      </trkpt>
      <trkpt lat="48.87815" lon="2.36149">
        <ele>49</ele>
        <time>2013-07-18T18:06:14Z</time>
      </trkpt>
      <trkpt lat="48.87809" lon="2.36148">
        <ele>50</ele>
        <time>2013-07-18T18:06:16Z</time>
      </trkpt>
      <trkpt lat="48.87802" lon="2.36143">
        <ele>47</ele>
        <time>2013-07-18T18:06:18Z</time>
      </trkpt>
      <trkpt lat="48.87764" lon="2.36121">
        <ele>51</ele>
        <time>2013-07-18T18:06:27Z</time>
      </trkpt>
      <trkpt lat="48.87759" lon="2.36119">
        <ele>50</ele>
        <time>2013-07-18T18:06:28Z</time>
      </trkpt>
      <trkpt lat="48.8774" lon="2.3611">
        <ele>46</ele>
        <time>2013-07-18T18:06:32Z</time>
      </trkpt>
      <trkpt lat="48.8769" lon="2.36086">
        <ele>45</ele>
        <time>2013-07-18T18:06:41Z</time>
      </trkpt>
      <trkpt lat="48.87636" lon="2.36053">
        <ele>45</ele>
        <time>2013-07-18T18:06:55Z</time>
      </trkpt>
      <trkpt lat="48.87621" lon="2.36051">
        <ele>51</ele>
        <time>2013-07-18T18:07:01Z</time>
      </trkpt>
      <trkpt lat="48.87617" lon="2.36048">
        <ele>51</ele>
        <time>2013-07-18T18:07:02Z</time>
      </trkpt>
      <trkpt lat="48.87612" lon="2.36043">
        <ele>46</ele>
        <time>2013-07-18T18:07:03Z</time>
      </trkpt>
      <trkpt lat="48.87609" lon="2.36031">
        <ele>42</ele>
        <time>2013-07-18T18:07:05Z</time>
      </trkpt>
      <trkpt lat="48.87603" lon="2.36021">
        <ele>40</ele>
        <time>2013-07-18T18:07:07Z</time>
      </trkpt>
      <trkpt lat="48.87597" lon="2.36014">
        <ele>43</ele>
        <time>2013-07-18T18:07:09Z</time>
      </trkpt>
      <trkpt lat="48.87593" lon="2.36006">
        <ele>42</ele>
        <time>2013-07-18T18:07:11Z</time>
      </trkpt>
      <trkpt lat="48.8759" lon="2.35991">
        <ele>40</ele>
        <time>2013-07-18T18:07:14Z</time>
      </trkpt>
      <trkpt lat="48.8759" lon="2.35981">
        <ele>35</ele>
        <time>2013-07-18T18:07:16Z</time>
      </trkpt>
      <trkpt lat="48.87589" lon="2.3597">
        <ele>42</ele>
        <time>2013-07-18T18:07:19Z</time>
      </trkpt>
      <trkpt lat="48.87591" lon="2.35962">
        <ele>45</ele>
        <time>2013-07-18T18:07:23Z</time>
      </trkpt>
      <trkpt lat="48.87592" lon="2.35955">
        <ele>45</ele>
        <time>2013-07-18T18:07:26Z</time>
      </trkpt>
      <trkpt lat="48.87589" lon="2.35946">
        <ele>44</ele>
        <time>2013-07-18T18:07:30Z</time>
      </trkpt>
      <trkpt lat="48.87583" lon="2.35939">
        <ele>45</ele>
        <time>2013-07-18T18:07:33Z</time>
      </trkpt>
      <trkpt lat="48.87577" lon="2.35936">
        <ele>47</ele>
        <time>2013-07-18T18:07:35Z</time>
      </trkpt>
      <trkpt lat="48.87572" lon="2.35933">
        <ele>48</ele>
        <time>2013-07-18T18:07:37Z</time>
      </trkpt>
      <trkpt lat="48.87534" lon="2.35908">
        <ele>46</ele>
        <time>2013-07-18T18:07:47Z</time>
      </trkpt>
      <trkpt lat="48.87523" lon="2.35903">
        <ele>45</ele>
        <time>2013-07-18T18:07:49Z</time>
      </trkpt>
      <trkpt lat="48.87482" lon="2.35886">
        <ele>41</ele>
        <time>2013-07-18T18:08:02Z</time>
      </trkpt>
      <trkpt lat="48.87475" lon="2.35881">
        <ele>47</ele>
        <time>2013-07-18T18:08:04Z</time>
      </trkpt>
      <trkpt lat="48.87417" lon="2.35841">
        <ele>44</ele>
        <time>2013-07-18T18:08:15Z</time>
      </trkpt>
      <trkpt lat="48.87412" lon="2.35839">
        <ele>44</ele>
        <time>2013-07-18T18:08:16Z</time>
      </trkpt>
      <trkpt lat="48.87392" lon="2.35833">
        <ele>40</ele>
        <time>2013-07-18T18:08:20Z</time>
      </trkpt>
      <trkpt lat="48.87383" lon="2.35834">
        <ele>38</ele>
        <time>2013-07-18T18:08:22Z</time>
      </trkpt>
      <trkpt lat="48.87374" lon="2.35832">
        <ele>38</ele>
        <time>2013-07-18T18:08:24Z</time>
      </trkpt>
      <trkpt lat="48.87366" lon="2.35826">
        <ele>41</ele>
        <time>2013-07-18T18:08:26Z</time>
      </trkpt>
      <trkpt lat="48.87359" lon="2.35824">
        <ele>37</ele>
        <time>2013-07-18T18:08:28Z</time>
      </trkpt>
      <trkpt lat="48.87356" lon="2.35831">
        <ele>34</ele>
        <time>2013-07-18T18:08:31Z</time>
      </trkpt>
      <trkpt lat="48.87351" lon="2.35832">
        <ele>45</ele>
        <time>2013-07-18T18:08:41Z</time>
      </trkpt>
      <trkpt lat="48.87355" lon="2.35839">
        <ele>40</ele>
        <time>2013-07-18T18:08:50Z</time>
      </trkpt>
      <trkpt lat="48.87361" lon="2.35843">
        <ele>33</ele>
        <time>2013-07-18T18:08:58Z</time>
      </trkpt>
      <trkpt lat="48.87357" lon="2.35836">
        <ele>32</ele>
        <time>2013-07-18T18:09:08Z</time>
      </trkpt>
      <trkpt lat="48.8735" lon="2.35838">
        <ele>33</ele>
        <time>2013-07-18T18:09:12Z</time>
      </trkpt>
      <trkpt lat="48.87346" lon="2.35842">
        <ele>28</ele>
        <time>2013-07-18T18:09:14Z</time>
      </trkpt>
      <trkpt lat="48.87332" lon="2.35855">
        <ele>35</ele>
        <time>2013-07-18T18:09:19Z</time>
      </trkpt>
      <trkpt lat="48.8733" lon="2.35862">
        <ele>36</ele>
        <time>2013-07-18T18:09:21Z</time>
      </trkpt>
      <trkpt lat="48.87325" lon="2.35868">
        <ele>36</ele>
        <time>2013-07-18T18:09:23Z</time>
      </trkpt>
      <trkpt lat="48.87319" lon="2.35873">
        <ele>35</ele>
        <time>2013-07-18T18:09:25Z</time>
      </trkpt>
      <trkpt lat="48.873" lon="2.35887">
        <ele>38</ele>
        <time>2013-07-18T18:09:30Z</time>
      </trkpt>
      <trkpt lat="48.8728" lon="2.359">
        <ele>42</ele>
        <time>2013-07-18T18:09:35Z</time>
      </trkpt>
      <trkpt lat="48.87275" lon="2.35902">
        <ele>41</ele>
        <time>2013-07-18T18:09:36Z</time>
      </trkpt>
      <trkpt lat="48.87252" lon="2.35909">
        <ele>41</ele>
        <time>2013-07-18T18:09:40Z</time>
      </trkpt>
      <trkpt lat="48.87231" lon="2.35921">
        <ele>42</ele>
        <time>2013-07-18T18:09:44Z</time>
      </trkpt>
      <trkpt lat="48.87218" lon="2.35931">
        <ele>44</ele>
        <time>2013-07-18T18:09:47Z</time>
      </trkpt>
      <trkpt lat="48.872" lon="2.35946">
        <ele>42</ele>
        <time>2013-07-18T18:09:51Z</time>
      </trkpt>
      <trkpt lat="48.87196" lon="2.35951">
        <ele>42</ele>
        <time>2013-07-18T18:09:52Z</time>
      </trkpt>
      <trkpt lat="48.87191" lon="2.35961">
        <ele>40</ele>
        <time>2013-07-18T18:09:54Z</time>
      </trkpt>
      <trkpt lat="48.87186" lon="2.3597">
        <ele>37</ele>
        <time>2013-07-18T18:09:56Z</time>
      </trkpt>
      <trkpt lat="48.8718" lon="2.35977">
        <ele>39</ele>
        <time>2013-07-18T18:09:58Z</time>
      </trkpt>
      <trkpt lat="48.87164" lon="2.35993">
        <ele>33</ele>
        <time>2013-07-18T18:10:03Z</time>
      </trkpt>
      <trkpt lat="48.87159" lon="2.35999">
        <ele>36</ele>
        <time>2013-07-18T18:10:05Z</time>
      </trkpt>
      <trkpt lat="48.87153" lon="2.36005">
        <ele>33</ele>
        <time>2013-07-18T18:10:07Z</time>
      </trkpt>
      <trkpt lat="48.87144" lon="2.36011">
        <ele>32</ele>
        <time>2013-07-18T18:10:10Z</time>
      </trkpt>
      <trkpt lat="48.87137" lon="2.36015">
        <ele>36</ele>
        <time>2013-07-18T18:10:12Z</time>
      </trkpt>
      <trkpt lat="48.87132" lon="2.36021">
        <ele>30</ele>
        <time>2013-07-18T18:10:14Z</time>
      </trkpt>
      <trkpt lat="48.87127" lon="2.36025">
        <ele>31</ele>
        <time>2013-07-18T18:10:16Z</time>
      </trkpt>
      <trkpt lat="48.87123" lon="2.36031">
        <ele>38</ele>
        <time>2013-07-18T18:10:18Z</time>
      </trkpt>
      <trkpt lat="48.87114" lon="2.3604">
        <ele>40</ele>
        <time>2013-07-18T18:10:22Z</time>
      </trkpt>
      <trkpt lat="48.87109" lon="2.36044">
        <ele>42</ele>
        <time>2013-07-18T18:10:24Z</time>
      </trkpt>
      <trkpt lat="48.87101" lon="2.36048">
        <ele>43</ele>
        <time>2013-07-18T18:10:26Z</time>
      </trkpt>
      <trkpt lat="48.87093" lon="2.36054">
        <ele>43</ele>
        <time>2013-07-18T18:10:28Z</time>
      </trkpt>
      <trkpt lat="48.87085" lon="2.36058">
        <ele>45</ele>
        <time>2013-07-18T18:10:30Z</time>
      </trkpt>
      <trkpt lat="48.87077" lon="2.36063">
        <ele>45</ele>
        <time>2013-07-18T18:10:33Z</time>
      </trkpt>
      <trkpt lat="48.87072" lon="2.36069">
        <ele>45</ele>
        <time>2013-07-18T18:10:35Z</time>
      </trkpt>
      <trkpt lat="48.87065" lon="2.36073">
        <ele>46</ele>
        <time>2013-07-18T18:10:37Z</time>
      </trkpt>
      <trkpt lat="48.8706" lon="2.36079">
        <ele>44</ele>
        <time>2013-07-18T18:10:39Z</time>
      </trkpt>
      <trkpt lat="48.87055" lon="2.36089">
        <ele>44</ele>
        <time>2013-07-18T18:10:41Z</time>
      </trkpt>
      <trkpt lat="48.87049" lon="2.36095">
        <ele>46</ele>
        <time>2013-07-18T18:10:43Z</time>
      </trkpt>
      <trkpt lat="48.87045" lon="2.36102">
        <ele>40</ele>
        <time>2013-07-18T18:10:45Z</time>
      </trkpt>
      <trkpt lat="48.87031" lon="2.36116">
        <ele>41</ele>
        <time>2013-07-18T18:10:50Z</time>
      </trkpt>
      <trkpt lat="48.87023" lon="2.3612">
        <ele>48</ele>
        <time>2013-07-18T18:10:52Z</time>
      </trkpt>
      <trkpt lat="48.87017" lon="2.36128">
        <ele>47</ele>
        <time>2013-07-18T18:10:54Z</time>
      </trkpt>
      <trkpt lat="48.87011" lon="2.36133">
        <ele>47</ele>
        <time>2013-07-18T18:10:56Z</time>
      </trkpt>
      <trkpt lat="48.87003" lon="2.36142">
        <ele>45</ele>
        <time>2013-07-18T18:10:59Z</time>
      </trkpt>
      <trkpt lat="48.86973" lon="2.36176">
        <ele>46</ele>
        <time>2013-07-18T18:11:10Z</time>
      </trkpt>
      <trkpt lat="48.86938" lon="2.36201">
        <ele>45</ele>
        <time>2013-07-18T18:11:20Z</time>
      </trkpt>
      <trkpt lat="48.86919" lon="2.36219">
        <ele>44</ele>
        <time>2013-07-18T18:11:24Z</time>
      </trkpt>
      <trkpt lat="48.86916" lon="2.3622">
        <ele>41</ele>
        <time>2013-07-18T18:11:25Z</time>
      </trkpt>
      <trkpt lat="48.8691" lon="2.36217">
        <ele>42</ele>
        <time>2013-07-18T18:11:27Z</time>
      </trkpt>
      <trkpt lat="48.86905" lon="2.36225">
        <ele>43</ele>
        <time>2013-07-18T18:11:29Z</time>
      </trkpt>
      <trkpt lat="48.86898" lon="2.36232">
        <ele>44</ele>
        <time>2013-07-18T18:11:31Z</time>
      </trkpt>
      <trkpt lat="48.86892" lon="2.36237">
        <ele>38</ele>
        <time>2013-07-18T18:11:33Z</time>
      </trkpt>
      <trkpt lat="48.86885" lon="2.36238">
        <ele>38</ele>
        <time>2013-07-18T18:11:35Z</time>
      </trkpt>
      <trkpt lat="48.8688" lon="2.3624">
        <ele>35</ele>
        <time>2013-07-18T18:11:37Z</time>
      </trkpt>
      <trkpt lat="48.86874" lon="2.36245">
        <ele>39</ele>
        <time>2013-07-18T18:11:40Z</time>
      </trkpt>
      <trkpt lat="48.8687" lon="2.36252">
        <ele>35</ele>
        <time>2013-07-18T18:11:44Z</time>
      </trkpt>
      <trkpt lat="48.86863" lon="2.36263">
        <ele>39</ele>
        <time>2013-07-18T18:11:50Z</time>
      </trkpt>
      <trkpt lat="48.86848" lon="2.36273">
        <ele>40</ele>
        <time>2013-07-18T18:11:57Z</time>
      </trkpt>
      <trkpt lat="48.86843" lon="2.36275">
        <ele>45</ele>
        <time>2013-07-18T18:12:00Z</time>
      </trkpt>
      <trkpt lat="48.86837" lon="2.36268">
        <ele>42</ele>
        <time>2013-07-18T18:12:03Z</time>
      </trkpt>
      <trkpt lat="48.86834" lon="2.36261">
        <ele>44</ele>
        <time>2013-07-18T18:12:06Z</time>
      </trkpt>
      <trkpt lat="48.86829" lon="2.36252">
        <ele>44</ele>
        <time>2013-07-18T18:12:11Z</time>
      </trkpt>
      <trkpt lat="48.86823" lon="2.36253">
        <ele>39</ele>
        <time>2013-07-18T18:12:15Z</time>
      </trkpt>
      <trkpt lat="48.86819" lon="2.36247">
        <ele>44</ele>
        <time>2013-07-18T18:12:19Z</time>
      </trkpt>
      <trkpt lat="48.86815" lon="2.36238">
        <ele>40</ele>
        <time>2013-07-18T18:12:23Z</time>
      </trkpt>
      <trkpt lat="48.86811" lon="2.36232">
        <ele>40</ele>
        <time>2013-07-18T18:12:26Z</time>
      </trkpt>
      <trkpt lat="48.86809" lon="2.3622">
        <ele>38</ele>
        <time>2013-07-18T18:12:29Z</time>
      </trkpt>
      <trkpt lat="48.86805" lon="2.36213">
        <ele>39</ele>
        <time>2013-07-18T18:12:31Z</time>
      </trkpt>
      <trkpt lat="48.86802" lon="2.36207">
        <ele>42</ele>
        <time>2013-07-18T18:12:33Z</time>
      </trkpt>
      <trkpt lat="48.86798" lon="2.36203">
        <ele>44</ele>
        <time>2013-07-18T18:12:36Z</time>
      </trkpt>
      <trkpt lat="48.86793" lon="2.36205">
        <ele>41</ele>
        <time>2013-07-18T18:12:40Z</time>
      </trkpt>
      <trkpt lat="48.86787" lon="2.36204">
        <ele>43</ele>
        <time>2013-07-18T18:12:45Z</time>
      </trkpt>
      <trkpt lat="48.86774" lon="2.36218">
        <ele>37</ele>
        <time>2013-07-18T18:13:01Z</time>
      </trkpt>
      <trkpt lat="48.86769" lon="2.36225">
        <ele>37</ele>
        <time>2013-07-18T18:13:03Z</time>
      </trkpt>
      <trkpt lat="48.86764" lon="2.36236">
        <ele>35</ele>
        <time>2013-07-18T18:13:05Z</time>
      </trkpt>
      <trkpt lat="48.86759" lon="2.36248">
        <ele>34</ele>
        <time>2013-07-18T18:13:07Z</time>
      </trkpt>
      <trkpt lat="48.86745" lon="2.36279">
        <ele>38</ele>
        <time>2013-07-18T18:13:16Z</time>
      </trkpt>
      <trkpt lat="48.8674" lon="2.36285">
        <ele>41</ele>
        <time>2013-07-18T18:13:18Z</time>
      </trkpt>
      <trkpt lat="48.86734" lon="2.36292">
        <ele>43</ele>
        <time>2013-07-18T18:13:21Z</time>
      </trkpt>
      <trkpt lat="48.86729" lon="2.36288">
        <ele>35</ele>
        <time>2013-07-18T18:13:24Z</time>
      </trkpt>
      <trkpt lat="48.86724" lon="2.36279">
        <ele>39</ele>
        <time>2013-07-18T18:13:26Z</time>
      </trkpt>
      <trkpt lat="48.86715" lon="2.36257">
        <ele>24</ele>
        <time>2013-07-18T18:13:34Z</time>
      </trkpt>
      <trkpt lat="48.86715" lon="2.36247">
        <ele>38</ele>
        <time>2013-07-18T18:13:38Z</time>
      </trkpt>
      <trkpt lat="48.86712" lon="2.36237">
        <ele>42</ele>
        <time>2013-07-18T18:13:41Z</time>
      </trkpt>
      <trkpt lat="48.86705" lon="2.36212">
        <ele>39</ele>
        <time>2013-07-18T18:13:47Z</time>
      </trkpt>
      <trkpt lat="48.86694" lon="2.36184">
        <ele>39</ele>
        <time>2013-07-18T18:13:52Z</time>
      </trkpt>
      <trkpt lat="48.8669" lon="2.36177">
        <ele>40</ele>
        <time>2013-07-18T18:13:54Z</time>
      </trkpt>
      <trkpt lat="48.86684" lon="2.36173">
        <ele>37</ele>
        <time>2013-07-18T18:13:56Z</time>
      </trkpt>
      <trkpt lat="48.8668" lon="2.36166">
        <ele>39</ele>
        <time>2013-07-18T18:13:58Z</time>
      </trkpt>
      <trkpt lat="48.86677" lon="2.36158">
        <ele>35</ele>
        <time>2013-07-18T18:14:00Z</time>
      </trkpt>
      <trkpt lat="48.86669" lon="2.36131">
        <ele>40</ele>
        <time>2013-07-18T18:14:07Z</time>
      </trkpt>
      <trkpt lat="48.86668" lon="2.36123">
        <ele>42</ele>
        <time>2013-07-18T18:14:09Z</time>
      </trkpt>
      <trkpt lat="48.86665" lon="2.36113">
        <ele>41</ele>
        <time>2013-07-18T18:14:12Z</time>
      </trkpt>
      <trkpt lat="48.86662" lon="2.36101">
        <ele>45</ele>
        <time>2013-07-18T18:14:16Z</time>
      </trkpt>
      <trkpt lat="48.86651" lon="2.36042">
        <ele>34</ele>
        <time>2013-07-18T18:14:29Z</time>
      </trkpt>
      <trkpt lat="48.86649" lon="2.36034">
        <ele>34</ele>
        <time>2013-07-18T18:14:31Z</time>
      </trkpt>
      <trkpt lat="48.86647" lon="2.36025">
        <ele>37</ele>
        <time>2013-07-18T18:14:33Z</time>
      </trkpt>
      <trkpt lat="48.86645" lon="2.36018">
        <ele>36</ele>
        <time>2013-07-18T18:14:37Z</time>
      </trkpt>
      <trkpt lat="48.86641" lon="2.3601">
        <ele>38</ele>
        <time>2013-07-18T18:14:40Z</time>
      </trkpt>
      <trkpt lat="48.86639" lon="2.36002">
        <ele>37</ele>
        <time>2013-07-18T18:14:43Z</time>
      </trkpt>
      <trkpt lat="48.86639" lon="2.35993">
        <ele>42</ele>
        <time>2013-07-18T18:14:46Z</time>
      </trkpt>
      <trkpt lat="48.86637" lon="2.35984">
        <ele>40</ele>
        <time>2013-07-18T18:14:48Z</time>
      </trkpt>
      <trkpt lat="48.8663" lon="2.35957">
        <ele>46</ele>
        <time>2013-07-18T18:14:55Z</time>
      </trkpt>
      <trkpt lat="48.86625" lon="2.35949">
        <ele>46</ele>
        <time>2013-07-18T18:14:57Z</time>
      </trkpt>
      <trkpt lat="48.86619" lon="2.35937">
        <ele>48</ele>
        <time>2013-07-18T18:15:00Z</time>
      </trkpt>
      <trkpt lat="48.86616" lon="2.3593">
        <ele>46</ele>
        <time>2013-07-18T18:15:02Z</time>
      </trkpt>
      <trkpt lat="48.86609" lon="2.35917">
        <ele>48</ele>
        <time>2013-07-18T18:15:05Z</time>
      </trkpt>
      <trkpt lat="48.86605" lon="2.35911">
        <ele>51</ele>
        <time>2013-07-18T18:15:07Z</time>
      </trkpt>
      <trkpt lat="48.86589" lon="2.35889">
        <ele>56</ele>
        <time>2013-07-18T18:15:12Z</time>
      </trkpt>
      <trkpt lat="48.86583" lon="2.35875">
        <ele>65</ele>
        <time>2013-07-18T18:15:16Z</time>
      </trkpt>
      <trkpt lat="48.86583" lon="2.35867">
        <ele>54</ele>
        <time>2013-07-18T18:15:17Z</time>
      </trkpt>
      <trkpt lat="48.86588" lon="2.35836">
        <ele>36</ele>
        <time>2013-07-18T18:15:20Z</time>
      </trkpt>
      <trkpt lat="48.86592" lon="2.35821">
        <ele>32</ele>
        <time>2013-07-18T18:15:23Z</time>
      </trkpt>
      <trkpt lat="48.86594" lon="2.35812">
        <ele>35</ele>
        <time>2013-07-18T18:15:25Z</time>
      </trkpt>
      <trkpt lat="48.86597" lon="2.35804">
        <ele>34</ele>
        <time>2013-07-18T18:15:27Z</time>
      </trkpt>
      <trkpt lat="48.86603" lon="2.35793">
        <ele>30</ele>
        <time>2013-07-18T18:15:29Z</time>
      </trkpt>
      <trkpt lat="48.86611" lon="2.35773">
        <ele>39</ele>
        <time>2013-07-18T18:15:35Z</time>
      </trkpt>
      <trkpt lat="48.86611" lon="2.35771">
        <ele>56</ele>
        <time>2013-07-18T18:15:39Z</time>
      </trkpt>
      <trkpt lat="48.86598" lon="2.35765">
        <ele>24</ele>
        <time>2013-07-18T18:18:34Z</time>
      </trkpt>
      <trkpt lat="48.86597" lon="2.35764">
        <ele>45</ele>
        <time>2013-07-18T18:18:39Z</time>
      </trkpt>
      <trkpt lat="48.86602" lon="2.35763">
        <ele>53</ele>
        <time>2013-07-18T18:18:45Z</time>
      </trkpt>
      <trkpt lat="48.86605" lon="2.35756">
        <ele>39</ele>
        <time>2013-07-18T18:18:49Z</time>
      </trkpt>
      <trkpt lat="48.86611" lon="2.3575">
        <ele>39</ele>
        <time>2013-07-18T18:18:52Z</time>
      </trkpt>
      <trkpt lat="48.86614" lon="2.35742">
        <ele>43</ele>
        <time>2013-07-18T18:18:55Z</time>
      </trkpt>
      <trkpt lat="48.86614" lon="2.35733">
        <ele>44</ele>
        <time>2013-07-18T18:18:57Z</time>
      </trkpt>
      <trkpt lat="48.86612" lon="2.35719">
        <ele>40</ele>
        <time>2013-07-18T18:19:01Z</time>
      </trkpt>
      <trkpt lat="48.86566" lon="2.35678">
        <ele>41</ele>
        <time>2013-07-18T18:19:22Z</time>
      </trkpt>
      <trkpt lat="48.86569" lon="2.35678">
        <ele>40</ele>
        <time>2013-07-18T18:19:26Z</time>
      </trkpt>
      <trkpt lat="48.86564" lon="2.35675">
        <ele>45</ele>
        <time>2013-07-18T18:19:41Z</time>
      </trkpt>
      <trkpt lat="48.86561" lon="2.35668">
        <ele>42</ele>
        <time>2013-07-18T18:19:45Z</time>
      </trkpt>
      <trkpt lat="48.8656" lon="2.3566">
        <ele>41</ele>
        <time>2013-07-18T18:19:47Z</time>
      </trkpt>
      <trkpt lat="48.86559" lon="2.35643">
        <ele>44</ele>
        <time>2013-07-18T18:19:51Z</time>
      </trkpt>
      <trkpt lat="48.86559" lon="2.35627">
        <ele>48</ele>
        <time>2013-07-18T18:19:56Z</time>
      </trkpt>
      <trkpt lat="48.86558" lon="2.35617">
        <ele>39</ele>
        <time>2013-07-18T18:20:00Z</time>
      </trkpt>
      <trkpt lat="48.86556" lon="2.35609">
        <ele>34</ele>
        <time>2013-07-18T18:20:04Z</time>
      </trkpt>
      <trkpt lat="48.86557" lon="2.356">
        <ele>53</ele>
        <time>2013-07-18T18:20:15Z</time>
      </trkpt>
      <trkpt lat="48.86554" lon="2.3559">
        <ele>47</ele>
        <time>2013-07-18T18:20:19Z</time>
      </trkpt>
      <trkpt lat="48.86553" lon="2.35582">
        <ele>49</ele>
        <time>2013-07-18T18:20:21Z</time>
      </trkpt>
      <trkpt lat="48.86551" lon="2.35573">
        <ele>49</ele>
        <time>2013-07-18T18:20:24Z</time>
      </trkpt>
      <trkpt lat="48.8655" lon="2.35565">
        <ele>48</ele>
        <time>2013-07-18T18:20:27Z</time>
      </trkpt>
      <trkpt lat="48.86547" lon="2.35556">
        <ele>43</ele>
        <time>2013-07-18T18:20:31Z</time>
      </trkpt>
      <trkpt lat="48.86544" lon="2.35549">
        <ele>41</ele>
        <time>2013-07-18T18:20:37Z</time>
      </trkpt>
      <trkpt lat="48.86539" lon="2.35531">
        <ele>34</ele>
        <time>2013-07-18T18:20:45Z</time>
      </trkpt>
      <trkpt lat="48.86514" lon="2.35445">
        <ele>34</ele>
        <time>2013-07-18T18:20:59Z</time>
      </trkpt>
      <trkpt lat="48.86512" lon="2.35437">
        <ele>32</ele>
        <time>2013-07-18T18:21:00Z</time>
      </trkpt>
      <trkpt lat="48.86507" lon="2.35423">
        <ele>33</ele>
        <time>2013-07-18T18:21:02Z</time>
      </trkpt>
      <trkpt lat="48.86497" lon="2.35402">
        <ele>41</ele>
        <time>2013-07-18T18:21:05Z</time>
      </trkpt>
      <trkpt lat="48.86489" lon="2.3538">
        <ele>43</ele>
        <time>2013-07-18T18:21:08Z</time>
      </trkpt>
      <trkpt lat="48.86483" lon="2.35368">
        <ele>46</ele>
        <time>2013-07-18T18:21:10Z</time>
      </trkpt>
      <trkpt lat="48.86482" lon="2.35356">
        <ele>46</ele>
        <time>2013-07-18T18:21:12Z</time>
      </trkpt>
      <trkpt lat="48.86482" lon="2.35342">
        <ele>35</ele>
        <time>2013-07-18T18:21:14Z</time>
      </trkpt>
      <trkpt lat="48.86479" lon="2.3533">
        <ele>41</ele>
        <time>2013-07-18T18:21:16Z</time>
      </trkpt>
      <trkpt lat="48.86476" lon="2.35313">
        <ele>39</ele>
        <time>2013-07-18T18:21:19Z</time>
      </trkpt>
      <trkpt lat="48.86471" lon="2.35282">
        <ele>42</ele>
        <time>2013-07-18T18:21:24Z</time>
      </trkpt>
      <trkpt lat="48.86465" lon="2.35263">
        <ele>39</ele>
        <time>2013-07-18T18:21:27Z</time>
      </trkpt>
      <trkpt lat="48.86458" lon="2.35253">
        <ele>43</ele>
        <time>2013-07-18T18:21:29Z</time>
      </trkpt>
      <trkpt lat="48.86454" lon="2.3524">
        <ele>46</ele>
        <time>2013-07-18T18:21:31Z</time>
      </trkpt>
      <trkpt lat="48.86448" lon="2.35212">
        <ele>51</ele>
        <time>2013-07-18T18:21:35Z</time>
      </trkpt>
      <trkpt lat="48.86448" lon="2.35197">
        <ele>43</ele>
        <time>2013-07-18T18:21:37Z</time>
      </trkpt>
      <trkpt lat="48.86447" lon="2.35172">
        <ele>40</ele>
        <time>2013-07-18T18:21:41Z</time>
      </trkpt>
      <trkpt lat="48.86444" lon="2.35163">
        <ele>41</ele>
        <time>2013-07-18T18:21:44Z</time>
      </trkpt>
      <trkpt lat="48.86441" lon="2.35157">
        <ele>37</ele>
        <time>2013-07-18T18:21:48Z</time>
      </trkpt>
      <trkpt lat="48.86434" lon="2.35157">
        <ele>55</ele>
        <time>2013-07-18T18:22:00Z</time>
      </trkpt>
      <trkpt lat="48.86413" lon="2.35141">
        <ele>46</ele>
        <time>2013-07-18T18:22:12Z</time>
      </trkpt>
      <trkpt lat="48.86393" lon="2.35127">
        <ele>48</ele>
        <time>2013-07-18T18:22:21Z</time>
      </trkpt>
      <trkpt lat="48.86388" lon="2.35124">
        <ele>49</ele>
        <time>2013-07-18T18:22:24Z</time>
      </trkpt>
      <trkpt lat="48.86365" lon="2.35109">
        <ele>48</ele>
        <time>2013-07-18T18:22:34Z</time>
      </trkpt>
      <trkpt lat="48.8636" lon="2.35104">
        <ele>56</ele>
        <time>2013-07-18T18:22:39Z</time>
      </trkpt>
      <trkpt lat="48.86352" lon="2.35102">
        <ele>50</ele>
        <time>2013-07-18T18:22:44Z</time>
      </trkpt>
      <trkpt lat="48.86347" lon="2.35097">
        <ele>53</ele>
        <time>2013-07-18T18:22:49Z</time>
      </trkpt>
      <trkpt lat="48.86341" lon="2.35093">
        <ele>57</ele>
        <time>2013-07-18T18:23:00Z</time>
      </trkpt>
      <trkpt lat="48.86331" lon="2.35085">
        <ele>58</ele>
        <time>2013-07-18T18:23:06Z</time>
      </trkpt>
      <trkpt lat="48.86323" lon="2.3508">
        <ele>58</ele>
        <time>2013-07-18T18:23:09Z</time>
      </trkpt>
      <trkpt lat="48.8631" lon="2.35071">
        <ele>48</ele>
        <time>2013-07-18T18:23:13Z</time>
      </trkpt>
      <trkpt lat="48.86302" lon="2.35067">
        <ele>48</ele>
        <time>2013-07-18T18:23:15Z</time>
      </trkpt>
      <trkpt lat="48.86294" lon="2.35061">
        <ele>46</ele>
        <time>2013-07-18T18:23:17Z</time>
      </trkpt>
      <trkpt lat="48.86285" lon="2.35057">
        <ele>50</ele>
        <time>2013-07-18T18:23:19Z</time>
      </trkpt>
      <trkpt lat="48.86251" lon="2.35041">
        <ele>45</ele>
        <time>2013-07-18T18:23:28Z</time>
      </trkpt>
      <trkpt lat="48.86242" lon="2.35038">
        <ele>43</ele>
        <time>2013-07-18T18:23:31Z</time>
      </trkpt>
      <trkpt lat="48.86236" lon="2.35033">
        <ele>44</ele>
        <time>2013-07-18T18:23:33Z</time>
      </trkpt>
      <trkpt lat="48.86221" lon="2.35023">
        <ele>44</ele>
        <time>2013-07-18T18:23:38Z</time>
      </trkpt>
      <trkpt lat="48.86216" lon="2.35022">
        <ele>48</ele>
        <time>2013-07-18T18:23:40Z</time>
      </trkpt>
      <trkpt lat="48.86211" lon="2.3502">
        <ele>45</ele>
        <time>2013-07-18T18:23:43Z</time>
      </trkpt>
      <trkpt lat="48.86204" lon="2.35019">
        <ele>46</ele>
        <time>2013-07-18T18:23:46Z</time>
      </trkpt>
      <trkpt lat="48.86194" lon="2.35015">
        <ele>48</ele>
        <time>2013-07-18T18:23:52Z</time>
      </trkpt>
      <trkpt lat="48.86189" lon="2.35012">
        <ele>46</ele>
        <time>2013-07-18T18:23:56Z</time>
      </trkpt>
      <trkpt lat="48.86183" lon="2.3501">
        <ele>47</ele>
        <time>2013-07-18T18:24:00Z</time>
      </trkpt>
      <trkpt lat="48.86168" lon="2.34999">
        <ele>58</ele>
        <time>2013-07-18T18:24:07Z</time>
      </trkpt>
      <trkpt lat="48.86165" lon="2.34996">
        <ele>63</ele>
        <time>2013-07-18T18:24:08Z</time>
      </trkpt>
      <trkpt lat="48.86152" lon="2.34982">
        <ele>47</ele>
        <time>2013-07-18T18:24:11Z</time>
      </trkpt>
      <trkpt lat="48.86137" lon="2.34972">
        <ele>47</ele>
        <time>2013-07-18T18:24:14Z</time>
      </trkpt>
      <trkpt lat="48.86129" lon="2.34968">
        <ele>48</ele>
        <time>2013-07-18T18:24:16Z</time>
      </trkpt>
      <trkpt lat="48.86116" lon="2.34958">
        <ele>59</ele>
        <time>2013-07-18T18:24:20Z</time>
      </trkpt>
      <trkpt lat="48.86099" lon="2.34954">
        <ele>62</ele>
        <time>2013-07-18T18:24:25Z</time>
      </trkpt>
      <trkpt lat="48.86085" lon="2.34943">
        <ele>69</ele>
        <time>2013-07-18T18:24:30Z</time>
      </trkpt>
      <trkpt lat="48.86072" lon="2.34931">
        <ele>65</ele>
        <time>2013-07-18T18:24:34Z</time>
      </trkpt>
      <trkpt lat="48.86065" lon="2.34925">
        <ele>74</ele>
        <time>2013-07-18T18:24:37Z</time>
      </trkpt>
      <trkpt lat="48.86056" lon="2.34921">
        <ele>54</ele>
        <time>2013-07-18T18:24:44Z</time>
      </trkpt>
      <trkpt lat="48.8605" lon="2.3492">
        <ele>52</ele>
        <time>2013-07-18T18:24:47Z</time>
      </trkpt>
      <trkpt lat="48.86045" lon="2.34923">
        <ele>48</ele>
        <time>2013-07-18T18:24:53Z</time>
      </trkpt>
      <trkpt lat="48.86037" lon="2.34923">
        <ele>48</ele>
        <time>2013-07-18T18:24:56Z</time>
      </trkpt>
      <trkpt lat="48.86032" lon="2.3492">
        <ele>45</ele>
        <time>2013-07-18T18:24:59Z</time>
      </trkpt>
      <trkpt lat="48.86027" lon="2.34919">
        <ele>47</ele>
        <time>2013-07-18T18:25:01Z</time>
      </trkpt>
      <trkpt lat="48.86008" lon="2.34915">
        <ele>41</ele>
        <time>2013-07-18T18:25:08Z</time>
      </trkpt>
      <trkpt lat="48.85994" lon="2.34901">
        <ele>42</ele>
        <time>2013-07-18T18:25:14Z</time>
      </trkpt>
      <trkpt lat="48.85982" lon="2.3489">
        <ele>50</ele>
        <time>2013-07-18T18:25:20Z</time>
      </trkpt>
      <trkpt lat="48.85976" lon="2.34887">
        <ele>50</ele>
        <time>2013-07-18T18:25:23Z</time>
      </trkpt>
      <trkpt lat="48.85961" lon="2.34878">
        <ele>45</ele>
        <time>2013-07-18T18:25:30Z</time>
      </trkpt>
      <trkpt lat="48.8594" lon="2.34867">
        <ele>53</ele>
        <time>2013-07-18T18:25:41Z</time>
      </trkpt>
      <trkpt lat="48.85929" lon="2.34862">
        <ele>53</ele>
        <time>2013-07-18T18:25:46Z</time>
      </trkpt>
      <trkpt lat="48.85923" lon="2.34859">
        <ele>52</ele>
        <time>2013-07-18T18:25:48Z</time>
      </trkpt>
      <trkpt lat="48.85884" lon="2.34838">
        <ele>46</ele>
        <time>2013-07-18T18:26:09Z</time>
      </trkpt>
      <trkpt lat="48.85878" lon="2.34838">
        <ele>47</ele>
        <time>2013-07-18T18:26:13Z</time>
      </trkpt>
      <trkpt lat="48.85868" lon="2.34836">
        <ele>44</ele>
        <time>2013-07-18T18:26:21Z</time>
      </trkpt>
      <trkpt lat="48.85862" lon="2.3483">
        <ele>43</ele>
        <time>2013-07-18T18:26:24Z</time>
      </trkpt>
      <trkpt lat="48.85857" lon="2.34828">
        <ele>45</ele>
        <time>2013-07-18T18:26:27Z</time>
      </trkpt>
      <trkpt lat="48.85853" lon="2.34823">
        <ele>46</ele>
        <time>2013-07-18T18:26:29Z</time>
      </trkpt>
      <trkpt lat="48.85848" lon="2.3482">
        <ele>44</ele>
        <time>2013-07-18T18:26:31Z</time>
      </trkpt>
      <trkpt lat="48.8584" lon="2.34818">
        <ele>42</ele>
        <time>2013-07-18T18:26:33Z</time>
      </trkpt>
      <trkpt lat="48.85835" lon="2.34818">
        <ele>43</ele>
        <time>2013-07-18T18:26:35Z</time>
      </trkpt>
      <trkpt lat="48.85829" lon="2.34821">
        <ele>42</ele>
        <time>2013-07-18T18:26:38Z</time>
      </trkpt>
      <trkpt lat="48.85822" lon="2.34821">
        <ele>42</ele>
        <time>2013-07-18T18:26:41Z</time>
      </trkpt>
      <trkpt lat="48.85817" lon="2.34818">
        <ele>44</ele>
        <time>2013-07-18T18:26:43Z</time>
      </trkpt>
      <trkpt lat="48.85811" lon="2.34813">
        <ele>46</ele>
        <time>2013-07-18T18:26:46Z</time>
      </trkpt>
      <trkpt lat="48.85793" lon="2.34798">
        <ele>45</ele>
        <time>2013-07-18T18:26:59Z</time>
      </trkpt>
      <trkpt lat="48.85787" lon="2.34797">
        <ele>39</ele>
        <time>2013-07-18T18:27:01Z</time>
      </trkpt>
      <trkpt lat="48.85782" lon="2.34799">
        <ele>34</ele>
        <time>2013-07-18T18:27:04Z</time>
      </trkpt>
      <trkpt lat="48.8578" lon="2.34806">
        <ele>36</ele>
        <time>2013-07-18T18:27:08Z</time>
      </trkpt>
      <trkpt lat="48.85775" lon="2.34814">
        <ele>19</ele>
        <time>2013-07-18T18:27:44Z</time>
      </trkpt>
      <trkpt lat="48.85767" lon="2.34807">
        <ele>34</ele>
        <time>2013-07-18T18:27:49Z</time>
      </trkpt>
      <trkpt lat="48.85764" lon="2.34801">
        <ele>33</ele>
        <time>2013-07-18T18:27:51Z</time>
      </trkpt>
      <trkpt lat="48.85763" lon="2.3479">
        <ele>37</ele>
        <time>2013-07-18T18:27:54Z</time>
      </trkpt>
      <trkpt lat="48.85758" lon="2.34784">
        <ele>40</ele>
        <time>2013-07-18T18:27:57Z</time>
      </trkpt>
      <trkpt lat="48.85752" lon="2.3478">
        <ele>39</ele>
        <time>2013-07-18T18:28:00Z</time>
      </trkpt>
      <trkpt lat="48.8574" lon="2.34775">
        <ele>38</ele>
        <time>2013-07-18T18:28:05Z</time>
      </trkpt>
      <trkpt lat="48.85732" lon="2.34769">
        <ele>41</ele>
        <time>2013-07-18T18:28:09Z</time>
      </trkpt>
      <trkpt lat="48.85718" lon="2.34761">
        <ele>32</ele>
        <time>2013-07-18T18:28:15Z</time>
      </trkpt>
      <trkpt lat="48.85713" lon="2.34764">
        <ele>33</ele>
        <time>2013-07-18T18:28:18Z</time>
      </trkpt>
      <trkpt lat="48.85705" lon="2.3476">
        <ele>41</ele>
        <time>2013-07-18T18:28:20Z</time>
      </trkpt>
      <trkpt lat="48.857" lon="2.34756">
        <ele>35</ele>
        <time>2013-07-18T18:28:23Z</time>
      </trkpt>
      <trkpt lat="48.85696" lon="2.3475">
        <ele>33</ele>
        <time>2013-07-18T18:28:26Z</time>
      </trkpt>
      <trkpt lat="48.85691" lon="2.34744">
        <ele>32</ele>
        <time>2013-07-18T18:28:30Z</time>
      </trkpt>
      <trkpt lat="48.85686" lon="2.34744">
        <ele>29</ele>
        <time>2013-07-18T18:28:35Z</time>
      </trkpt>
      <trkpt lat="48.85686" lon="2.34732">
        <ele>38</ele>
        <time>2013-07-18T18:28:41Z</time>
      </trkpt>
      <trkpt lat="48.85683" lon="2.34725">
        <ele>40</ele>
        <time>2013-07-18T18:28:43Z</time>
      </trkpt>
      <trkpt lat="48.8568" lon="2.34716">
        <ele>36</ele>
        <time>2013-07-18T18:28:45Z</time>
      </trkpt>
      <trkpt lat="48.85678" lon="2.34707">
        <ele>40</ele>
        <time>2013-07-18T18:28:47Z</time>
      </trkpt>
      <trkpt lat="48.85673" lon="2.34702">
        <ele>34</ele>
        <time>2013-07-18T18:28:50Z</time>
      </trkpt>
      <trkpt lat="48.85657" lon="2.34684">
        <ele>37</ele>
        <time>2013-07-18T18:29:00Z</time>
      </trkpt>
      <trkpt lat="48.85646" lon="2.34674">
        <ele>35</ele>
        <time>2013-07-18T18:29:05Z</time>
      </trkpt>
      <trkpt lat="48.8563" lon="2.34661">
        <ele>31</ele>
        <time>2013-07-18T18:29:13Z</time>
      </trkpt>
      <trkpt lat="48.85624" lon="2.34661">
        <ele>35</ele>
        <time>2013-07-18T18:29:19Z</time>
      </trkpt>
      <trkpt lat="48.8562" lon="2.34668">
        <ele>38</ele>
        <time>2013-07-18T18:29:25Z</time>
      </trkpt>
      <trkpt lat="48.85616" lon="2.34672">
        <ele>40</ele>
        <time>2013-07-18T18:29:31Z</time>
      </trkpt>
      <trkpt lat="48.85614" lon="2.34663">
        <ele>36</ele>
        <time>2013-07-18T18:29:35Z</time>
      </trkpt>
      <trkpt lat="48.85609" lon="2.34658">
        <ele>38</ele>
        <time>2013-07-18T18:29:38Z</time>
      </trkpt>
      <trkpt lat="48.85599" lon="2.34651">
        <ele>36</ele>
        <time>2013-07-18T18:29:43Z</time>
      </trkpt>
      <trkpt lat="48.85556" lon="2.34623">
        <ele>37</ele>
        <time>2013-07-18T18:30:05Z</time>
      </trkpt>
      <trkpt lat="48.85549" lon="2.34616">
        <ele>33</ele>
        <time>2013-07-18T18:30:07Z</time>
      </trkpt>
      <trkpt lat="48.85534" lon="2.34601">
        <ele>30</ele>
        <time>2013-07-18T18:30:13Z</time>
      </trkpt>
      <trkpt lat="48.85527" lon="2.34596">
        <ele>30</ele>
        <time>2013-07-18T18:30:16Z</time>
      </trkpt>
      <trkpt lat="48.8552" lon="2.34593">
        <ele>31</ele>
        <time>2013-07-18T18:30:19Z</time>
      </trkpt>
      <trkpt lat="48.85515" lon="2.34589">
        <ele>32</ele>
        <time>2013-07-18T18:30:22Z</time>
      </trkpt>
      <trkpt lat="48.85494" lon="2.34573">
        <ele>42</ele>
        <time>2013-07-18T18:30:35Z</time>
      </trkpt>
      <trkpt lat="48.85478" lon="2.34557">
        <ele>41</ele>
        <time>2013-07-18T18:30:41Z</time>
      </trkpt>
      <trkpt lat="48.8541" lon="2.34478">
        <ele>38</ele>
        <time>2013-07-18T18:31:17Z</time>
      </trkpt>
      <trkpt lat="48.85388" lon="2.34462">
        <ele>36</ele>
        <time>2013-07-18T18:31:28Z</time>
      </trkpt>
      <trkpt lat="48.85383" lon="2.34455">
        <ele>33</ele>
        <time>2013-07-18T18:31:31Z</time>
      </trkpt>
      <trkpt lat="48.85379" lon="2.3445">
        <ele>32</ele>
        <time>2013-07-18T18:31:34Z</time>
      </trkpt>
      <trkpt lat="48.85373" lon="2.34461">
        <ele>34</ele>
        <time>2013-07-18T18:31:40Z</time>
      </trkpt>
      <trkpt lat="48.85373" lon="2.34471">
        <ele>34</ele>
        <time>2013-07-18T18:31:43Z</time>
      </trkpt>
      <trkpt lat="48.8537" lon="2.3448">
        <ele>36</ele>
        <time>2013-07-18T18:31:46Z</time>
      </trkpt>
      <trkpt lat="48.85369" lon="2.34488">
        <ele>35</ele>
        <time>2013-07-18T18:31:49Z</time>
      </trkpt>
      <trkpt lat="48.85366" lon="2.34496">
        <ele>39</ele>
        <time>2013-07-18T18:31:52Z</time>
      </trkpt>
      <trkpt lat="48.85365" lon="2.34506">
        <ele>35</ele>
        <time>2013-07-18T18:31:56Z</time>
      </trkpt>
      <trkpt lat="48.85363" lon="2.34513">
        <ele>42</ele>
        <time>2013-07-18T18:31:59Z</time>
      </trkpt>
      <trkpt lat="48.85359" lon="2.34523">
        <ele>36</ele>
        <time>2013-07-18T18:32:03Z</time>
      </trkpt>
      <trkpt lat="48.85357" lon="2.34534">
        <ele>31</ele>
        <time>2013-07-18T18:32:06Z</time>
      </trkpt>
      <trkpt lat="48.85354" lon="2.34542">
        <ele>31</ele>
        <time>2013-07-18T18:32:08Z</time>
      </trkpt>
      <trkpt lat="48.85349" lon="2.34555">
        <ele>29</ele>
        <time>2013-07-18T18:32:11Z</time>
      </trkpt>
      <trkpt lat="48.85347" lon="2.34563">
        <ele>29</ele>
        <time>2013-07-18T18:32:13Z</time>
      </trkpt>
      <trkpt lat="48.85341" lon="2.34591">
        <ele>37</ele>
        <time>2013-07-18T18:32:20Z</time>
      </trkpt>
      <trkpt lat="48.85338" lon="2.34601">
        <ele>36</ele>
        <time>2013-07-18T18:32:23Z</time>
      </trkpt>
      <trkpt lat="48.85335" lon="2.34608">
        <ele>38</ele>
        <time>2013-07-18T18:32:25Z</time>
      </trkpt>
      <trkpt lat="48.85334" lon="2.34618">
        <ele>34</ele>
        <time>2013-07-18T18:32:28Z</time>
      </trkpt>
      <trkpt lat="48.85332" lon="2.34631">
        <ele>40</ele>
        <time>2013-07-18T18:32:32Z</time>
      </trkpt>
      <trkpt lat="48.8533" lon="2.34638">
        <ele>40</ele>
        <time>2013-07-18T18:32:34Z</time>
      </trkpt>
      <trkpt lat="48.85328" lon="2.34644">
        <ele>38</ele>
        <time>2013-07-18T18:32:36Z</time>
      </trkpt>
      <trkpt lat="48.85326" lon="2.34652">
        <ele>39</ele>
        <time>2013-07-18T18:32:39Z</time>
      </trkpt>
      <trkpt lat="48.85323" lon="2.34661">
        <ele>35</ele>
        <time>2013-07-18T18:32:45Z</time>
      </trkpt>
      <trkpt lat="48.8532" lon="2.34665">
        <ele>37</ele>
        <time>2013-07-18T18:32:59Z</time>
      </trkpt>
      <trkpt lat="48.85316" lon="2.34673">
        <ele>31</ele>
        <time>2013-07-18T18:33:04Z</time>
      </trkpt>
      <trkpt lat="48.8531" lon="2.34672">
        <ele>33</ele>
        <time>2013-07-18T18:33:12Z</time>
      </trkpt>
      <trkpt lat="48.85303" lon="2.34668">
        <ele>36</ele>
        <time>2013-07-18T18:33:18Z</time>
      </trkpt>
      <trkpt lat="48.85304" lon="2.34671">
        <ele>31</ele>
        <time>2013-07-18T18:33:41Z</time>
      </trkpt>
      <trkpt lat="48.853" lon="2.34676">
        <ele>44</ele>
        <time>2013-07-18T18:33:56Z</time>
      </trkpt>
      <trkpt lat="48.85294" lon="2.34683">
        <ele>43</ele>
        <time>2013-07-18T18:33:59Z</time>
      </trkpt>
      <trkpt lat="48.8529" lon="2.34689">
        <ele>41</ele>
        <time>2013-07-18T18:34:01Z</time>
      </trkpt>
      <trkpt lat="48.85285" lon="2.34699">
        <ele>39</ele>
        <time>2013-07-18T18:34:04Z</time>
      </trkpt>
      <trkpt lat="48.85259" lon="2.3475">
        <ele>35</ele>
        <time>2013-07-18T18:34:21Z</time>
      </trkpt>
      <trkpt lat="48.85257" lon="2.34752">
        <ele>37</ele>
        <time>2013-07-18T18:34:22Z</time>
      </trkpt>
      <trkpt lat="48.85254" lon="2.34759">
        <ele>32</ele>
        <time>2013-07-18T18:34:24Z</time>
      </trkpt>
      <trkpt lat="48.8525" lon="2.3477">
        <ele>37</ele>
        <time>2013-07-18T18:34:28Z</time>
      </trkpt>
      <trkpt lat="48.85246" lon="2.34776">
        <ele>35</ele>
        <time>2013-07-18T18:34:30Z</time>
      </trkpt>
      <trkpt lat="48.85242" lon="2.34783">
        <ele>34</ele>
        <time>2013-07-18T18:34:32Z</time>
      </trkpt>
      <trkpt lat="48.8524" lon="2.34792">
        <ele>33</ele>
        <time>2013-07-18T18:34:34Z</time>
      </trkpt>
      <trkpt lat="48.85235" lon="2.34799">
        <ele>33</ele>
        <time>2013-07-18T18:34:37Z</time>
      </trkpt>
      <trkpt lat="48.85229" lon="2.34805">
        <ele>30</ele>
        <time>2013-07-18T18:34:40Z</time>
      </trkpt>
      <trkpt lat="48.85224" lon="2.34808">
        <ele>36</ele>
        <time>2013-07-18T18:34:44Z</time>
      </trkpt>
      <trkpt lat="48.85217" lon="2.34804">
        <ele>37</ele>
        <time>2013-07-18T18:34:47Z</time>
      </trkpt>
      <trkpt lat="48.8521" lon="2.34802">
        <ele>40</ele>
        <time>2013-07-18T18:34:50Z</time>
      </trkpt>
      <trkpt lat="48.85203" lon="2.34797">
        <ele>37</ele>
        <time>2013-07-18T18:34:52Z</time>
      </trkpt>
      <trkpt lat="48.8519" lon="2.34786">
        <ele>37</ele>
        <time>2013-07-18T18:34:57Z</time>
      </trkpt>
      <trkpt lat="48.85185" lon="2.34782">
        <ele>36</ele>
        <time>2013-07-18T18:34:59Z</time>
      </trkpt>
      <trkpt lat="48.85178" lon="2.34776">
        <ele>38</ele>
        <time>2013-07-18T18:35:02Z</time>
      </trkpt>
      <trkpt lat="48.85172" lon="2.34782">
        <ele>40</ele>
        <time>2013-07-18T18:35:05Z</time>
      </trkpt>
      <trkpt lat="48.85164" lon="2.34784">
        <ele>40</ele>
        <time>2013-07-18T18:35:07Z</time>
      </trkpt>
      <trkpt lat="48.85157" lon="2.34788">
        <ele>38</ele>
        <time>2013-07-18T18:35:09Z</time>
      </trkpt>
      <trkpt lat="48.85136" lon="2.34799">
        <ele>36</ele>
        <time>2013-07-18T18:35:14Z</time>
      </trkpt>
      <trkpt lat="48.85131" lon="2.34802">
        <ele>36</ele>
        <time>2013-07-18T18:35:15Z</time>
      </trkpt>
      <trkpt lat="48.85126" lon="2.34805">
        <ele>32</ele>
        <time>2013-07-18T18:35:16Z</time>
      </trkpt>
      <trkpt lat="48.85117" lon="2.3481">
        <ele>37</ele>
        <time>2013-07-18T18:35:18Z</time>
      </trkpt>
      <trkpt lat="48.85104" lon="2.34825">
        <ele>37</ele>
        <time>2013-07-18T18:35:22Z</time>
      </trkpt>
      <trkpt lat="48.85093" lon="2.3484">
        <ele>34</ele>
        <time>2013-07-18T18:35:26Z</time>
      </trkpt>
      <trkpt lat="48.85086" lon="2.34839">
        <ele>33</ele>
        <time>2013-07-18T18:35:28Z</time>
      </trkpt>
      <trkpt lat="48.8508" lon="2.3484">
        <ele>34</ele>
        <time>2013-07-18T18:35:30Z</time>
      </trkpt>
      <trkpt lat="48.85073" lon="2.34842">
        <ele>32</ele>
        <time>2013-07-18T18:35:33Z</time>
      </trkpt>
      <trkpt lat="48.85067" lon="2.34846">
        <ele>31</ele>
        <time>2013-07-18T18:35:36Z</time>
      </trkpt>
      <trkpt lat="48.85055" lon="2.3485">
        <ele>36</ele>
        <time>2013-07-18T18:35:41Z</time>
      </trkpt>
      <trkpt lat="48.85049" lon="2.34852">
        <ele>40</ele>
        <time>2013-07-18T18:35:44Z</time>
      </trkpt>
      <trkpt lat="48.85029" lon="2.34854">
        <ele>46</ele>
        <time>2013-07-18T18:35:55Z</time>
      </trkpt>
      <trkpt lat="48.85019" lon="2.34854">
        <ele>46</ele>
        <time>2013-07-18T18:36:01Z</time>
      </trkpt>
      <trkpt lat="48.85012" lon="2.34807">
        <ele>48</ele>
        <time>2013-07-18T18:36:41Z</time>
      </trkpt>
      <trkpt lat="48.85039" lon="2.34833">
        <ele>48</ele>
        <time>2013-07-18T18:36:56Z</time>
      </trkpt>
      <trkpt lat="48.85013" lon="2.34807">
        <ele>48</ele>
        <time>2013-07-18T18:37:58Z</time>
      </trkpt>
      <trkpt lat="48.85039" lon="2.34834">
        <ele>48</ele>
        <time>2013-07-18T18:41:38Z</time>
      </trkpt>
      <trkpt lat="48.85012" lon="2.34806">
        <ele>48</ele>
        <time>2013-07-18T18:44:25Z</time>
      </trkpt>
      <trkpt lat="48.85037" lon="2.34831">
        <ele>48</ele>
        <time>2013-07-18T18:44:41Z</time>
      </trkpt>
      <trkpt lat="48.85046" lon="2.34847">
        <ele>47</ele>
        <time>2013-07-18T18:54:52Z</time>
      </trkpt>
      <trkpt lat="48.85051" lon="2.34841">
        <ele>33</ele>
        <time>2013-07-18T18:54:56Z</time>
      </trkpt>
      <trkpt lat="48.85051" lon="2.34852">
        <ele>33</ele>
        <time>2013-07-18T18:55:14Z</time>
      </trkpt>
      <trkpt lat="48.8505" lon="2.3486">
        <ele>31</ele>
        <time>2013-07-18T18:55:17Z</time>
      </trkpt>
      <trkpt lat="48.85041" lon="2.34859">
        <ele>47</ele>
        <time>2013-07-18T18:55:28Z</time>
      </trkpt>
      <trkpt lat="48.85037" lon="2.34856">
        <ele>41</ele>
        <time>2013-07-18T18:55:30Z</time>
      </trkpt>
      <trkpt lat="48.85032" lon="2.3485">
        <ele>41</ele>
        <time>2013-07-18T18:55:33Z</time>
      </trkpt>
      <trkpt lat="48.8503" lon="2.34839">
        <ele>47</ele>
        <time>2013-07-18T18:55:36Z</time>
      </trkpt>
      <trkpt lat="48.85028" lon="2.34831">
        <ele>44</ele>
        <time>2013-07-18T18:55:38Z</time>
      </trkpt>
      <trkpt lat="48.85029" lon="2.34822">
        <ele>38</ele>
        <time>2013-07-18T18:55:44Z</time>
      </trkpt>
      <trkpt lat="48.85024" lon="2.34824">
        <ele>40</ele>
        <time>2013-07-18T18:56:46Z</time>
      </trkpt>
      <trkpt lat="48.8502" lon="2.34833">
        <ele>35</ele>
        <time>2013-07-18T18:56:52Z</time>
      </trkpt>
      <trkpt lat="48.85015" lon="2.34844">
        <ele>39</ele>
        <time>2013-07-18T18:56:56Z</time>
      </trkpt>
      <trkpt lat="48.85013" lon="2.34852">
        <ele>36</ele>
        <time>2013-07-18T18:57:01Z</time>
      </trkpt>
      <trkpt lat="48.85014" lon="2.34862">
        <ele>30</ele>
        <time>2013-07-18T18:57:06Z</time>
      </trkpt>
      <trkpt lat="48.85015" lon="2.34869">
        <ele>29</ele>
        <time>2013-07-18T18:57:10Z</time>
      </trkpt>
      <trkpt lat="48.85013" lon="2.34877">
        <ele>25</ele>
        <time>2013-07-18T18:57:13Z</time>
      </trkpt>
      <trkpt lat="48.85011" lon="2.34887">
        <ele>20</ele>
        <time>2013-07-18T18:57:16Z</time>
      </trkpt>
      <trkpt lat="48.85007" lon="2.34904">
        <ele>22</ele>
        <time>2013-07-18T18:57:23Z</time>
      </trkpt>
      <trkpt lat="48.85004" lon="2.34912">
        <ele>22</ele>
        <time>2013-07-18T18:57:26Z</time>
      </trkpt>
      <trkpt lat="48.85001" lon="2.3492">
        <ele>18</ele>
        <time>2013-07-18T18:57:29Z</time>
      </trkpt>
      <trkpt lat="48.84998" lon="2.34928">
        <ele>25</ele>
        <time>2013-07-18T18:57:34Z</time>
      </trkpt>
      <trkpt lat="48.84993" lon="2.34931">
        <ele>30</ele>
        <time>2013-07-18T18:57:39Z</time>
      </trkpt>
      <trkpt lat="48.84986" lon="2.34933">
        <ele>28</ele>
        <time>2013-07-18T18:57:54Z</time>
      </trkpt>
      <trkpt lat="48.84981" lon="2.34929">
        <ele>35</ele>
        <time>2013-07-18T18:57:58Z</time>
      </trkpt>
      <trkpt lat="48.84976" lon="2.34929">
        <ele>32</ele>
        <time>2013-07-18T18:58:02Z</time>
      </trkpt>
      <trkpt lat="48.84972" lon="2.34924">
        <ele>33</ele>
        <time>2013-07-18T18:58:06Z</time>
      </trkpt>
      <trkpt lat="48.84966" lon="2.3492">
        <ele>31</ele>
        <time>2013-07-18T18:58:10Z</time>
      </trkpt>
      <trkpt lat="48.84959" lon="2.34922">
        <ele>34</ele>
        <time>2013-07-18T18:58:13Z</time>
      </trkpt>
      <trkpt lat="48.84954" lon="2.34926">
        <ele>35</ele>
        <time>2013-07-18T18:58:15Z</time>
      </trkpt>
      <trkpt lat="48.84945" lon="2.34929">
        <ele>35</ele>
        <time>2013-07-18T18:58:17Z</time>
      </trkpt>
      <trkpt lat="48.84933" lon="2.34937">
        <ele>38</ele>
        <time>2013-07-18T18:58:20Z</time>
      </trkpt>
      <trkpt lat="48.84917" lon="2.34951">
        <ele>37</ele>
        <time>2013-07-18T18:58:24Z</time>
      </trkpt>
      <trkpt lat="48.8491" lon="2.34956">
        <ele>37</ele>
        <time>2013-07-18T18:58:26Z</time>
      </trkpt>
      <trkpt lat="48.84889" lon="2.34966">
        <ele>35</ele>
        <time>2013-07-18T18:58:31Z</time>
      </trkpt>
      <trkpt lat="48.84875" lon="2.34977">
        <ele>35</ele>
        <time>2013-07-18T18:58:36Z</time>
      </trkpt>
      <trkpt lat="48.84869" lon="2.34984">
        <ele>38</ele>
        <time>2013-07-18T18:58:38Z</time>
      </trkpt>
      <trkpt lat="48.84853" lon="2.34999">
        <ele>37</ele>
        <time>2013-07-18T18:58:43Z</time>
      </trkpt>
      <trkpt lat="48.84845" lon="2.35007">
        <ele>42</ele>
        <time>2013-07-18T18:58:46Z</time>
      </trkpt>
      <trkpt lat="48.8484" lon="2.3501">
        <ele>37</ele>
        <time>2013-07-18T18:58:48Z</time>
      </trkpt>
      <trkpt lat="48.84833" lon="2.3501">
        <ele>37</ele>
        <time>2013-07-18T18:58:50Z</time>
      </trkpt>
      <trkpt lat="48.84828" lon="2.35014">
        <ele>34</ele>
        <time>2013-07-18T18:58:52Z</time>
      </trkpt>
      <trkpt lat="48.84821" lon="2.35017">
        <ele>32</ele>
        <time>2013-07-18T18:59:01Z</time>
      </trkpt>
      <trkpt lat="48.84818" lon="2.35009">
        <ele>32</ele>
        <time>2013-07-18T18:59:05Z</time>
      </trkpt>
      <trkpt lat="48.84812" lon="2.35011">
        <ele>36</ele>
        <time>2013-07-18T18:59:18Z</time>
      </trkpt>
      <trkpt lat="48.84808" lon="2.35019">
        <ele>36</ele>
        <time>2013-07-18T18:59:20Z</time>
      </trkpt>
      <trkpt lat="48.84805" lon="2.35029">
        <ele>33</ele>
        <time>2013-07-18T18:59:22Z</time>
      </trkpt>
      <trkpt lat="48.84802" lon="2.35036">
        <ele>39</ele>
        <time>2013-07-18T18:59:24Z</time>
      </trkpt>
      <trkpt lat="48.84793" lon="2.35049">
        <ele>37</ele>
        <time>2013-07-18T18:59:28Z</time>
      </trkpt>
      <trkpt lat="48.84788" lon="2.35054">
        <ele>36</ele>
        <time>2013-07-18T18:59:30Z</time>
      </trkpt>
      <trkpt lat="48.8478" lon="2.35062">
        <ele>36</ele>
        <time>2013-07-18T18:59:33Z</time>
      </trkpt>
      <trkpt lat="48.84731" lon="2.35115">
        <ele>41</ele>
        <time>2013-07-18T18:59:53Z</time>
      </trkpt>
      <trkpt lat="48.84725" lon="2.35117">
        <ele>39</ele>
        <time>2013-07-18T18:59:55Z</time>
      </trkpt>
      <trkpt lat="48.84707" lon="2.35129">
        <ele>47</ele>
        <time>2013-07-18T19:00:02Z</time>
      </trkpt>
      <trkpt lat="48.84702" lon="2.35133">
        <ele>47</ele>
        <time>2013-07-18T19:00:04Z</time>
      </trkpt>
      <trkpt lat="48.84685" lon="2.35149">
        <ele>46</ele>
        <time>2013-07-18T19:00:12Z</time>
      </trkpt>
      <trkpt lat="48.8467" lon="2.35159">
        <ele>45</ele>
        <time>2013-07-18T19:00:27Z</time>
      </trkpt>
      <trkpt lat="48.84665" lon="2.35158">
        <ele>46</ele>
        <time>2013-07-18T19:00:30Z</time>
      </trkpt>
      <trkpt lat="48.84659" lon="2.35154">
        <ele>51</ele>
        <time>2013-07-18T19:00:34Z</time>
      </trkpt>
      <trkpt lat="48.84653" lon="2.35155">
        <ele>70</ele>
        <time>2013-07-18T19:01:06Z</time>
      </trkpt>
      <trkpt lat="48.84649" lon="2.35159">
        <ele>70</ele>
        <time>2013-07-18T19:01:09Z</time>
      </trkpt>
      <trkpt lat="48.84643" lon="2.35164">
        <ele>53</ele>
        <time>2013-07-18T19:01:36Z</time>
      </trkpt>
      <trkpt lat="48.84635" lon="2.3517">
        <ele>56</ele>
        <time>2013-07-18T19:01:40Z</time>
      </trkpt>
      <trkpt lat="48.8463" lon="2.35171">
        <ele>51</ele>
        <time>2013-07-18T19:01:42Z</time>
      </trkpt>
      <trkpt lat="48.84611" lon="2.35174">
        <ele>43</ele>
        <time>2013-07-18T19:01:49Z</time>
      </trkpt>
      <trkpt lat="48.84605" lon="2.35177">
        <ele>43</ele>
        <time>2013-07-18T19:01:51Z</time>
      </trkpt>
      <trkpt lat="48.84585" lon="2.35184">
        <ele>47</ele>
        <time>2013-07-18T19:01:57Z</time>
      </trkpt>
      <trkpt lat="48.84568" lon="2.35186">
        <ele>47</ele>
        <time>2013-07-18T19:02:01Z</time>
      </trkpt>
      <trkpt lat="48.8456" lon="2.35189">
        <ele>50</ele>
        <time>2013-07-18T19:02:03Z</time>
      </trkpt>
      <trkpt lat="48.84552" lon="2.35192">
        <ele>51</ele>
        <time>2013-07-18T19:02:05Z</time>
      </trkpt>
      <trkpt lat="48.84544" lon="2.35194">
        <ele>40</ele>
        <time>2013-07-18T19:02:07Z</time>
      </trkpt>
      <trkpt lat="48.84539" lon="2.35196">
        <ele>37</ele>
        <time>2013-07-18T19:02:08Z</time>
      </trkpt>
      <trkpt lat="48.8453" lon="2.35197">
        <ele>43</ele>
        <time>2013-07-18T19:02:10Z</time>
      </trkpt>
      <trkpt lat="48.8451" lon="2.35201">
        <ele>53</ele>
        <time>2013-07-18T19:02:15Z</time>
      </trkpt>
      <trkpt lat="48.84503" lon="2.35205">
        <ele>52</ele>
        <time>2013-07-18T19:02:17Z</time>
      </trkpt>
      <trkpt lat="48.84496" lon="2.35207">
        <ele>53</ele>
        <time>2013-07-18T19:02:19Z</time>
      </trkpt>
      <trkpt lat="48.84487" lon="2.35206">
        <ele>55</ele>
        <time>2013-07-18T19:02:21Z</time>
      </trkpt>
      <trkpt lat="48.84481" lon="2.35208">
        <ele>57</ele>
        <time>2013-07-18T19:02:23Z</time>
      </trkpt>
      <trkpt lat="48.84474" lon="2.3521">
        <ele>57</ele>
        <time>2013-07-18T19:02:25Z</time>
      </trkpt>
      <trkpt lat="48.84468" lon="2.35215">
        <ele>59</ele>
        <time>2013-07-18T19:02:27Z</time>
      </trkpt>
      <trkpt lat="48.84461" lon="2.35217">
        <ele>55</ele>
        <time>2013-07-18T19:02:29Z</time>
      </trkpt>
      <trkpt lat="48.84455" lon="2.35217">
        <ele>52</ele>
        <time>2013-07-18T19:02:31Z</time>
      </trkpt>
      <trkpt lat="48.84445" lon="2.35221">
        <ele>58</ele>
        <time>2013-07-18T19:02:34Z</time>
      </trkpt>
      <trkpt lat="48.8444" lon="2.35223">
        <ele>55</ele>
        <time>2013-07-18T19:02:36Z</time>
      </trkpt>
      <trkpt lat="48.84433" lon="2.35226">
        <ele>55</ele>
        <time>2013-07-18T19:02:38Z</time>
      </trkpt>
      <trkpt lat="48.84427" lon="2.35227">
        <ele>53</ele>
        <time>2013-07-18T19:02:40Z</time>
      </trkpt>
      <trkpt lat="48.8442" lon="2.35225">
        <ele>53</ele>
        <time>2013-07-18T19:02:42Z</time>
      </trkpt>
      <trkpt lat="48.84401" lon="2.35222">
        <ele>50</ele>
        <time>2013-07-18T19:02:47Z</time>
      </trkpt>
      <trkpt lat="48.84381" lon="2.35222">
        <ele>54</ele>
        <time>2013-07-18T19:02:52Z</time>
      </trkpt>
      <trkpt lat="48.84372" lon="2.35219">
        <ele>54</ele>
        <time>2013-07-18T19:02:54Z</time>
      </trkpt>
      <trkpt lat="48.84364" lon="2.35218">
        <ele>53</ele>
        <time>2013-07-18T19:02:56Z</time>
      </trkpt>
      <trkpt lat="48.84359" lon="2.35219">
        <ele>53</ele>
        <time>2013-07-18T19:02:57Z</time>
      </trkpt>
      <trkpt lat="48.84349" lon="2.35219">
        <ele>51</ele>
        <time>2013-07-18T19:02:59Z</time>
      </trkpt>
      <trkpt lat="48.84342" lon="2.35216">
        <ele>51</ele>
        <time>2013-07-18T19:03:01Z</time>
      </trkpt>
      <trkpt lat="48.84335" lon="2.35215">
        <ele>47</ele>
        <time>2013-07-18T19:03:03Z</time>
      </trkpt>
      <trkpt lat="48.84315" lon="2.35215">
        <ele>55</ele>
        <time>2013-07-18T19:03:11Z</time>
      </trkpt>
      <trkpt lat="48.84294" lon="2.35215">
        <ele>46</ele>
        <time>2013-07-18T19:03:20Z</time>
      </trkpt>
      <trkpt lat="48.84284" lon="2.35213">
        <ele>44</ele>
        <time>2013-07-18T19:03:23Z</time>
      </trkpt>
      <trkpt lat="48.84276" lon="2.35213">
        <ele>45</ele>
        <time>2013-07-18T19:03:26Z</time>
      </trkpt>
      <trkpt lat="48.84268" lon="2.35212">
        <ele>45</ele>
        <time>2013-07-18T19:03:28Z</time>
      </trkpt>
      <trkpt lat="48.8426" lon="2.35209">
        <ele>41</ele>
        <time>2013-07-18T19:03:30Z</time>
      </trkpt>
      <trkpt lat="48.84221" lon="2.35199">
        <ele>42</ele>
        <time>2013-07-18T19:03:38Z</time>
      </trkpt>
      <trkpt lat="48.84215" lon="2.35199">
        <ele>43</ele>
        <time>2013-07-18T19:03:39Z</time>
      </trkpt>
      <trkpt lat="48.84197" lon="2.35198">
        <ele>47</ele>
        <time>2013-07-18T19:03:43Z</time>
      </trkpt>
      <trkpt lat="48.84191" lon="2.35197">
        <ele>50</ele>
        <time>2013-07-18T19:03:44Z</time>
      </trkpt>
      <trkpt lat="48.84185" lon="2.35194">
        <ele>49</ele>
        <time>2013-07-18T19:03:45Z</time>
      </trkpt>
      <trkpt lat="48.84179" lon="2.35192">
        <ele>47</ele>
        <time>2013-07-18T19:03:46Z</time>
      </trkpt>
      <trkpt lat="48.84164" lon="2.35187">
        <ele>45</ele>
        <time>2013-07-18T19:03:50Z</time>
      </trkpt>
      <trkpt lat="48.84155" lon="2.35185">
        <ele>44</ele>
        <time>2013-07-18T19:03:53Z</time>
      </trkpt>
      <trkpt lat="48.84138" lon="2.35179">
        <ele>46</ele>
        <time>2013-07-18T19:03:58Z</time>
      </trkpt>
      <trkpt lat="48.84131" lon="2.35175">
        <ele>47</ele>
        <time>2013-07-18T19:04:00Z</time>
      </trkpt>
      <trkpt lat="48.84122" lon="2.35172">
        <ele>49</ele>
        <time>2013-07-18T19:04:02Z</time>
      </trkpt>
      <trkpt lat="48.841" lon="2.35163">
        <ele>46</ele>
        <time>2013-07-18T19:04:06Z</time>
      </trkpt>
      <trkpt lat="48.84089" lon="2.35158">
        <ele>47</ele>
        <time>2013-07-18T19:04:08Z</time>
      </trkpt>
      <trkpt lat="48.8408" lon="2.35157">
        <ele>52</ele>
        <time>2013-07-18T19:04:10Z</time>
      </trkpt>
      <trkpt lat="48.84075" lon="2.35156">
        <ele>51</ele>
        <time>2013-07-18T19:04:11Z</time>
      </trkpt>
      <trkpt lat="48.84066" lon="2.35154">
        <ele>45</ele>
        <time>2013-07-18T19:04:13Z</time>
      </trkpt>
      <trkpt lat="48.84044" lon="2.35151">
        <ele>47</ele>
        <time>2013-07-18T19:04:18Z</time>
      </trkpt>
      <trkpt lat="48.84038" lon="2.35148">
        <ele>45</ele>
        <time>2013-07-18T19:04:19Z</time>
      </trkpt>
      <trkpt lat="48.83999" lon="2.35129">
        <ele>43</ele>
        <time>2013-07-18T19:04:25Z</time>
      </trkpt>
      <trkpt lat="48.83992" lon="2.35129">
        <ele>42</ele>
        <time>2013-07-18T19:04:27Z</time>
      </trkpt>
      <trkpt lat="48.83983" lon="2.35126">
        <ele>47</ele>
        <time>2013-07-18T19:04:30Z</time>
      </trkpt>
      <trkpt lat="48.83977" lon="2.35123">
        <ele>44</ele>
        <time>2013-07-18T19:04:32Z</time>
      </trkpt>
      <trkpt lat="48.8397" lon="2.3512">
        <ele>45</ele>
        <time>2013-07-18T19:04:34Z</time>
      </trkpt>
      <trkpt lat="48.83912" lon="2.35096">
        <ele>44</ele>
        <time>2013-07-18T19:04:48Z</time>
      </trkpt>
      <trkpt lat="48.83905" lon="2.35092">
        <ele>45</ele>
        <time>2013-07-18T19:04:50Z</time>
      </trkpt>
      <trkpt lat="48.83899" lon="2.35087">
        <ele>45</ele>
        <time>2013-07-18T19:04:52Z</time>
      </trkpt>
      <trkpt lat="48.83883" lon="2.35073">
        <ele>47</ele>
        <time>2013-07-18T19:04:59Z</time>
      </trkpt>
      <trkpt lat="48.83879" lon="2.35067">
        <ele>41</ele>
        <time>2013-07-18T19:05:01Z</time>
      </trkpt>
      <trkpt lat="48.83876" lon="2.35057">
        <ele>34</ele>
        <time>2013-07-18T19:05:04Z</time>
      </trkpt>
      <trkpt lat="48.83876" lon="2.35049">
        <ele>37</ele>
        <time>2013-07-18T19:05:06Z</time>
      </trkpt>
      <trkpt lat="48.83873" lon="2.3504">
        <ele>40</ele>
        <time>2013-07-18T19:05:09Z</time>
      </trkpt>
      <trkpt lat="48.8387" lon="2.35032">
        <ele>39</ele>
        <time>2013-07-18T19:05:15Z</time>
      </trkpt>
      <trkpt lat="48.83864" lon="2.35031">
        <ele>42</ele>
        <time>2013-07-18T19:05:19Z</time>
      </trkpt>
      <trkpt lat="48.83859" lon="2.35032">
        <ele>38</ele>
        <time>2013-07-18T19:05:24Z</time>
      </trkpt>
      <trkpt lat="48.83853" lon="2.35035">
        <ele>42</ele>
        <time>2013-07-18T19:05:29Z</time>
      </trkpt>
      <trkpt lat="48.83846" lon="2.3504">
        <ele>35</ele>
        <time>2013-07-18T19:05:32Z</time>
      </trkpt>
      <trkpt lat="48.83835" lon="2.35047">
        <ele>33</ele>
        <time>2013-07-18T19:05:37Z</time>
      </trkpt>
      <trkpt lat="48.83819" lon="2.35062">
        <ele>37</ele>
        <time>2013-07-18T19:05:48Z</time>
      </trkpt>
      <trkpt lat="48.83813" lon="2.35069">
        <ele>29</ele>
        <time>2013-07-18T19:05:53Z</time>
      </trkpt>
      <trkpt lat="48.83806" lon="2.35071">
        <ele>31</ele>
        <time>2013-07-18T19:05:58Z</time>
      </trkpt>
      <trkpt lat="48.838" lon="2.35076">
        <ele>30</ele>
        <time>2013-07-18T19:06:02Z</time>
      </trkpt>
      <trkpt lat="48.83784" lon="2.35091">
        <ele>39</ele>
        <time>2013-07-18T19:06:14Z</time>
      </trkpt>
      <trkpt lat="48.8378" lon="2.35096">
        <ele>39</ele>
        <time>2013-07-18T19:06:17Z</time>
      </trkpt>
      <trkpt lat="48.83767" lon="2.35114">
        <ele>47</ele>
        <time>2013-07-18T19:06:25Z</time>
      </trkpt>
      <trkpt lat="48.83752" lon="2.35132">
        <ele>54</ele>
        <time>2013-07-18T19:06:33Z</time>
      </trkpt>
      <trkpt lat="48.83744" lon="2.35134">
        <ele>54</ele>
        <time>2013-07-18T19:06:38Z</time>
      </trkpt>
      <trkpt lat="48.83736" lon="2.35139">
        <ele>50</ele>
        <time>2013-07-18T19:06:41Z</time>
      </trkpt>
      <trkpt lat="48.83731" lon="2.35143">
        <ele>50</ele>
        <time>2013-07-18T19:06:43Z</time>
      </trkpt>
      <trkpt lat="48.83726" lon="2.35146">
        <ele>52</ele>
        <time>2013-07-18T19:06:45Z</time>
      </trkpt>
      <trkpt lat="48.83721" lon="2.35148">
        <ele>53</ele>
        <time>2013-07-18T19:06:47Z</time>
      </trkpt>
      <trkpt lat="48.83715" lon="2.35148">
        <ele>53</ele>
        <time>2013-07-18T19:06:49Z</time>
      </trkpt>
      <trkpt lat="48.83708" lon="2.35152">
        <ele>53</ele>
        <time>2013-07-18T19:06:52Z</time>
      </trkpt>
      <trkpt lat="48.83697" lon="2.35157">
        <ele>45</ele>
        <time>2013-07-18T19:07:00Z</time>
      </trkpt>
      <trkpt lat="48.83691" lon="2.35154">
        <ele>50</ele>
        <time>2013-07-18T19:07:02Z</time>
      </trkpt>
      <trkpt lat="48.83686" lon="2.35154">
        <ele>48</ele>
        <time>2013-07-18T19:07:04Z</time>
      </trkpt>
      <trkpt lat="48.83681" lon="2.35152">
        <ele>43</ele>
        <time>2013-07-18T19:07:06Z</time>
      </trkpt>
      <trkpt lat="48.83672" lon="2.35152">
        <ele>40</ele>
        <time>2013-07-18T19:07:09Z</time>
      </trkpt>
      <trkpt lat="48.83667" lon="2.35156">
        <ele>44</ele>
        <time>2013-07-18T19:07:11Z</time>
      </trkpt>
      <trkpt lat="48.83661" lon="2.35162">
        <ele>46</ele>
        <time>2013-07-18T19:07:13Z</time>
      </trkpt>
      <trkpt lat="48.83646" lon="2.35176">
        <ele>48</ele>
        <time>2013-07-18T19:07:19Z</time>
      </trkpt>
      <trkpt lat="48.83641" lon="2.35184">
        <ele>53</ele>
        <time>2013-07-18T19:07:22Z</time>
      </trkpt>
      <trkpt lat="48.83634" lon="2.35189">
        <ele>52</ele>
        <time>2013-07-18T19:07:25Z</time>
      </trkpt>
      <trkpt lat="48.83627" lon="2.35193">
        <ele>50</ele>
        <time>2013-07-18T19:07:27Z</time>
      </trkpt>
      <trkpt lat="48.83606" lon="2.35203">
        <ele>42</ele>
        <time>2013-07-18T19:07:33Z</time>
      </trkpt>
      <trkpt lat="48.83598" lon="2.35208">
        <ele>43</ele>
        <time>2013-07-18T19:07:35Z</time>
      </trkpt>
      <trkpt lat="48.83593" lon="2.35215">
        <ele>41</ele>
        <time>2013-07-18T19:07:37Z</time>
      </trkpt>
      <trkpt lat="48.83588" lon="2.3522">
        <ele>40</ele>
        <time>2013-07-18T19:07:39Z</time>
      </trkpt>
      <trkpt lat="48.83584" lon="2.35227">
        <ele>44</ele>
        <time>2013-07-18T19:07:42Z</time>
      </trkpt>
      <trkpt lat="48.83577" lon="2.35227">
        <ele>43</ele>
        <time>2013-07-18T19:07:54Z</time>
      </trkpt>
      <trkpt lat="48.83572" lon="2.35231">
        <ele>42</ele>
        <time>2013-07-18T19:07:57Z</time>
      </trkpt>
      <trkpt lat="48.83566" lon="2.35236">
        <ele>49</ele>
        <time>2013-07-18T19:08:00Z</time>
      </trkpt>
      <trkpt lat="48.83549" lon="2.35252">
        <ele>51</ele>
        <time>2013-07-18T19:08:10Z</time>
      </trkpt>
      <trkpt lat="48.83543" lon="2.35256">
        <ele>51</ele>
        <time>2013-07-18T19:08:12Z</time>
      </trkpt>
      <trkpt lat="48.83538" lon="2.35258">
        <ele>51</ele>
        <time>2013-07-18T19:08:14Z</time>
      </trkpt>
      <trkpt lat="48.83527" lon="2.35264">
        <ele>57</ele>
        <time>2013-07-18T19:08:18Z</time>
      </trkpt>
      <trkpt lat="48.83521" lon="2.35269">
        <ele>53</ele>
        <time>2013-07-18T19:08:20Z</time>
      </trkpt>
      <trkpt lat="48.83515" lon="2.35272">
        <ele>59</ele>
        <time>2013-07-18T19:08:22Z</time>
      </trkpt>
      <trkpt lat="48.83508" lon="2.35279">
        <ele>59</ele>
        <time>2013-07-18T19:08:26Z</time>
      </trkpt>
      <trkpt lat="48.835" lon="2.35287">
        <ele>61</ele>
        <time>2013-07-18T19:08:33Z</time>
      </trkpt>
      <trkpt lat="48.83494" lon="2.35291">
        <ele>60</ele>
        <time>2013-07-18T19:08:37Z</time>
      </trkpt>
      <trkpt lat="48.83485" lon="2.35299">
        <ele>56</ele>
        <time>2013-07-18T19:08:42Z</time>
      </trkpt>
      <trkpt lat="48.83474" lon="2.35311">
        <ele>59</ele>
        <time>2013-07-18T19:08:46Z</time>
      </trkpt>
      <trkpt lat="48.83468" lon="2.35315">
        <ele>54</ele>
        <time>2013-07-18T19:08:48Z</time>
      </trkpt>
      <trkpt lat="48.83461" lon="2.35318">
        <ele>57</ele>
        <time>2013-07-18T19:08:50Z</time>
      </trkpt>
      <trkpt lat="48.83455" lon="2.35322">
        <ele>53</ele>
        <time>2013-07-18T19:08:53Z</time>
      </trkpt>
      <trkpt lat="48.83449" lon="2.35324">
        <ele>52</ele>
        <time>2013-07-18T19:08:56Z</time>
      </trkpt>
      <trkpt lat="48.83444" lon="2.35328">
        <ele>59</ele>
        <time>2013-07-18T19:08:59Z</time>
      </trkpt>
      <trkpt lat="48.83437" lon="2.35332">
        <ele>52</ele>
        <time>2013-07-18T19:09:02Z</time>
      </trkpt>
      <trkpt lat="48.83433" lon="2.35336">
        <ele>55</ele>
        <time>2013-07-18T19:09:04Z</time>
      </trkpt>
      <trkpt lat="48.83418" lon="2.35345">
        <ele>52</ele>
        <time>2013-07-18T19:09:10Z</time>
      </trkpt>
      <trkpt lat="48.83401" lon="2.35356">
        <ele>55</ele>
        <time>2013-07-18T19:09:18Z</time>
      </trkpt>
      <trkpt lat="48.83396" lon="2.35358">
        <ele>54</ele>
        <time>2013-07-18T19:09:22Z</time>
      </trkpt>
      <trkpt lat="48.8339" lon="2.35359">
        <ele>54</ele>
        <time>2013-07-18T19:09:26Z</time>
      </trkpt>
      <trkpt lat="48.83385" lon="2.35361">
        <ele>52</ele>
        <time>2013-07-18T19:09:29Z</time>
      </trkpt>
      <trkpt lat="48.8338" lon="2.35362">
        <ele>47</ele>
        <time>2013-07-18T19:09:33Z</time>
      </trkpt>
      <trkpt lat="48.83375" lon="2.35362">
        <ele>46</ele>
        <time>2013-07-18T19:09:38Z</time>
      </trkpt>
      <trkpt lat="48.8337" lon="2.35362">
        <ele>48</ele>
        <time>2013-07-18T19:09:49Z</time>
      </trkpt>
      <trkpt lat="48.83365" lon="2.35366">
        <ele>48</ele>
        <time>2013-07-18T19:09:53Z</time>
      </trkpt>
      <trkpt lat="48.83361" lon="2.35371">
        <ele>48</ele>
        <time>2013-07-18T19:09:57Z</time>
      </trkpt>
      <trkpt lat="48.83354" lon="2.35373">
        <ele>52</ele>
        <time>2013-07-18T19:10:00Z</time>
      </trkpt>
      <trkpt lat="48.83349" lon="2.35376">
        <ele>50</ele>
        <time>2013-07-18T19:10:03Z</time>
      </trkpt>
      <trkpt lat="48.83344" lon="2.35377">
        <ele>48</ele>
        <time>2013-07-18T19:10:06Z</time>
      </trkpt>
      <trkpt lat="48.83338" lon="2.35381">
        <ele>47</ele>
        <time>2013-07-18T19:10:10Z</time>
      </trkpt>
      <trkpt lat="48.83334" lon="2.35387">
        <ele>47</ele>
        <time>2013-07-18T19:10:12Z</time>
      </trkpt>
      <trkpt lat="48.83329" lon="2.3539">
        <ele>52</ele>
        <time>2013-07-18T19:10:15Z</time>
      </trkpt>
      <trkpt lat="48.83324" lon="2.35394">
        <ele>54</ele>
        <time>2013-07-18T19:10:18Z</time>
      </trkpt>
      <trkpt lat="48.83317" lon="2.35401">
        <ele>65</ele>
        <time>2013-07-18T19:10:22Z</time>
      </trkpt>
      <trkpt lat="48.83313" lon="2.35407">
        <ele>63</ele>
        <time>2013-07-18T19:10:24Z</time>
      </trkpt>
      <trkpt lat="48.8331" lon="2.35413">
        <ele>65</ele>
        <time>2013-07-18T19:10:27Z</time>
      </trkpt>
      <trkpt lat="48.83305" lon="2.35418">
        <ele>68</ele>
        <time>2013-07-18T19:10:31Z</time>
      </trkpt>
      <trkpt lat="48.83288" lon="2.35431">
        <ele>61</ele>
        <time>2013-07-18T19:10:46Z</time>
      </trkpt>
      <trkpt lat="48.83282" lon="2.35434">
        <ele>48</ele>
        <time>2013-07-18T19:10:53Z</time>
      </trkpt>
      <trkpt lat="48.83275" lon="2.35434">
        <ele>58</ele>
        <time>2013-07-18T19:11:02Z</time>
      </trkpt>
      <trkpt lat="48.83268" lon="2.35436">
        <ele>60</ele>
        <time>2013-07-18T19:11:05Z</time>
      </trkpt>
      <trkpt lat="48.83262" lon="2.35438">
        <ele>63</ele>
        <time>2013-07-18T19:11:08Z</time>
      </trkpt>
      <trkpt lat="48.83257" lon="2.35444">
        <ele>60</ele>
        <time>2013-07-18T19:11:12Z</time>
      </trkpt>
      <trkpt lat="48.83251" lon="2.35448">
        <ele>56</ele>
        <time>2013-07-18T19:11:16Z</time>
      </trkpt>
      <trkpt lat="48.83243" lon="2.35449">
        <ele>53</ele>
        <time>2013-07-18T19:11:20Z</time>
      </trkpt>
      <trkpt lat="48.83238" lon="2.35452">
        <ele>57</ele>
        <time>2013-07-18T19:11:22Z</time>
      </trkpt>
      <trkpt lat="48.83232" lon="2.35453">
        <ele>57</ele>
        <time>2013-07-18T19:11:24Z</time>
      </trkpt>
      <trkpt lat="48.83227" lon="2.35457">
        <ele>60</ele>
        <time>2013-07-18T19:11:27Z</time>
      </trkpt>
      <trkpt lat="48.83218" lon="2.35465">
        <ele>63</ele>
        <time>2013-07-18T19:11:33Z</time>
      </trkpt>
      <trkpt lat="48.83215" lon="2.35471">
        <ele>65</ele>
        <time>2013-07-18T19:11:37Z</time>
      </trkpt>
      <trkpt lat="48.83211" lon="2.35465">
        <ele>62</ele>
        <time>2013-07-18T19:11:45Z</time>
      </trkpt>
      <trkpt lat="48.83206" lon="2.35461">
        <ele>57</ele>
        <time>2013-07-18T19:11:49Z</time>
      </trkpt>
      <trkpt lat="48.832" lon="2.35457">
        <ele>58</ele>
        <time>2013-07-18T19:11:52Z</time>
      </trkpt>
      <trkpt lat="48.83186" lon="2.3545">
        <ele>55</ele>
        <time>2013-07-18T19:12:05Z</time>
      </trkpt>
      <trkpt lat="48.83186" lon="2.35442">
        <ele>60</ele>
        <time>2013-07-18T19:12:11Z</time>
      </trkpt>
      <trkpt lat="48.83185" lon="2.35434">
        <ele>55</ele>
        <time>2013-07-18T19:12:16Z</time>
      </trkpt>
      <trkpt lat="48.83183" lon="2.35447">
        <ele>61</ele>
        <time>2013-07-18T19:12:25Z</time>
      </trkpt>
      <trkpt lat="48.8319" lon="2.35455">
        <ele>51</ele>
        <time>2013-07-18T19:12:38Z</time>
      </trkpt>
      <trkpt lat="48.83198" lon="2.35449">
        <ele>48</ele>
        <time>2013-07-18T19:12:48Z</time>
      </trkpt>
      <trkpt lat="48.83193" lon="2.35452">
        <ele>79</ele>
        <time>2013-07-18T19:13:03Z</time>
      </trkpt>
      <trkpt lat="48.83185" lon="2.35455">
        <ele>76</ele>
        <time>2013-07-18T19:13:34Z</time>
      </trkpt>
      <trkpt lat="48.83181" lon="2.35462">
        <ele>73</ele>
        <time>2013-07-18T19:13:54Z</time>
      </trkpt>
      <trkpt lat="48.83185" lon="2.35457">
        <ele>50</ele>
        <time>2013-07-18T19:14:31Z</time>
      </trkpt>
      <trkpt lat="48.83181" lon="2.35454">
        <ele>60</ele>
        <time>2013-07-18T19:15:04Z</time>
      </trkpt>
      <trkpt lat="48.83175" lon="2.35449">
        <ele>47</ele>
        <time>2013-07-18T19:15:09Z</time>
      </trkpt>
      <trkpt lat="48.83167" lon="2.35443">
        <ele>52</ele>
        <time>2013-07-18T19:15:12Z</time>
      </trkpt>
      <trkpt lat="48.83149" lon="2.35434">
        <ele>58</ele>
        <time>2013-07-18T19:15:17Z</time>
      </trkpt>
      <trkpt lat="48.83143" lon="2.35432">
        <ele>55</ele>
        <time>2013-07-18T19:15:19Z</time>
      </trkpt>
      <trkpt lat="48.83124" lon="2.35424">
        <ele>58</ele>
        <time>2013-07-18T19:15:29Z</time>
      </trkpt>
      <trkpt lat="48.83116" lon="2.35427">
        <ele>52</ele>
        <time>2013-07-18T19:15:47Z</time>
      </trkpt>
      <trkpt lat="48.83111" lon="2.35433">
        <ele>50</ele>
        <time>2013-07-18T19:15:50Z</time>
      </trkpt>
      <trkpt lat="48.83107" lon="2.35438">
        <ele>49</ele>
        <time>2013-07-18T19:15:52Z</time>
      </trkpt>
      <trkpt lat="48.83099" lon="2.35444">
        <ele>57</ele>
        <time>2013-07-18T19:15:58Z</time>
      </trkpt>
      <trkpt lat="48.83096" lon="2.35444">
        <ele>50</ele>
        <time>2013-07-18T19:16:13Z</time>
      </trkpt>
      <trkpt lat="48.83098" lon="2.35442">
        <ele>57</ele>
        <time>2013-07-18T19:16:24Z</time>
      </trkpt>
      <trkpt lat="48.83102" lon="2.35439">
        <ele>63</ele>
        <time>2013-07-18T19:16:28Z</time>
      </trkpt>
      <trkpt lat="48.83097" lon="2.35442">
        <ele>54</ele>
        <time>2013-07-18T19:16:34Z</time>
      </trkpt>
      <trkpt lat="48.83092" lon="2.35444">
        <ele>57</ele>
        <time>2013-07-18T19:16:37Z</time>
      </trkpt>
      <trkpt lat="48.83089" lon="2.3545">
        <ele>61</ele>
        <time>2013-07-18T19:16:42Z</time>
      </trkpt>
      <trkpt lat="48.83089" lon="2.35458">
        <ele>54</ele>
        <time>2013-07-18T19:16:45Z</time>
      </trkpt>
      <trkpt lat="48.83087" lon="2.35468">
        <ele>59</ele>
        <time>2013-07-18T19:16:48Z</time>
      </trkpt>
      <trkpt lat="48.83085" lon="2.35481">
        <ele>61</ele>
        <time>2013-07-18T19:16:54Z</time>
      </trkpt>
      <trkpt lat="48.83088" lon="2.35488">
        <ele>58</ele>
        <time>2013-07-18T19:16:57Z</time>
      </trkpt>
      <trkpt lat="48.83093" lon="2.35493">
        <ele>63</ele>
        <time>2013-07-18T19:17:03Z</time>
      </trkpt>
      <trkpt lat="48.83095" lon="2.35501">
        <ele>61</ele>
        <time>2013-07-18T19:17:07Z</time>
      </trkpt>
      <trkpt lat="48.83094" lon="2.35505">
        <ele>62</ele>
        <time>2013-07-18T19:17:09Z</time>
      </trkpt>
      <trkpt lat="48.83092" lon="2.3551">
        <ele>62</ele>
        <time>2013-07-18T19:17:11Z</time>
      </trkpt>
      <trkpt lat="48.8309" lon="2.35512">
        <ele>59</ele>
        <time>2013-07-18T19:17:13Z</time>
      </trkpt>
      <trkpt lat="48.83086" lon="2.35519">
        <ele>59</ele>
        <time>2013-07-18T19:17:17Z</time>
      </trkpt>
      <trkpt lat="48.83084" lon="2.35527">
        <ele>64</ele>
        <time>2013-07-18T19:17:20Z</time>
      </trkpt>
      <trkpt lat="48.83082" lon="2.35534">
        <ele>65</ele>
        <time>2013-07-18T19:17:22Z</time>
      </trkpt>
      <trkpt lat="48.83081" lon="2.3554">
        <ele>65</ele>
        <time>2013-07-18T19:17:24Z</time>
      </trkpt>
      <trkpt lat="48.83082" lon="2.35543">
        <ele>62</ele>
        <time>2013-07-18T19:17:25Z</time>
      </trkpt>
      <trkpt lat="48.83082" lon="2.35552">
        <ele>63</ele>
        <time>2013-07-18T19:17:29Z</time>
      </trkpt>
      <trkpt lat="48.83079" lon="2.3556">
        <ele>65</ele>
        <time>2013-07-18T19:17:34Z</time>
      </trkpt>
      <trkpt lat="48.83075" lon="2.35567">
        <ele>70</ele>
        <time>2013-07-18T19:17:38Z</time>
      </trkpt>
      <trkpt lat="48.83073" lon="2.35574">
        <ele>64</ele>
        <time>2013-07-18T19:17:46Z</time>
      </trkpt>
      <trkpt lat="48.83066" lon="2.35576">
        <ele>72</ele>
        <time>2013-07-18T19:17:56Z</time>
      </trkpt>
      <trkpt lat="48.83061" lon="2.35573">
        <ele>67</ele>
        <time>2013-07-18T19:17:59Z</time>
      </trkpt>
      <trkpt lat="48.83049" lon="2.3557">
        <ele>68</ele>
        <time>2013-07-18T19:18:08Z</time>
      </trkpt>
      <trkpt lat="48.83043" lon="2.35572">
        <ele>73</ele>
        <time>2013-07-18T19:18:13Z</time>
      </trkpt>
      <trkpt lat="48.83025" lon="2.35579">
        <ele>45</ele>
        <time>2013-07-18T19:18:26Z</time>
      </trkpt>
      <trkpt lat="48.83019" lon="2.35581">
        <ele>45</ele>
        <time>2013-07-18T19:18:30Z</time>
      </trkpt>
      <trkpt lat="48.82978" lon="2.35592">
        <ele>53</ele>
        <time>2013-07-18T19:18:52Z</time>
      </trkpt>
      <trkpt lat="48.82962" lon="2.35595">
        <ele>53</ele>
        <time>2013-07-18T19:18:57Z</time>
      </trkpt>
      <trkpt lat="48.82955" lon="2.35594">
        <ele>49</ele>
        <time>2013-07-18T19:19:01Z</time>
      </trkpt>
      <trkpt lat="48.82942" lon="2.35591">
        <ele>62</ele>
        <time>2013-07-18T19:19:10Z</time>
      </trkpt>
      <trkpt lat="48.82936" lon="2.35587">
        <ele>61</ele>
        <time>2013-07-18T19:19:14Z</time>
      </trkpt>
      <trkpt lat="48.82931" lon="2.35585">
        <ele>62</ele>
        <time>2013-07-18T19:19:18Z</time>
      </trkpt>
      <trkpt lat="48.82925" lon="2.35585">
        <ele>63</ele>
        <time>2013-07-18T19:19:23Z</time>
      </trkpt>
      <trkpt lat="48.82905" lon="2.35588">
        <ele>51</ele>
        <time>2013-07-18T19:19:34Z</time>
      </trkpt>
      <trkpt lat="48.829" lon="2.35589">
        <ele>52</ele>
        <time>2013-07-18T19:19:36Z</time>
      </trkpt>
      <trkpt lat="48.82881" lon="2.35594">
        <ele>53</ele>
        <time>2013-07-18T19:19:43Z</time>
      </trkpt>
      <trkpt lat="48.82876" lon="2.35599">
        <ele>50</ele>
        <time>2013-07-18T19:19:49Z</time>
      </trkpt>
      <trkpt lat="48.8287" lon="2.35599">
        <ele>53</ele>
        <time>2013-07-18T19:19:52Z</time>
      </trkpt>
      <trkpt lat="48.82864" lon="2.356">
        <ele>57</ele>
        <time>2013-07-18T19:19:55Z</time>
      </trkpt>
      <trkpt lat="48.8285" lon="2.35606">
        <ele>57</ele>
        <time>2013-07-18T19:20:03Z</time>
      </trkpt>
      <trkpt lat="48.82843" lon="2.35606">
        <ele>72</ele>
        <time>2013-07-18T19:20:07Z</time>
      </trkpt>
      <trkpt lat="48.82837" lon="2.35609">
        <ele>71</ele>
        <time>2013-07-18T19:20:10Z</time>
      </trkpt>
      <trkpt lat="48.82833" lon="2.35616">
        <ele>74</ele>
        <time>2013-07-18T19:20:13Z</time>
      </trkpt>
      <trkpt lat="48.82834" lon="2.35625">
        <ele>81</ele>
        <time>2013-07-18T19:20:19Z</time>
      </trkpt>
      <trkpt lat="48.82827" lon="2.35619">
        <ele>53</ele>
        <time>2013-07-18T19:20:50Z</time>
      </trkpt>
      <trkpt lat="48.82824" lon="2.35612">
        <ele>56</ele>
        <time>2013-07-18T19:20:52Z</time>
      </trkpt>
      <trkpt lat="48.82819" lon="2.35593">
        <ele>59</ele>
        <time>2013-07-18T19:21:01Z</time>
      </trkpt>
      <trkpt lat="48.82815" lon="2.35567">
        <ele>58</ele>
        <time>2013-07-18T19:21:11Z</time>
      </trkpt>
      <trkpt lat="48.82812" lon="2.35539">
        <ele>59</ele>
        <time>2013-07-18T19:21:24Z</time>
      </trkpt>
      <trkpt lat="48.82806" lon="2.35513">
        <ele>62</ele>
        <time>2013-07-18T19:21:36Z</time>
      </trkpt>
      <trkpt lat="48.82805" lon="2.35499">
        <ele>69</ele>
        <time>2013-07-18T19:21:41Z</time>
      </trkpt>
      <trkpt lat="48.82807" lon="2.3549">
        <ele>76</ele>
        <time>2013-07-18T19:21:45Z</time>
      </trkpt>
      <trkpt lat="48.82803" lon="2.35482">
        <ele>71</ele>
        <time>2013-07-18T19:21:48Z</time>
      </trkpt>
      <trkpt lat="48.82793" lon="2.35466">
        <ele>72</ele>
        <time>2013-07-18T19:21:54Z</time>
      </trkpt>
      <trkpt lat="48.82788" lon="2.35453">
        <ele>64</ele>
        <time>2013-07-18T19:21:57Z</time>
      </trkpt>
      <trkpt lat="48.82786" lon="2.35445">
        <ele>67</ele>
        <time>2013-07-18T19:21:59Z</time>
      </trkpt>
      <trkpt lat="48.82776" lon="2.35418">
        <ele>62</ele>
        <time>2013-07-18T19:22:08Z</time>
      </trkpt>
      <trkpt lat="48.82771" lon="2.35416">
        <ele>63</ele>
        <time>2013-07-18T19:22:10Z</time>
      </trkpt>
      <trkpt lat="48.82763" lon="2.35415">
        <ele>64</ele>
        <time>2013-07-18T19:22:12Z</time>
      </trkpt>
      <trkpt lat="48.82748" lon="2.35417">
        <ele>61</ele>
        <time>2013-07-18T19:22:17Z</time>
      </trkpt>
      <trkpt lat="48.82741" lon="2.35419">
        <ele>60</ele>
        <time>2013-07-18T19:22:19Z</time>
      </trkpt>
      <trkpt lat="48.82734" lon="2.35419">
        <ele>58</ele>
        <time>2013-07-18T19:22:21Z</time>
      </trkpt>
      <trkpt lat="48.82703" lon="2.35427">
        <ele>71</ele>
        <time>2013-07-18T19:22:32Z</time>
      </trkpt>
      <trkpt lat="48.827" lon="2.3543">
        <ele>60</ele>
        <time>2013-07-18T19:22:33Z</time>
      </trkpt>
      <trkpt lat="48.82694" lon="2.35433">
        <ele>63</ele>
        <time>2013-07-18T19:22:35Z</time>
      </trkpt>
      <trkpt lat="48.82688" lon="2.35439">
        <ele>64</ele>
        <time>2013-07-18T19:22:37Z</time>
      </trkpt>
      <trkpt lat="48.82685" lon="2.3545">
        <ele>66</ele>
        <time>2013-07-18T19:22:39Z</time>
      </trkpt>
      <trkpt lat="48.82686" lon="2.35458">
        <ele>66</ele>
        <time>2013-07-18T19:22:41Z</time>
      </trkpt>
      <trkpt lat="48.82688" lon="2.35466">
        <ele>63</ele>
        <time>2013-07-18T19:22:43Z</time>
      </trkpt>
      <trkpt lat="48.82692" lon="2.3548">
        <ele>61</ele>
        <time>2013-07-18T19:22:47Z</time>
      </trkpt>
      <trkpt lat="48.82695" lon="2.35487">
        <ele>59</ele>
        <time>2013-07-18T19:22:50Z</time>
      </trkpt>
      <trkpt lat="48.82695" lon="2.35496">
        <ele>60</ele>
        <time>2013-07-18T19:22:54Z</time>
      </trkpt>
      <trkpt lat="48.82699" lon="2.35505">
        <ele>65</ele>
        <time>2013-07-18T19:22:59Z</time>
      </trkpt>
      <trkpt lat="48.82703" lon="2.35514">
        <ele>66</ele>
        <time>2013-07-18T19:23:03Z</time>
      </trkpt>
      <trkpt lat="48.8272" lon="2.35541">
        <ele>56</ele>
        <time>2013-07-18T19:23:24Z</time>
      </trkpt>
      <trkpt lat="48.82721" lon="2.35544">
        <ele>58</ele>
        <time>2013-07-18T19:23:25Z</time>
      </trkpt>
      <trkpt lat="48.82724" lon="2.35554">
        <ele>57</ele>
        <time>2013-07-18T19:23:28Z</time>
      </trkpt>
      <trkpt lat="48.82732" lon="2.35573">
        <ele>58</ele>
        <time>2013-07-18T19:23:33Z</time>
      </trkpt>
      <trkpt lat="48.82736" lon="2.35589">
        <ele>61</ele>
        <time>2013-07-18T19:23:38Z</time>
      </trkpt>
      <trkpt lat="48.82737" lon="2.356">
        <ele>63</ele>
        <time>2013-07-18T19:23:41Z</time>
      </trkpt>
      <trkpt lat="48.82734" lon="2.35608">
        <ele>60</ele>
        <time>2013-07-18T19:23:44Z</time>
      </trkpt>
      <trkpt lat="48.82739" lon="2.35614">
        <ele>63</ele>
        <time>2013-07-18T19:24:42Z</time>
      </trkpt>
      <trkpt lat="48.8274" lon="2.35622">
        <ele>57</ele>
        <time>2013-07-18T19:24:44Z</time>
      </trkpt>
      <trkpt lat="48.82739" lon="2.3563">
        <ele>61</ele>
        <time>2013-07-18T19:24:48Z</time>
      </trkpt>
      <trkpt lat="48.8274" lon="2.35638">
        <ele>61</ele>
        <time>2013-07-18T19:24:52Z</time>
      </trkpt>
      <trkpt lat="48.82741" lon="2.35646">
        <ele>57</ele>
        <time>2013-07-18T19:24:55Z</time>
      </trkpt>
      <trkpt lat="48.82741" lon="2.35655">
        <ele>62</ele>
        <time>2013-07-18T19:25:00Z</time>
      </trkpt>
      <trkpt lat="48.82738" lon="2.35666">
        <ele>71</ele>
        <time>2013-07-18T19:25:44Z</time>
      </trkpt>
      <trkpt lat="48.82731" lon="2.35677">
        <ele>64</ele>
        <time>2013-07-18T19:26:02Z</time>
      </trkpt>
      <trkpt lat="48.8272" lon="2.35678">
        <ele>49</ele>
        <time>2013-07-18T19:26:57Z</time>
      </trkpt>
      <trkpt lat="48.82699" lon="2.35679">
        <ele>48</ele>
        <time>2013-07-18T19:27:07Z</time>
      </trkpt>
      <trkpt lat="48.82693" lon="2.35682">
        <ele>46</ele>
        <time>2013-07-18T19:27:10Z</time>
      </trkpt>
      <trkpt lat="48.82686" lon="2.35683">
        <ele>52</ele>
        <time>2013-07-18T19:27:15Z</time>
      </trkpt>
      <trkpt lat="48.82678" lon="2.35687">
        <ele>52</ele>
        <time>2013-07-18T19:27:20Z</time>
      </trkpt>
      <trkpt lat="48.82673" lon="2.35688">
        <ele>52</ele>
        <time>2013-07-18T19:27:23Z</time>
      </trkpt>
      <trkpt lat="48.82655" lon="2.3569">
        <ele>49</ele>
        <time>2013-07-18T19:27:31Z</time>
      </trkpt>
      <trkpt lat="48.82635" lon="2.35694">
        <ele>54</ele>
        <time>2013-07-18T19:27:40Z</time>
      </trkpt>
      <trkpt lat="48.82626" lon="2.35698">
        <ele>54</ele>
        <time>2013-07-18T19:27:44Z</time>
      </trkpt>
      <trkpt lat="48.82629" lon="2.35705">
        <ele>60</ele>
        <time>2013-07-18T19:27:58Z</time>
      </trkpt>
      <trkpt lat="48.82622" lon="2.3574">
        <ele>66</ele>
        <time>2013-07-18T19:38:40Z</time>
      </trkpt>
      <trkpt lat="48.82631" lon="2.35751">
        <ele>69</ele>
        <time>2013-07-18T19:51:21Z</time>
      </trkpt>
      <trkpt lat="48.8263" lon="2.35763">
        <ele>78</ele>
        <time>2013-07-18T19:51:23Z</time>
      </trkpt>
      <trkpt lat="48.82627" lon="2.35772">
        <ele>83</ele>
        <time>2013-07-18T19:51:24Z</time>
      </trkpt>
      <trkpt lat="48.82629" lon="2.35762">
        <ele>82</ele>
        <time>2013-07-18T19:51:37Z</time>
      </trkpt>
      <trkpt lat="48.82632" lon="2.35755">
        <ele>95</ele>
        <time>2013-07-18T19:51:44Z</time>
      </trkpt>
      <trkpt lat="48.82632" lon="2.35755">
        <ele>95</ele>
        <time>2013-07-18T19:51:44Z</time>
      </trkpt>
      <trkpt lat="48.82635" lon="2.35751">
        <ele>69</ele>
        <time>2013-07-18T19:51:46Z</time>
      </trkpt>
      <trkpt lat="48.82673" lon="2.35764">
        <ele>71</ele>
        <time>2013-07-18T19:52:38Z</time>
      </trkpt>
      <trkpt lat="48.82667" lon="2.35764">
        <ele>80</ele>
        <time>2013-07-18T19:52:57Z</time>
      </trkpt>
      <trkpt lat="48.82662" lon="2.35761">
        <ele>82</ele>
        <time>2013-07-18T19:52:58Z</time>
      </trkpt>
      <trkpt lat="48.82654" lon="2.35755">
        <ele>83</ele>
        <time>2013-07-18T19:53:00Z</time>
      </trkpt>
      <trkpt lat="48.8265" lon="2.35749">
        <ele>85</ele>
        <time>2013-07-18T19:53:01Z</time>
      </trkpt>
      <trkpt lat="48.82645" lon="2.35741">
        <ele>78</ele>
        <time>2013-07-18T19:53:05Z</time>
      </trkpt>
      <trkpt lat="48.82644" lon="2.35732">
        <ele>81</ele>
        <time>2013-07-18T19:53:11Z</time>
      </trkpt>
      <trkpt lat="48.82642" lon="2.35715">
        <ele>75</ele>
        <time>2013-07-18T19:53:28Z</time>
      </trkpt>
      <trkpt lat="48.82639" lon="2.35709">
        <ele>66</ele>
        <time>2013-07-18T19:53:35Z</time>
      </trkpt>
      <trkpt lat="48.82634" lon="2.35704">
        <ele>66</ele>
        <time>2013-07-18T19:53:39Z</time>
      </trkpt>
      <trkpt lat="48.8263" lon="2.3571">
        <ele>63</ele>
        <time>2013-07-18T19:53:44Z</time>
      </trkpt>
      <trkpt lat="48.82627" lon="2.35718">
        <ele>65</ele>
        <time>2013-07-18T19:53:47Z</time>
      </trkpt>
      <trkpt lat="48.82627" lon="2.35726">
        <ele>67</ele>
        <time>2013-07-18T19:53:50Z</time>
      </trkpt>
      <trkpt lat="48.82625" lon="2.35736">
        <ele>68</ele>
        <time>2013-07-18T19:53:53Z</time>
      </trkpt>
      <trkpt lat="48.82622" lon="2.35742">
        <ele>62</ele>
        <time>2013-07-18T19:53:56Z</time>
      </trkpt>
      <trkpt lat="48.82618" lon="2.3574">
        <ele>59</ele>
        <time>2013-07-18T19:54:17Z</time>
      </trkpt>
      <trkpt lat="48.82612" lon="2.35746">
        <ele>67</ele>
        <time>2013-07-18T19:54:20Z</time>
      </trkpt>
      <trkpt lat="48.82611" lon="2.35755">
        <ele>69</ele>
        <time>2013-07-18T19:54:22Z</time>
      </trkpt>
      <trkpt lat="48.82607" lon="2.35764">
        <ele>67</ele>
        <time>2013-07-18T19:54:24Z</time>
      </trkpt>
      <trkpt lat="48.82606" lon="2.35776">
        <ele>66</ele>
        <time>2013-07-18T19:54:26Z</time>
      </trkpt>
      <trkpt lat="48.82606" lon="2.35784">
        <ele>67</ele>
        <time>2013-07-18T19:54:27Z</time>
      </trkpt>
      <trkpt lat="48.82606" lon="2.35792">
        <ele>66</ele>
        <time>2013-07-18T19:54:28Z</time>
      </trkpt>
      <trkpt lat="48.82605" lon="2.35801">
        <ele>69</ele>
        <time>2013-07-18T19:54:29Z</time>
      </trkpt>
      <trkpt lat="48.82604" lon="2.3583">
        <ele>66</ele>
        <time>2013-07-18T19:54:32Z</time>
      </trkpt>
      <trkpt lat="48.82602" lon="2.3591">
        <ele>62</ele>
        <time>2013-07-18T19:54:41Z</time>
      </trkpt>
      <trkpt lat="48.82604" lon="2.3592">
        <ele>65</ele>
        <time>2013-07-18T19:54:43Z</time>
      </trkpt>
      <trkpt lat="48.82605" lon="2.35929">
        <ele>58</ele>
        <time>2013-07-18T19:54:45Z</time>
      </trkpt>
      <trkpt lat="48.82608" lon="2.35949">
        <ele>55</ele>
        <time>2013-07-18T19:54:51Z</time>
      </trkpt>
      <trkpt lat="48.82608" lon="2.35958">
        <ele>54</ele>
        <time>2013-07-18T19:54:54Z</time>
      </trkpt>
      <trkpt lat="48.82604" lon="2.3598">
        <ele>59</ele>
        <time>2013-07-18T19:55:01Z</time>
      </trkpt>
      <trkpt lat="48.82603" lon="2.35984">
        <ele>57</ele>
        <time>2013-07-18T19:55:02Z</time>
      </trkpt>
      <trkpt lat="48.82608" lon="2.36009">
        <ele>48</ele>
        <time>2013-07-18T19:55:07Z</time>
      </trkpt>
      <trkpt lat="48.82611" lon="2.36018">
        <ele>51</ele>
        <time>2013-07-18T19:55:09Z</time>
      </trkpt>
      <trkpt lat="48.82613" lon="2.36026">
        <ele>48</ele>
        <time>2013-07-18T19:55:11Z</time>
      </trkpt>
      <trkpt lat="48.82617" lon="2.36041">
        <ele>42</ele>
        <time>2013-07-18T19:55:16Z</time>
      </trkpt>
      <trkpt lat="48.82622" lon="2.3608">
        <ele>65</ele>
        <time>2013-07-18T19:55:23Z</time>
      </trkpt>
      <trkpt lat="48.82628" lon="2.36125">
        <ele>64</ele>
        <time>2013-07-18T19:55:30Z</time>
      </trkpt>
      <trkpt lat="48.82628" lon="2.36137">
        <ele>60</ele>
        <time>2013-07-18T19:55:32Z</time>
      </trkpt>
      <trkpt lat="48.8263" lon="2.36148">
        <ele>59</ele>
        <time>2013-07-18T19:55:34Z</time>
      </trkpt>
      <trkpt lat="48.82632" lon="2.36154">
        <ele>59</ele>
        <time>2013-07-18T19:55:36Z</time>
      </trkpt>
      <trkpt lat="48.82632" lon="2.36163">
        <ele>56</ele>
        <time>2013-07-18T19:55:38Z</time>
      </trkpt>
      <trkpt lat="48.82629" lon="2.36173">
        <ele>56</ele>
        <time>2013-07-18T19:55:40Z</time>
      </trkpt>
      <trkpt lat="48.8263" lon="2.36181">
        <ele>59</ele>
        <time>2013-07-18T19:55:41Z</time>
      </trkpt>
      <trkpt lat="48.8263" lon="2.36193">
        <ele>58</ele>
        <time>2013-07-18T19:55:43Z</time>
      </trkpt>
      <trkpt lat="48.82628" lon="2.36203">
        <ele>65</ele>
        <time>2013-07-18T19:55:45Z</time>
      </trkpt>
      <trkpt lat="48.82629" lon="2.36225">
        <ele>68</ele>
        <time>2013-07-18T19:55:49Z</time>
      </trkpt>
      <trkpt lat="48.82631" lon="2.36238">
        <ele>68</ele>
        <time>2013-07-18T19:55:51Z</time>
      </trkpt>
      <trkpt lat="48.82633" lon="2.36253">
        <ele>68</ele>
        <time>2013-07-18T19:55:53Z</time>
      </trkpt>
      <trkpt lat="48.82635" lon="2.36261">
        <ele>67</ele>
        <time>2013-07-18T19:55:54Z</time>
      </trkpt>
      <trkpt lat="48.82638" lon="2.36277">
        <ele>61</ele>
        <time>2013-07-18T19:55:56Z</time>
      </trkpt>
      <trkpt lat="48.82644" lon="2.36311">
        <ele>51</ele>
        <time>2013-07-18T19:56:00Z</time>
      </trkpt>
      <trkpt lat="48.82651" lon="2.36339">
        <ele>48</ele>
        <time>2013-07-18T19:56:04Z</time>
      </trkpt>
      <trkpt lat="48.82652" lon="2.36348">
        <ele>50</ele>
        <time>2013-07-18T19:56:06Z</time>
      </trkpt>
      <trkpt lat="48.82654" lon="2.36356">
        <ele>55</ele>
        <time>2013-07-18T19:56:08Z</time>
      </trkpt>
      <trkpt lat="48.82658" lon="2.36365">
        <ele>53</ele>
        <time>2013-07-18T19:56:11Z</time>
      </trkpt>
      <trkpt lat="48.82661" lon="2.36376">
        <ele>52</ele>
        <time>2013-07-18T19:56:14Z</time>
      </trkpt>
      <trkpt lat="48.82663" lon="2.36389">
        <ele>51</ele>
        <time>2013-07-18T19:56:17Z</time>
      </trkpt>
      <trkpt lat="48.82665" lon="2.36398">
        <ele>51</ele>
        <time>2013-07-18T19:56:19Z</time>
      </trkpt>
      <trkpt lat="48.82665" lon="2.36406">
        <ele>50</ele>
        <time>2013-07-18T19:56:21Z</time>
      </trkpt>
      <trkpt lat="48.82663" lon="2.36416">
        <ele>44</ele>
        <time>2013-07-18T19:56:24Z</time>
      </trkpt>
      <trkpt lat="48.82662" lon="2.36437">
        <ele>45</ele>
        <time>2013-07-18T19:56:29Z</time>
      </trkpt>
      <trkpt lat="48.8266" lon="2.36449">
        <ele>50</ele>
        <time>2013-07-18T19:56:31Z</time>
      </trkpt>
      <trkpt lat="48.82662" lon="2.36462">
        <ele>48</ele>
        <time>2013-07-18T19:56:33Z</time>
      </trkpt>
      <trkpt lat="48.8266" lon="2.36471">
        <ele>50</ele>
        <time>2013-07-18T19:56:35Z</time>
      </trkpt>
      <trkpt lat="48.82663" lon="2.36478">
        <ele>50</ele>
        <time>2013-07-18T19:56:37Z</time>
      </trkpt>
      <trkpt lat="48.82671" lon="2.36504">
        <ele>51</ele>
        <time>2013-07-18T19:56:45Z</time>
      </trkpt>
      <trkpt lat="48.82674" lon="2.36515">
        <ele>55</ele>
        <time>2013-07-18T19:56:48Z</time>
      </trkpt>
      <trkpt lat="48.82675" lon="2.36523">
        <ele>59</ele>
        <time>2013-07-18T19:56:50Z</time>
      </trkpt>
      <trkpt lat="48.82674" lon="2.36543">
        <ele>62</ele>
        <time>2013-07-18T19:56:55Z</time>
      </trkpt>
      <trkpt lat="48.82675" lon="2.36554">
        <ele>49</ele>
        <time>2013-07-18T19:56:59Z</time>
      </trkpt>
      <trkpt lat="48.82676" lon="2.36562">
        <ele>52</ele>
        <time>2013-07-18T19:57:01Z</time>
      </trkpt>
      <trkpt lat="48.8268" lon="2.36593">
        <ele>43</ele>
        <time>2013-07-18T19:57:05Z</time>
      </trkpt>
      <trkpt lat="48.8268" lon="2.36606">
        <ele>42</ele>
        <time>2013-07-18T19:57:07Z</time>
      </trkpt>
      <trkpt lat="48.82684" lon="2.36612">
        <ele>45</ele>
        <time>2013-07-18T19:57:10Z</time>
      </trkpt>
      <trkpt lat="48.82685" lon="2.36622">
        <ele>47</ele>
        <time>2013-07-18T19:57:13Z</time>
      </trkpt>
      <trkpt lat="48.82689" lon="2.3664">
        <ele>51</ele>
        <time>2013-07-18T19:57:19Z</time>
      </trkpt>
      <trkpt lat="48.82689" lon="2.36648">
        <ele>51</ele>
        <time>2013-07-18T19:57:22Z</time>
      </trkpt>
      <trkpt lat="48.8269" lon="2.36661">
        <ele>53</ele>
        <time>2013-07-18T19:57:27Z</time>
      </trkpt>
      <trkpt lat="48.82692" lon="2.3667">
        <ele>59</ele>
        <time>2013-07-18T19:57:30Z</time>
      </trkpt>
      <trkpt lat="48.82698" lon="2.367">
        <ele>57</ele>
        <time>2013-07-18T19:57:37Z</time>
      </trkpt>
      <trkpt lat="48.82702" lon="2.36713">
        <ele>53</ele>
        <time>2013-07-18T19:57:40Z</time>
      </trkpt>
      <trkpt lat="48.82712" lon="2.36739">
        <ele>52</ele>
        <time>2013-07-18T19:57:46Z</time>
      </trkpt>
      <trkpt lat="48.82715" lon="2.36747">
        <ele>51</ele>
        <time>2013-07-18T19:57:48Z</time>
      </trkpt>
      <trkpt lat="48.82719" lon="2.36757">
        <ele>53</ele>
        <time>2013-07-18T19:57:51Z</time>
      </trkpt>
      <trkpt lat="48.82737" lon="2.36798">
        <ele>45</ele>
        <time>2013-07-18T19:58:03Z</time>
      </trkpt>
      <trkpt lat="48.82741" lon="2.36838">
        <ele>55</ele>
        <time>2013-07-18T19:58:13Z</time>
      </trkpt>
      <trkpt lat="48.82739" lon="2.36847">
        <ele>57</ele>
        <time>2013-07-18T19:58:15Z</time>
      </trkpt>
      <trkpt lat="48.82739" lon="2.36858">
        <ele>64</ele>
        <time>2013-07-18T19:58:18Z</time>
      </trkpt>
      <trkpt lat="48.82736" lon="2.36868">
        <ele>58</ele>
        <time>2013-07-18T19:58:20Z</time>
      </trkpt>
      <trkpt lat="48.82735" lon="2.36879">
        <ele>59</ele>
        <time>2013-07-18T19:58:22Z</time>
      </trkpt>
      <trkpt lat="48.82735" lon="2.36894">
        <ele>57</ele>
        <time>2013-07-18T19:58:24Z</time>
      </trkpt>
      <trkpt lat="48.82735" lon="2.36924">
        <ele>61</ele>
        <time>2013-07-18T19:58:28Z</time>
      </trkpt>
      <trkpt lat="48.82737" lon="2.3694">
        <ele>63</ele>
        <time>2013-07-18T19:58:30Z</time>
      </trkpt>
      <trkpt lat="48.82738" lon="2.36948">
        <ele>61</ele>
        <time>2013-07-18T19:58:31Z</time>
      </trkpt>
      <trkpt lat="48.8274" lon="2.36962">
        <ele>62</ele>
        <time>2013-07-18T19:58:33Z</time>
      </trkpt>
      <trkpt lat="48.82741" lon="2.3699">
        <ele>55</ele>
        <time>2013-07-18T19:58:37Z</time>
      </trkpt>
      <trkpt lat="48.82745" lon="2.37022">
        <ele>54</ele>
        <time>2013-07-18T19:58:41Z</time>
      </trkpt>
      <trkpt lat="48.82746" lon="2.37029">
        <ele>53</ele>
        <time>2013-07-18T19:58:42Z</time>
      </trkpt>
      <trkpt lat="48.82745" lon="2.37037">
        <ele>53</ele>
        <time>2013-07-18T19:58:43Z</time>
      </trkpt>
      <trkpt lat="48.82746" lon="2.37053">
        <ele>51</ele>
        <time>2013-07-18T19:58:45Z</time>
      </trkpt>
      <trkpt lat="48.82747" lon="2.37061">
        <ele>50</ele>
        <time>2013-07-18T19:58:46Z</time>
      </trkpt>
      <trkpt lat="48.82752" lon="2.37097">
        <ele>52</ele>
        <time>2013-07-18T19:58:51Z</time>
      </trkpt>
      <trkpt lat="48.82754" lon="2.37105">
        <ele>55</ele>
        <time>2013-07-18T19:58:52Z</time>
      </trkpt>
      <trkpt lat="48.82755" lon="2.37113">
        <ele>54</ele>
        <time>2013-07-18T19:58:53Z</time>
      </trkpt>
      <trkpt lat="48.8276" lon="2.37133">
        <ele>58</ele>
        <time>2013-07-18T19:58:56Z</time>
      </trkpt>
      <trkpt lat="48.82764" lon="2.3714">
        <ele>56</ele>
        <time>2013-07-18T19:58:57Z</time>
      </trkpt>
      <trkpt lat="48.82769" lon="2.37145">
        <ele>56</ele>
        <time>2013-07-18T19:58:58Z</time>
      </trkpt>
      <trkpt lat="48.82772" lon="2.37151">
        <ele>58</ele>
        <time>2013-07-18T19:58:59Z</time>
      </trkpt>
      <trkpt lat="48.82786" lon="2.37172">
        <ele>60</ele>
        <time>2013-07-18T19:59:03Z</time>
      </trkpt>
      <trkpt lat="48.82791" lon="2.37183">
        <ele>56</ele>
        <time>2013-07-18T19:59:05Z</time>
      </trkpt>
      <trkpt lat="48.82838" lon="2.37268">
        <ele>43</ele>
        <time>2013-07-18T19:59:26Z</time>
      </trkpt>
      <trkpt lat="48.82848" lon="2.37285">
        <ele>49</ele>
        <time>2013-07-18T19:59:29Z</time>
      </trkpt>
      <trkpt lat="48.82878" lon="2.37339">
        <ele>47</ele>
        <time>2013-07-18T19:59:38Z</time>
      </trkpt>
      <trkpt lat="48.82882" lon="2.37348">
        <ele>45</ele>
        <time>2013-07-18T19:59:39Z</time>
      </trkpt>
      <trkpt lat="48.82896" lon="2.37375">
        <ele>45</ele>
        <time>2013-07-18T19:59:42Z</time>
      </trkpt>
      <trkpt lat="48.82902" lon="2.37384">
        <ele>40</ele>
        <time>2013-07-18T19:59:43Z</time>
      </trkpt>
      <trkpt lat="48.82907" lon="2.37394">
        <ele>40</ele>
        <time>2013-07-18T19:59:44Z</time>
      </trkpt>
      <trkpt lat="48.82919" lon="2.3742">
        <ele>43</ele>
        <time>2013-07-18T19:59:47Z</time>
      </trkpt>
      <trkpt lat="48.82922" lon="2.3743">
        <ele>41</ele>
        <time>2013-07-18T19:59:48Z</time>
      </trkpt>
      <trkpt lat="48.82926" lon="2.37439">
        <ele>46</ele>
        <time>2013-07-18T19:59:49Z</time>
      </trkpt>
      <trkpt lat="48.82967" lon="2.37524">
        <ele>51</ele>
        <time>2013-07-18T20:00:00Z</time>
      </trkpt>
      <trkpt lat="48.82972" lon="2.37533">
        <ele>49</ele>
        <time>2013-07-18T20:00:01Z</time>
      </trkpt>
      <trkpt lat="48.82982" lon="2.37552">
        <ele>47</ele>
        <time>2013-07-18T20:00:03Z</time>
      </trkpt>
      <trkpt lat="48.82987" lon="2.37558">
        <ele>46</ele>
        <time>2013-07-18T20:00:04Z</time>
      </trkpt>
      <trkpt lat="48.82991" lon="2.37566">
        <ele>43</ele>
        <time>2013-07-18T20:00:05Z</time>
      </trkpt>
      <trkpt lat="48.82994" lon="2.37573">
        <ele>46</ele>
        <time>2013-07-18T20:00:06Z</time>
      </trkpt>
      <trkpt lat="48.83005" lon="2.37597">
        <ele>48</ele>
        <time>2013-07-18T20:00:11Z</time>
      </trkpt>
      <trkpt lat="48.83018" lon="2.3762">
        <ele>51</ele>
        <time>2013-07-18T20:00:17Z</time>
      </trkpt>
      <trkpt lat="48.83033" lon="2.37643">
        <ele>39</ele>
        <time>2013-07-18T20:00:22Z</time>
      </trkpt>
      <trkpt lat="48.83037" lon="2.37656">
        <ele>37</ele>
        <time>2013-07-18T20:00:26Z</time>
      </trkpt>
      <trkpt lat="48.8304" lon="2.37668">
        <ele>43</ele>
        <time>2013-07-18T20:00:31Z</time>
      </trkpt>
      <trkpt lat="48.83034" lon="2.37679">
        <ele>38</ele>
        <time>2013-07-18T20:00:37Z</time>
      </trkpt>
      <trkpt lat="48.83044" lon="2.37684">
        <ele>44</ele>
        <time>2013-07-18T20:00:43Z</time>
      </trkpt>
      <trkpt lat="48.83061" lon="2.37702">
        <ele>48</ele>
        <time>2013-07-18T20:00:49Z</time>
      </trkpt>
      <trkpt lat="48.83066" lon="2.37713">
        <ele>47</ele>
        <time>2013-07-18T20:00:51Z</time>
      </trkpt>
      <trkpt lat="48.83079" lon="2.37741">
        <ele>51</ele>
        <time>2013-07-18T20:00:57Z</time>
      </trkpt>
      <trkpt lat="48.83083" lon="2.37748">
        <ele>50</ele>
        <time>2013-07-18T20:00:58Z</time>
      </trkpt>
      <trkpt lat="48.83087" lon="2.3776">
        <ele>44</ele>
        <time>2013-07-18T20:01:02Z</time>
      </trkpt>
      <trkpt lat="48.83091" lon="2.37766">
        <ele>42</ele>
        <time>2013-07-18T20:01:04Z</time>
      </trkpt>
      <trkpt lat="48.83096" lon="2.37777">
        <ele>44</ele>
        <time>2013-07-18T20:01:06Z</time>
      </trkpt>
      <trkpt lat="48.83109" lon="2.37807">
        <ele>35</ele>
        <time>2013-07-18T20:01:10Z</time>
      </trkpt>
      <trkpt lat="48.83114" lon="2.37813">
        <ele>36</ele>
        <time>2013-07-18T20:01:11Z</time>
      </trkpt>
      <trkpt lat="48.83119" lon="2.37818">
        <ele>35</ele>
        <time>2013-07-18T20:01:12Z</time>
      </trkpt>
      <trkpt lat="48.83128" lon="2.37825">
        <ele>35</ele>
        <time>2013-07-18T20:01:14Z</time>
      </trkpt>
      <trkpt lat="48.83134" lon="2.37833">
        <ele>39</ele>
        <time>2013-07-18T20:01:16Z</time>
      </trkpt>
      <trkpt lat="48.83144" lon="2.3785">
        <ele>39</ele>
        <time>2013-07-18T20:01:19Z</time>
      </trkpt>
      <trkpt lat="48.83158" lon="2.37872">
        <ele>46</ele>
        <time>2013-07-18T20:01:23Z</time>
      </trkpt>
      <trkpt lat="48.83166" lon="2.37882">
        <ele>46</ele>
        <time>2013-07-18T20:01:26Z</time>
      </trkpt>
      <trkpt lat="48.8317" lon="2.37888">
        <ele>47</ele>
        <time>2013-07-18T20:01:27Z</time>
      </trkpt>
      <trkpt lat="48.83185" lon="2.37912">
        <ele>45</ele>
        <time>2013-07-18T20:01:31Z</time>
      </trkpt>
      <trkpt lat="48.8319" lon="2.37924">
        <ele>42</ele>
        <time>2013-07-18T20:01:34Z</time>
      </trkpt>
      <trkpt lat="48.83191" lon="2.37944">
        <ele>36</ele>
        <time>2013-07-18T20:01:41Z</time>
      </trkpt>
      <trkpt lat="48.83196" lon="2.37957">
        <ele>32</ele>
        <time>2013-07-18T20:01:43Z</time>
      </trkpt>
      <trkpt lat="48.83205" lon="2.37962">
        <ele>27</ele>
        <time>2013-07-18T20:01:45Z</time>
      </trkpt>
      <trkpt lat="48.83211" lon="2.37968">
        <ele>31</ele>
        <time>2013-07-18T20:01:47Z</time>
      </trkpt>
      <trkpt lat="48.83206" lon="2.37986">
        <ele>27</ele>
        <time>2013-07-18T20:02:01Z</time>
      </trkpt>
      <trkpt lat="48.83206" lon="2.37997">
        <ele>42</ele>
        <time>2013-07-18T20:02:50Z</time>
      </trkpt>
      <trkpt lat="48.832" lon="2.38002">
        <ele>50</ele>
        <time>2013-07-18T20:02:52Z</time>
      </trkpt>
      <trkpt lat="48.83182" lon="2.38018">
        <ele>59</ele>
        <time>2013-07-18T20:02:57Z</time>
      </trkpt>
      <trkpt lat="48.83174" lon="2.38028">
        <ele>59</ele>
        <time>2013-07-18T20:02:59Z</time>
      </trkpt>
      <trkpt lat="48.83155" lon="2.38052">
        <ele>65</ele>
        <time>2013-07-18T20:03:05Z</time>
      </trkpt>
      <trkpt lat="48.8315" lon="2.38059">
        <ele>66</ele>
        <time>2013-07-18T20:03:06Z</time>
      </trkpt>
      <trkpt lat="48.83114" lon="2.38108">
        <ele>53</ele>
        <time>2013-07-18T20:03:14Z</time>
      </trkpt>
      <trkpt lat="48.83108" lon="2.38114">
        <ele>54</ele>
        <time>2013-07-18T20:03:15Z</time>
      </trkpt>
      <trkpt lat="48.83056" lon="2.38169">
        <ele>53</ele>
        <time>2013-07-18T20:03:25Z</time>
      </trkpt>
      <trkpt lat="48.8305" lon="2.38173">
        <ele>55</ele>
        <time>2013-07-18T20:03:26Z</time>
      </trkpt>
      <trkpt lat="48.83031" lon="2.38185">
        <ele>47</ele>
        <time>2013-07-18T20:03:29Z</time>
      </trkpt>
      <trkpt lat="48.83025" lon="2.38191">
        <ele>52</ele>
        <time>2013-07-18T20:03:30Z</time>
      </trkpt>
      <trkpt lat="48.82983" lon="2.38225">
        <ele>60</ele>
        <time>2013-07-18T20:03:38Z</time>
      </trkpt>
      <trkpt lat="48.82977" lon="2.38231">
        <ele>58</ele>
        <time>2013-07-18T20:03:39Z</time>
      </trkpt>
      <trkpt lat="48.82973" lon="2.38237">
        <ele>54</ele>
        <time>2013-07-18T20:03:40Z</time>
      </trkpt>
      <trkpt lat="48.82969" lon="2.38244">
        <ele>52</ele>
        <time>2013-07-18T20:03:41Z</time>
      </trkpt>
      <trkpt lat="48.82955" lon="2.38268">
        <ele>47</ele>
        <time>2013-07-18T20:03:45Z</time>
      </trkpt>
      <trkpt lat="48.82941" lon="2.38288">
        <ele>39</ele>
        <time>2013-07-18T20:03:49Z</time>
      </trkpt>
      <trkpt lat="48.8293" lon="2.383">
        <ele>44</ele>
        <time>2013-07-18T20:03:52Z</time>
      </trkpt>
      <trkpt lat="48.82915" lon="2.38318">
        <ele>43</ele>
        <time>2013-07-18T20:03:57Z</time>
      </trkpt>
      <trkpt lat="48.829" lon="2.38338">
        <ele>38</ele>
        <time>2013-07-18T20:04:02Z</time>
      </trkpt>
      <trkpt lat="48.82858" lon="2.38396">
        <ele>37</ele>
        <time>2013-07-18T20:04:17Z</time>
      </trkpt>
      <trkpt lat="48.82844" lon="2.38411">
        <ele>38</ele>
        <time>2013-07-18T20:04:21Z</time>
      </trkpt>
      <trkpt lat="48.8284" lon="2.38414">
        <ele>37</ele>
        <time>2013-07-18T20:04:22Z</time>
      </trkpt>
      <trkpt lat="48.82832" lon="2.3842">
        <ele>37</ele>
        <time>2013-07-18T20:04:24Z</time>
      </trkpt>
      <trkpt lat="48.82814" lon="2.38434">
        <ele>57</ele>
        <time>2013-07-18T20:04:29Z</time>
      </trkpt>
      <trkpt lat="48.82807" lon="2.38441">
        <ele>56</ele>
        <time>2013-07-18T20:04:31Z</time>
      </trkpt>
      <trkpt lat="48.82802" lon="2.38445">
        <ele>56</ele>
        <time>2013-07-18T20:04:33Z</time>
      </trkpt>
      <trkpt lat="48.82795" lon="2.38453">
        <ele>54</ele>
        <time>2013-07-18T20:04:35Z</time>
      </trkpt>
      <trkpt lat="48.82788" lon="2.38462">
        <ele>47</ele>
        <time>2013-07-18T20:04:38Z</time>
      </trkpt>
      <trkpt lat="48.82779" lon="2.38468">
        <ele>46</ele>
        <time>2013-07-18T20:04:40Z</time>
      </trkpt>
      <trkpt lat="48.82781" lon="2.38482">
        <ele>40</ele>
        <time>2013-07-18T20:04:55Z</time>
      </trkpt>
      <trkpt lat="48.82791" lon="2.38484">
        <ele>30</ele>
        <time>2013-07-18T20:05:05Z</time>
      </trkpt>
      <trkpt lat="48.82801" lon="2.3849">
        <ele>37</ele>
        <time>2013-07-18T20:05:09Z</time>
      </trkpt>
      <trkpt lat="48.82802" lon="2.385">
        <ele>38</ele>
        <time>2013-07-18T20:05:12Z</time>
      </trkpt>
      <trkpt lat="48.82798" lon="2.38508">
        <ele>34</ele>
        <time>2013-07-18T20:05:13Z</time>
      </trkpt>
      <trkpt lat="48.8279" lon="2.38515">
        <ele>38</ele>
        <time>2013-07-18T20:05:15Z</time>
      </trkpt>
      <trkpt lat="48.82782" lon="2.3852">
        <ele>38</ele>
        <time>2013-07-18T20:05:17Z</time>
      </trkpt>
      <trkpt lat="48.82764" lon="2.38535">
        <ele>39</ele>
        <time>2013-07-18T20:05:22Z</time>
      </trkpt>
      <trkpt lat="48.8276" lon="2.38539">
        <ele>39</ele>
        <time>2013-07-18T20:05:23Z</time>
      </trkpt>
      <trkpt lat="48.82728" lon="2.38575">
        <ele>41</ele>
        <time>2013-07-18T20:05:31Z</time>
      </trkpt>
      <trkpt lat="48.82713" lon="2.38586">
        <ele>41</ele>
        <time>2013-07-18T20:05:35Z</time>
      </trkpt>
      <trkpt lat="48.82707" lon="2.38592">
        <ele>40</ele>
        <time>2013-07-18T20:05:37Z</time>
      </trkpt>
      <trkpt lat="48.82655" lon="2.38651">
        <ele>35</ele>
        <time>2013-07-18T20:05:58Z</time>
      </trkpt>
      <trkpt lat="48.8265" lon="2.38659">
        <ele>35</ele>
        <time>2013-07-18T20:06:01Z</time>
      </trkpt>
      <trkpt lat="48.82635" lon="2.38671">
        <ele>31</ele>
        <time>2013-07-18T20:06:11Z</time>
      </trkpt>
      <trkpt lat="48.82642" lon="2.38678">
        <ele>32</ele>
        <time>2013-07-18T20:06:35Z</time>
      </trkpt>
      <trkpt lat="48.82646" lon="2.38673">
        <ele>33</ele>
        <time>2013-07-18T20:06:36Z</time>
      </trkpt>
      <trkpt lat="48.82652" lon="2.38665">
        <ele>30</ele>
        <time>2013-07-18T20:06:38Z</time>
      </trkpt>
      <trkpt lat="48.82679" lon="2.38624">
        <ele>40</ele>
        <time>2013-07-18T20:06:49Z</time>
      </trkpt>
      <trkpt lat="48.82689" lon="2.38614">
        <ele>33</ele>
        <time>2013-07-18T20:06:52Z</time>
      </trkpt>
      <trkpt lat="48.82693" lon="2.38606">
        <ele>34</ele>
        <time>2013-07-18T20:06:55Z</time>
      </trkpt>
      <trkpt lat="48.82696" lon="2.38596">
        <ele>34</ele>
        <time>2013-07-18T20:06:58Z</time>
      </trkpt>
      <trkpt lat="48.82702" lon="2.38569">
        <ele>34</ele>
        <time>2013-07-18T20:07:17Z</time>
      </trkpt>
      <trkpt lat="48.82699" lon="2.38556">
        <ele>40</ele>
        <time>2013-07-18T20:07:38Z</time>
      </trkpt>
      <trkpt lat="48.82706" lon="2.3856">
        <ele>35</ele>
        <time>2013-07-18T20:07:55Z</time>
      </trkpt>
      <trkpt lat="48.82711" lon="2.38565">
        <ele>33</ele>
        <time>2013-07-18T20:07:57Z</time>
      </trkpt>
      <trkpt lat="48.82719" lon="2.38575">
        <ele>43</ele>
        <time>2013-07-18T20:08:00Z</time>
      </trkpt>
      <trkpt lat="48.82722" lon="2.38583">
        <ele>42</ele>
        <time>2013-07-18T20:08:02Z</time>
      </trkpt>
      <trkpt lat="48.82723" lon="2.38586">
        <ele>41</ele>
        <time>2013-07-18T20:08:03Z</time>
      </trkpt>
      <trkpt lat="48.82724" lon="2.38589">
        <ele>44</ele>
        <time>2013-07-18T20:08:04Z</time>
      </trkpt>
      <trkpt lat="48.82742" lon="2.38628">
        <ele>42</ele>
        <time>2013-07-18T20:08:15Z</time>
      </trkpt>
      <trkpt lat="48.82743" lon="2.38631">
        <ele>41</ele>
        <time>2013-07-18T20:08:16Z</time>
      </trkpt>
      <trkpt lat="48.82747" lon="2.38638">
        <ele>43</ele>
        <time>2013-07-18T20:08:18Z</time>
      </trkpt>
      <trkpt lat="48.82763" lon="2.38672">
        <ele>41</ele>
        <time>2013-07-18T20:08:26Z</time>
      </trkpt>
      <trkpt lat="48.82768" lon="2.38685">
        <ele>41</ele>
        <time>2013-07-18T20:08:29Z</time>
      </trkpt>
      <trkpt lat="48.82775" lon="2.387">
        <ele>41</ele>
        <time>2013-07-18T20:08:33Z</time>
      </trkpt>
      <trkpt lat="48.82779" lon="2.38707">
        <ele>41</ele>
        <time>2013-07-18T20:08:35Z</time>
      </trkpt>
      <trkpt lat="48.82786" lon="2.38718">
        <ele>41</ele>
        <time>2013-07-18T20:08:39Z</time>
      </trkpt>
      <trkpt lat="48.82788" lon="2.38721">
        <ele>37</ele>
        <time>2013-07-18T20:08:40Z</time>
      </trkpt>
      <trkpt lat="48.82789" lon="2.38724">
        <ele>42</ele>
        <time>2013-07-18T20:08:41Z</time>
      </trkpt>
      <trkpt lat="48.82828" lon="2.38801">
        <ele>42</ele>
        <time>2013-07-18T20:09:04Z</time>
      </trkpt>
      <trkpt lat="48.82829" lon="2.38804">
        <ele>41</ele>
        <time>2013-07-18T20:09:05Z</time>
      </trkpt>
      <trkpt lat="48.82831" lon="2.38807">
        <ele>40</ele>
        <time>2013-07-18T20:09:06Z</time>
      </trkpt>
      <trkpt lat="48.82864" lon="2.3888">
        <ele>41</ele>
        <time>2013-07-18T20:09:28Z</time>
      </trkpt>
      <trkpt lat="48.82868" lon="2.38892">
        <ele>40</ele>
        <time>2013-07-18T20:09:31Z</time>
      </trkpt>
      <trkpt lat="48.82871" lon="2.38899">
        <ele>39</ele>
        <time>2013-07-18T20:09:33Z</time>
      </trkpt>
      <trkpt lat="48.82879" lon="2.38921">
        <ele>35</ele>
        <time>2013-07-18T20:09:40Z</time>
      </trkpt>
      <trkpt lat="48.82881" lon="2.38931">
        <ele>35</ele>
        <time>2013-07-18T20:09:43Z</time>
      </trkpt>
      <trkpt lat="48.82884" lon="2.3894">
        <ele>34</ele>
        <time>2013-07-18T20:09:46Z</time>
      </trkpt>
      <trkpt lat="48.82888" lon="2.38947">
        <ele>33</ele>
        <time>2013-07-18T20:09:48Z</time>
      </trkpt>
      <trkpt lat="48.82891" lon="2.38954">
        <ele>32</ele>
        <time>2013-07-18T20:09:50Z</time>
      </trkpt>
      <trkpt lat="48.82894" lon="2.3896">
        <ele>32</ele>
        <time>2013-07-18T20:09:52Z</time>
      </trkpt>
      <trkpt lat="48.82897" lon="2.38969">
        <ele>34</ele>
        <time>2013-07-18T20:09:54Z</time>
      </trkpt>
      <trkpt lat="48.82901" lon="2.38976">
        <ele>32</ele>
        <time>2013-07-18T20:09:56Z</time>
      </trkpt>
      <trkpt lat="48.82903" lon="2.38983">
        <ele>35</ele>
        <time>2013-07-18T20:09:58Z</time>
      </trkpt>
      <trkpt lat="48.82906" lon="2.38994">
        <ele>33</ele>
        <time>2013-07-18T20:10:01Z</time>
      </trkpt>
      <trkpt lat="48.82913" lon="2.39013">
        <ele>32</ele>
        <time>2013-07-18T20:10:07Z</time>
      </trkpt>
      <trkpt lat="48.82918" lon="2.39009">
        <ele>41</ele>
        <time>2013-07-18T20:10:14Z</time>
      </trkpt>
      <trkpt lat="48.8292" lon="2.39001">
        <ele>39</ele>
        <time>2013-07-18T20:10:28Z</time>
      </trkpt>
      <trkpt lat="48.82924" lon="2.38997">
        <ele>33</ele>
        <time>2013-07-18T20:10:34Z</time>
      </trkpt>
      <trkpt lat="48.8293" lon="2.38993">
        <ele>33</ele>
        <time>2013-07-18T20:10:39Z</time>
      </trkpt>
      <trkpt lat="48.82935" lon="2.39">
        <ele>42</ele>
        <time>2013-07-18T20:10:44Z</time>
      </trkpt>
      <trkpt lat="48.82937" lon="2.39007">
        <ele>41</ele>
        <time>2013-07-18T20:10:46Z</time>
      </trkpt>
      <trkpt lat="48.82944" lon="2.39022">
        <ele>37</ele>
        <time>2013-07-18T20:10:50Z</time>
      </trkpt>
      <trkpt lat="48.8295" lon="2.39027">
        <ele>40</ele>
        <time>2013-07-18T20:10:52Z</time>
      </trkpt>
      <trkpt lat="48.82955" lon="2.39034">
        <ele>41</ele>
        <time>2013-07-18T20:10:54Z</time>
      </trkpt>
      <trkpt lat="48.82965" lon="2.39056">
        <ele>43</ele>
        <time>2013-07-18T20:10:59Z</time>
      </trkpt>
      <trkpt lat="48.82969" lon="2.39063">
        <ele>40</ele>
        <time>2013-07-18T20:11:01Z</time>
      </trkpt>
      <trkpt lat="48.82976" lon="2.39077">
        <ele>37</ele>
        <time>2013-07-18T20:11:04Z</time>
      </trkpt>
      <trkpt lat="48.82979" lon="2.39088">
        <ele>42</ele>
        <time>2013-07-18T20:11:06Z</time>
      </trkpt>
      <trkpt lat="48.82984" lon="2.39098">
        <ele>40</ele>
        <time>2013-07-18T20:11:08Z</time>
      </trkpt>
      <trkpt lat="48.82996" lon="2.39124">
        <ele>40</ele>
        <time>2013-07-18T20:11:13Z</time>
      </trkpt>
      <trkpt lat="48.83001" lon="2.39138">
        <ele>42</ele>
        <time>2013-07-18T20:11:16Z</time>
      </trkpt>
      <trkpt lat="48.8301" lon="2.39163">
        <ele>39</ele>
        <time>2013-07-18T20:11:21Z</time>
      </trkpt>
      <trkpt lat="48.83012" lon="2.39171">
        <ele>41</ele>
        <time>2013-07-18T20:11:23Z</time>
      </trkpt>
      <trkpt lat="48.83015" lon="2.39186">
        <ele>37</ele>
        <time>2013-07-18T20:11:26Z</time>
      </trkpt>
      <trkpt lat="48.83018" lon="2.39194">
        <ele>42</ele>
        <time>2013-07-18T20:11:28Z</time>
      </trkpt>
      <trkpt lat="48.8302" lon="2.39203">
        <ele>39</ele>
        <time>2013-07-18T20:11:30Z</time>
      </trkpt>
      <trkpt lat="48.83025" lon="2.39223">
        <ele>36</ele>
        <time>2013-07-18T20:11:34Z</time>
      </trkpt>
      <trkpt lat="48.83031" lon="2.39253">
        <ele>39</ele>
        <time>2013-07-18T20:11:41Z</time>
      </trkpt>
      <trkpt lat="48.83036" lon="2.39267">
        <ele>41</ele>
        <time>2013-07-18T20:11:45Z</time>
      </trkpt>
      <trkpt lat="48.83037" lon="2.3927">
        <ele>43</ele>
        <time>2013-07-18T20:11:46Z</time>
      </trkpt>
      <trkpt lat="48.83039" lon="2.39275">
        <ele>38</ele>
        <time>2013-07-18T20:11:48Z</time>
      </trkpt>
      <trkpt lat="48.83042" lon="2.39282">
        <ele>41</ele>
        <time>2013-07-18T20:11:51Z</time>
      </trkpt>
      <trkpt lat="48.8305" lon="2.3931">
        <ele>46</ele>
        <time>2013-07-18T20:11:59Z</time>
      </trkpt>
      <trkpt lat="48.83052" lon="2.39319">
        <ele>44</ele>
        <time>2013-07-18T20:12:01Z</time>
      </trkpt>
      <trkpt lat="48.8307" lon="2.39412">
        <ele>32</ele>
        <time>2013-07-18T20:12:20Z</time>
      </trkpt>
      <trkpt lat="48.83071" lon="2.39422">
        <ele>37</ele>
        <time>2013-07-18T20:12:22Z</time>
      </trkpt>
      <trkpt lat="48.83074" lon="2.39435">
        <ele>37</ele>
        <time>2013-07-18T20:12:25Z</time>
      </trkpt>
      <trkpt lat="48.83079" lon="2.39463">
        <ele>40</ele>
        <time>2013-07-18T20:12:32Z</time>
      </trkpt>
      <trkpt lat="48.83086" lon="2.39487">
        <ele>43</ele>
        <time>2013-07-18T20:12:38Z</time>
      </trkpt>
      <trkpt lat="48.83098" lon="2.39526">
        <ele>45</ele>
        <time>2013-07-18T20:12:49Z</time>
      </trkpt>
      <trkpt lat="48.831" lon="2.39535">
        <ele>46</ele>
        <time>2013-07-18T20:12:51Z</time>
      </trkpt>
      <trkpt lat="48.83102" lon="2.39543">
        <ele>46</ele>
        <time>2013-07-18T20:12:53Z</time>
      </trkpt>
      <trkpt lat="48.83107" lon="2.39554">
        <ele>51</ele>
        <time>2013-07-18T20:12:56Z</time>
      </trkpt>
      <trkpt lat="48.83109" lon="2.39562">
        <ele>47</ele>
        <time>2013-07-18T20:12:59Z</time>
      </trkpt>
      <trkpt lat="48.8311" lon="2.39566">
        <ele>47</ele>
        <time>2013-07-18T20:13:00Z</time>
      </trkpt>
      <trkpt lat="48.83111" lon="2.3957">
        <ele>50</ele>
        <time>2013-07-18T20:13:01Z</time>
      </trkpt>
      <trkpt lat="48.83114" lon="2.39581">
        <ele>48</ele>
        <time>2013-07-18T20:13:04Z</time>
      </trkpt>
      <trkpt lat="48.83118" lon="2.39593">
        <ele>49</ele>
        <time>2013-07-18T20:13:07Z</time>
      </trkpt>
      <trkpt lat="48.83121" lon="2.396">
        <ele>47</ele>
        <time>2013-07-18T20:13:09Z</time>
      </trkpt>
      <trkpt lat="48.83123" lon="2.39604">
        <ele>48</ele>
        <time>2013-07-18T20:13:10Z</time>
      </trkpt>
      <trkpt lat="48.83124" lon="2.39608">
        <ele>46</ele>
        <time>2013-07-18T20:13:11Z</time>
      </trkpt>
      <trkpt lat="48.83126" lon="2.39612">
        <ele>45</ele>
        <time>2013-07-18T20:13:12Z</time>
      </trkpt>
      <trkpt lat="48.83131" lon="2.39629">
        <ele>48</ele>
        <time>2013-07-18T20:13:17Z</time>
      </trkpt>
      <trkpt lat="48.83135" lon="2.39642">
        <ele>52</ele>
        <time>2013-07-18T20:13:21Z</time>
      </trkpt>
      <trkpt lat="48.83137" lon="2.3965">
        <ele>52</ele>
        <time>2013-07-18T20:13:23Z</time>
      </trkpt>
      <trkpt lat="48.83139" lon="2.39653">
        <ele>53</ele>
        <time>2013-07-18T20:13:24Z</time>
      </trkpt>
      <trkpt lat="48.83143" lon="2.39664">
        <ele>49</ele>
        <time>2013-07-18T20:13:28Z</time>
      </trkpt>
      <trkpt lat="48.83147" lon="2.3967">
        <ele>52</ele>
        <time>2013-07-18T20:13:30Z</time>
      </trkpt>
      <trkpt lat="48.83151" lon="2.39681">
        <ele>53</ele>
        <time>2013-07-18T20:13:34Z</time>
      </trkpt>
      <trkpt lat="48.83154" lon="2.39685">
        <ele>52</ele>
        <time>2013-07-18T20:13:36Z</time>
      </trkpt>
      <trkpt lat="48.83156" lon="2.3969">
        <ele>53</ele>
        <time>2013-07-18T20:13:38Z</time>
      </trkpt>
      <trkpt lat="48.83168" lon="2.39717">
        <ele>54</ele>
        <time>2013-07-18T20:13:47Z</time>
      </trkpt>
      <trkpt lat="48.83169" lon="2.3972">
        <ele>58</ele>
        <time>2013-07-18T20:13:48Z</time>
      </trkpt>
      <trkpt lat="48.83171" lon="2.39725">
        <ele>55</ele>
        <time>2013-07-18T20:13:50Z</time>
      </trkpt>
      <trkpt lat="48.83174" lon="2.39732">
        <ele>54</ele>
        <time>2013-07-18T20:13:53Z</time>
      </trkpt>
      <trkpt lat="48.83178" lon="2.39738">
        <ele>50</ele>
        <time>2013-07-18T20:13:56Z</time>
      </trkpt>
      <trkpt lat="48.8318" lon="2.39741">
        <ele>52</ele>
        <time>2013-07-18T20:13:58Z</time>
      </trkpt>
      <trkpt lat="48.8318" lon="2.39745">
        <ele>51</ele>
        <time>2013-07-18T20:14:11Z</time>
      </trkpt>
      <trkpt lat="48.8318" lon="2.39754">
        <ele>54</ele>
        <time>2013-07-18T20:14:17Z</time>
      </trkpt>
      <trkpt lat="48.83178" lon="2.39763">
        <ele>55</ele>
        <time>2013-07-18T20:14:20Z</time>
      </trkpt>
      <trkpt lat="48.83178" lon="2.39764">
        <ele>56</ele>
        <time>2013-07-18T20:14:21Z</time>
      </trkpt>
      <trkpt lat="48.83178" lon="2.39768">
        <ele>53</ele>
        <time>2013-07-18T20:14:23Z</time>
      </trkpt>
      <trkpt lat="48.8318" lon="2.39773">
        <ele>48</ele>
        <time>2013-07-18T20:14:25Z</time>
      </trkpt>
      <trkpt lat="48.83182" lon="2.39776">
        <ele>50</ele>
        <time>2013-07-18T20:14:27Z</time>
      </trkpt>
      <trkpt lat="48.83186" lon="2.39783">
        <ele>55</ele>
        <time>2013-07-18T20:14:30Z</time>
      </trkpt>
      <trkpt lat="48.83182" lon="2.39792">
        <ele>55</ele>
        <time>2013-07-18T20:14:44Z</time>
      </trkpt>
      <trkpt lat="48.83178" lon="2.39797">
        <ele>49</ele>
        <time>2013-07-18T20:14:48Z</time>
      </trkpt>
      <trkpt lat="48.83174" lon="2.39804">
        <ele>53</ele>
        <time>2013-07-18T20:14:51Z</time>
      </trkpt>
      <trkpt lat="48.83174" lon="2.39811">
        <ele>52</ele>
        <time>2013-07-18T20:14:53Z</time>
      </trkpt>
      <trkpt lat="48.83177" lon="2.39819">
        <ele>54</ele>
        <time>2013-07-18T20:14:56Z</time>
      </trkpt>
      <trkpt lat="48.83183" lon="2.39839">
        <ele>52</ele>
        <time>2013-07-18T20:15:01Z</time>
      </trkpt>
      <trkpt lat="48.83186" lon="2.39849">
        <ele>48</ele>
        <time>2013-07-18T20:15:03Z</time>
      </trkpt>
      <trkpt lat="48.8319" lon="2.39857">
        <ele>47</ele>
        <time>2013-07-18T20:15:05Z</time>
      </trkpt>
      <trkpt lat="48.83194" lon="2.39863">
        <ele>45</ele>
        <time>2013-07-18T20:15:07Z</time>
      </trkpt>
      <trkpt lat="48.83197" lon="2.3987">
        <ele>49</ele>
        <time>2013-07-18T20:15:09Z</time>
      </trkpt>
      <trkpt lat="48.83209" lon="2.39892">
        <ele>47</ele>
        <time>2013-07-18T20:15:16Z</time>
      </trkpt>
      <trkpt lat="48.83211" lon="2.399">
        <ele>45</ele>
        <time>2013-07-18T20:15:17Z</time>
      </trkpt>
      <trkpt lat="48.83218" lon="2.39913">
        <ele>52</ele>
        <time>2013-07-18T20:15:20Z</time>
      </trkpt>
      <trkpt lat="48.8322" lon="2.39921">
        <ele>53</ele>
        <time>2013-07-18T20:15:22Z</time>
      </trkpt>
      <trkpt lat="48.83225" lon="2.39927">
        <ele>50</ele>
        <time>2013-07-18T20:15:25Z</time>
      </trkpt>
      <trkpt lat="48.83228" lon="2.39934">
        <ele>49</ele>
        <time>2013-07-18T20:15:27Z</time>
      </trkpt>
      <trkpt lat="48.83237" lon="2.39958">
        <ele>54</ele>
        <time>2013-07-18T20:15:31Z</time>
      </trkpt>
      <trkpt lat="48.83266" lon="2.40037">
        <ele>50</ele>
        <time>2013-07-18T20:15:43Z</time>
      </trkpt>
      <trkpt lat="48.83268" lon="2.40044">
        <ele>50</ele>
        <time>2013-07-18T20:15:44Z</time>
      </trkpt>
      <trkpt lat="48.83269" lon="2.40052">
        <ele>50</ele>
        <time>2013-07-18T20:15:45Z</time>
      </trkpt>
      <trkpt lat="48.83275" lon="2.40063">
        <ele>51</ele>
        <time>2013-07-18T20:15:47Z</time>
      </trkpt>
      <trkpt lat="48.8328" lon="2.40073">
        <ele>53</ele>
        <time>2013-07-18T20:15:49Z</time>
      </trkpt>
      <trkpt lat="48.83284" lon="2.40082">
        <ele>57</ele>
        <time>2013-07-18T20:15:51Z</time>
      </trkpt>
      <trkpt lat="48.83296" lon="2.40109">
        <ele>55</ele>
        <time>2013-07-18T20:15:56Z</time>
      </trkpt>
      <trkpt lat="48.83299" lon="2.40121">
        <ele>58</ele>
        <time>2013-07-18T20:15:58Z</time>
      </trkpt>
      <trkpt lat="48.83302" lon="2.40128">
        <ele>56</ele>
        <time>2013-07-18T20:15:59Z</time>
      </trkpt>
      <trkpt lat="48.83306" lon="2.40142">
        <ele>52</ele>
        <time>2013-07-18T20:16:01Z</time>
      </trkpt>
      <trkpt lat="48.83309" lon="2.40149">
        <ele>51</ele>
        <time>2013-07-18T20:16:02Z</time>
      </trkpt>
      <trkpt lat="48.83314" lon="2.40168">
        <ele>47</ele>
        <time>2013-07-18T20:16:05Z</time>
      </trkpt>
      <trkpt lat="48.83332" lon="2.40225">
        <ele>51</ele>
        <time>2013-07-18T20:16:15Z</time>
      </trkpt>
      <trkpt lat="48.83335" lon="2.40233">
        <ele>49</ele>
        <time>2013-07-18T20:16:17Z</time>
      </trkpt>
      <trkpt lat="48.83338" lon="2.40244">
        <ele>44</ele>
        <time>2013-07-18T20:16:20Z</time>
      </trkpt>
      <trkpt lat="48.83342" lon="2.40257">
        <ele>44</ele>
        <time>2013-07-18T20:16:24Z</time>
      </trkpt>
      <trkpt lat="48.83346" lon="2.40262">
        <ele>47</ele>
        <time>2013-07-18T20:16:26Z</time>
      </trkpt>
      <trkpt lat="48.83349" lon="2.40271">
        <ele>50</ele>
        <time>2013-07-18T20:16:29Z</time>
      </trkpt>
      <trkpt lat="48.83351" lon="2.40279">
        <ele>48</ele>
        <time>2013-07-18T20:16:31Z</time>
      </trkpt>
      <trkpt lat="48.83354" lon="2.40285">
        <ele>49</ele>
        <time>2013-07-18T20:16:33Z</time>
      </trkpt>
      <trkpt lat="48.83358" lon="2.40289">
        <ele>47</ele>
        <time>2013-07-18T20:16:35Z</time>
      </trkpt>
      <trkpt lat="48.83361" lon="2.40296">
        <ele>45</ele>
        <time>2013-07-18T20:16:37Z</time>
      </trkpt>
      <trkpt lat="48.83363" lon="2.40306">
        <ele>48</ele>
        <time>2013-07-18T20:16:39Z</time>
      </trkpt>
      <trkpt lat="48.83366" lon="2.40314">
        <ele>46</ele>
        <time>2013-07-18T20:16:41Z</time>
      </trkpt>
      <trkpt lat="48.83375" lon="2.4034">
        <ele>52</ele>
        <time>2013-07-18T20:16:47Z</time>
      </trkpt>
      <trkpt lat="48.83378" lon="2.40347">
        <ele>54</ele>
        <time>2013-07-18T20:16:49Z</time>
      </trkpt>
      <trkpt lat="48.83379" lon="2.40356">
        <ele>51</ele>
        <time>2013-07-18T20:16:51Z</time>
      </trkpt>
      <trkpt lat="48.83381" lon="2.40361">
        <ele>50</ele>
        <time>2013-07-18T20:16:52Z</time>
      </trkpt>
      <trkpt lat="48.83382" lon="2.40364">
        <ele>50</ele>
        <time>2013-07-18T20:16:53Z</time>
      </trkpt>
      <trkpt lat="48.83383" lon="2.40371">
        <ele>49</ele>
        <time>2013-07-18T20:16:55Z</time>
      </trkpt>
      <trkpt lat="48.83388" lon="2.40378">
        <ele>46</ele>
        <time>2013-07-18T20:16:58Z</time>
      </trkpt>
      <trkpt lat="48.83391" lon="2.40385">
        <ele>46</ele>
        <time>2013-07-18T20:17:00Z</time>
      </trkpt>
      <trkpt lat="48.834" lon="2.40412">
        <ele>49</ele>
        <time>2013-07-18T20:17:07Z</time>
      </trkpt>
      <trkpt lat="48.83403" lon="2.40418">
        <ele>47</ele>
        <time>2013-07-18T20:17:09Z</time>
      </trkpt>
      <trkpt lat="48.83406" lon="2.40428">
        <ele>48</ele>
        <time>2013-07-18T20:17:11Z</time>
      </trkpt>
      <trkpt lat="48.8341" lon="2.40438">
        <ele>42</ele>
        <time>2013-07-18T20:17:13Z</time>
      </trkpt>
      <trkpt lat="48.83418" lon="2.40454">
        <ele>43</ele>
        <time>2013-07-18T20:17:17Z</time>
      </trkpt>
      <trkpt lat="48.83421" lon="2.40464">
        <ele>44</ele>
        <time>2013-07-18T20:17:19Z</time>
      </trkpt>
      <trkpt lat="48.83423" lon="2.40472">
        <ele>42</ele>
        <time>2013-07-18T20:17:21Z</time>
      </trkpt>
      <trkpt lat="48.83426" lon="2.4048">
        <ele>43</ele>
        <time>2013-07-18T20:17:23Z</time>
      </trkpt>
      <trkpt lat="48.83431" lon="2.40487">
        <ele>45</ele>
        <time>2013-07-18T20:17:26Z</time>
      </trkpt>
      <trkpt lat="48.83437" lon="2.40491">
        <ele>46</ele>
        <time>2013-07-18T20:17:29Z</time>
      </trkpt>
      <trkpt lat="48.83441" lon="2.40496">
        <ele>46</ele>
        <time>2013-07-18T20:17:31Z</time>
      </trkpt>
      <trkpt lat="48.83446" lon="2.40503">
        <ele>42</ele>
        <time>2013-07-18T20:17:33Z</time>
      </trkpt>
      <trkpt lat="48.83459" lon="2.40525">
        <ele>39</ele>
        <time>2013-07-18T20:17:38Z</time>
      </trkpt>
      <trkpt lat="48.83463" lon="2.40534">
        <ele>40</ele>
        <time>2013-07-18T20:17:40Z</time>
      </trkpt>
      <trkpt lat="48.83463" lon="2.40545">
        <ele>42</ele>
        <time>2013-07-18T20:17:42Z</time>
      </trkpt>
      <trkpt lat="48.83467" lon="2.4055">
        <ele>42</ele>
        <time>2013-07-18T20:17:44Z</time>
      </trkpt>
      <trkpt lat="48.8347" lon="2.40559">
        <ele>43</ele>
        <time>2013-07-18T20:17:47Z</time>
      </trkpt>
      <trkpt lat="48.8348" lon="2.40579">
        <ele>41</ele>
        <time>2013-07-18T20:17:57Z</time>
      </trkpt>
      <trkpt lat="48.83487" lon="2.40587">
        <ele>40</ele>
        <time>2013-07-18T20:17:59Z</time>
      </trkpt>
      <trkpt lat="48.83504" lon="2.40608">
        <ele>30</ele>
        <time>2013-07-18T20:18:04Z</time>
      </trkpt>
      <trkpt lat="48.83508" lon="2.40615">
        <ele>32</ele>
        <time>2013-07-18T20:18:06Z</time>
      </trkpt>
      <trkpt lat="48.83507" lon="2.40627">
        <ele>34</ele>
        <time>2013-07-18T20:18:08Z</time>
      </trkpt>
      <trkpt lat="48.83508" lon="2.40635">
        <ele>38</ele>
        <time>2013-07-18T20:18:10Z</time>
      </trkpt>
      <trkpt lat="48.83512" lon="2.40643">
        <ele>43</ele>
        <time>2013-07-18T20:18:12Z</time>
      </trkpt>
      <trkpt lat="48.83518" lon="2.40667">
        <ele>45</ele>
        <time>2013-07-18T20:18:19Z</time>
      </trkpt>
      <trkpt lat="48.83521" lon="2.40674">
        <ele>38</ele>
        <time>2013-07-18T20:18:22Z</time>
      </trkpt>
      <trkpt lat="48.83526" lon="2.40679">
        <ele>39</ele>
        <time>2013-07-18T20:18:25Z</time>
      </trkpt>
      <trkpt lat="48.83532" lon="2.40683">
        <ele>38</ele>
        <time>2013-07-18T20:18:28Z</time>
      </trkpt>
      <trkpt lat="48.83537" lon="2.4069">
        <ele>36</ele>
        <time>2013-07-18T20:18:32Z</time>
      </trkpt>
      <trkpt lat="48.83541" lon="2.40698">
        <ele>32</ele>
        <time>2013-07-18T20:18:46Z</time>
      </trkpt>
      <trkpt lat="48.83547" lon="2.40703">
        <ele>32</ele>
        <time>2013-07-18T20:18:49Z</time>
      </trkpt>
      <trkpt lat="48.83552" lon="2.40709">
        <ele>34</ele>
        <time>2013-07-18T20:18:54Z</time>
      </trkpt>
      <trkpt lat="48.83557" lon="2.40713">
        <ele>41</ele>
        <time>2013-07-18T20:19:07Z</time>
      </trkpt>
      <trkpt lat="48.83574" lon="2.40727">
        <ele>38</ele>
        <time>2013-07-18T20:19:18Z</time>
      </trkpt>
      <trkpt lat="48.83579" lon="2.40733">
        <ele>39</ele>
        <time>2013-07-18T20:19:20Z</time>
      </trkpt>
      <trkpt lat="48.83585" lon="2.40737">
        <ele>44</ele>
        <time>2013-07-18T20:19:22Z</time>
      </trkpt>
      <trkpt lat="48.8361" lon="2.40754">
        <ele>44</ele>
        <time>2013-07-18T20:19:32Z</time>
      </trkpt>
      <trkpt lat="48.83616" lon="2.4076">
        <ele>44</ele>
        <time>2013-07-18T20:19:34Z</time>
      </trkpt>
      <trkpt lat="48.83623" lon="2.40765">
        <ele>43</ele>
        <time>2013-07-18T20:19:36Z</time>
      </trkpt>
      <trkpt lat="48.83636" lon="2.40777">
        <ele>53</ele>
        <time>2013-07-18T20:19:41Z</time>
      </trkpt>
      <trkpt lat="48.83641" lon="2.40786">
        <ele>51</ele>
        <time>2013-07-18T20:19:43Z</time>
      </trkpt>
      <trkpt lat="48.83646" lon="2.40793">
        <ele>45</ele>
        <time>2013-07-18T20:19:46Z</time>
      </trkpt>
      <trkpt lat="48.83653" lon="2.408">
        <ele>46</ele>
        <time>2013-07-18T20:19:50Z</time>
      </trkpt>
      <trkpt lat="48.83667" lon="2.40811">
        <ele>64</ele>
        <time>2013-07-18T20:19:56Z</time>
      </trkpt>
      <trkpt lat="48.83674" lon="2.40815">
        <ele>65</ele>
        <time>2013-07-18T20:19:58Z</time>
      </trkpt>
      <trkpt lat="48.83692" lon="2.40824">
        <ele>63</ele>
        <time>2013-07-18T20:20:03Z</time>
      </trkpt>
      <trkpt lat="48.83699" lon="2.40827">
        <ele>63</ele>
        <time>2013-07-18T20:20:05Z</time>
      </trkpt>
      <trkpt lat="48.83711" lon="2.40831">
        <ele>59</ele>
        <time>2013-07-18T20:20:09Z</time>
      </trkpt>
      <trkpt lat="48.83716" lon="2.40831">
        <ele>59</ele>
        <time>2013-07-18T20:20:11Z</time>
      </trkpt>
      <trkpt lat="48.83725" lon="2.40834">
        <ele>60</ele>
        <time>2013-07-18T20:20:15Z</time>
      </trkpt>
      <trkpt lat="48.83732" lon="2.40838">
        <ele>56</ele>
        <time>2013-07-18T20:20:18Z</time>
      </trkpt>
      <trkpt lat="48.83738" lon="2.40836">
        <ele>60</ele>
        <time>2013-07-18T20:20:22Z</time>
      </trkpt>
      <trkpt lat="48.83754" lon="2.40838">
        <ele>58</ele>
        <time>2013-07-18T20:20:27Z</time>
      </trkpt>
      <trkpt lat="48.83773" lon="2.40839">
        <ele>56</ele>
        <time>2013-07-18T20:20:32Z</time>
      </trkpt>
      <trkpt lat="48.83788" lon="2.40843">
        <ele>47</ele>
        <time>2013-07-18T20:20:36Z</time>
      </trkpt>
      <trkpt lat="48.83794" lon="2.40847">
        <ele>44</ele>
        <time>2013-07-18T20:20:37Z</time>
      </trkpt>
      <trkpt lat="48.83813" lon="2.40855">
        <ele>45</ele>
        <time>2013-07-18T20:20:42Z</time>
      </trkpt>
      <trkpt lat="48.8382" lon="2.40859">
        <ele>48</ele>
        <time>2013-07-18T20:20:45Z</time>
      </trkpt>
      <trkpt lat="48.83827" lon="2.40863">
        <ele>49</ele>
        <time>2013-07-18T20:20:47Z</time>
      </trkpt>
      <trkpt lat="48.83868" lon="2.4088">
        <ele>48</ele>
        <time>2013-07-18T20:20:58Z</time>
      </trkpt>
      <trkpt lat="48.83885" lon="2.40885">
        <ele>48</ele>
        <time>2013-07-18T20:21:02Z</time>
      </trkpt>
      <trkpt lat="48.83946" lon="2.40904">
        <ele>46</ele>
        <time>2013-07-18T20:21:18Z</time>
      </trkpt>
      <trkpt lat="48.83952" lon="2.40907">
        <ele>48</ele>
        <time>2013-07-18T20:21:20Z</time>
      </trkpt>
      <trkpt lat="48.83958" lon="2.40911">
        <ele>46</ele>
        <time>2013-07-18T20:21:22Z</time>
      </trkpt>
      <trkpt lat="48.83965" lon="2.40913">
        <ele>52</ele>
        <time>2013-07-18T20:21:25Z</time>
      </trkpt>
      <trkpt lat="48.83984" lon="2.40916">
        <ele>54</ele>
        <time>2013-07-18T20:21:31Z</time>
      </trkpt>
      <trkpt lat="48.83989" lon="2.40918">
        <ele>50</ele>
        <time>2013-07-18T20:21:33Z</time>
      </trkpt>
      <trkpt lat="48.8401" lon="2.40924">
        <ele>50</ele>
        <time>2013-07-18T20:21:39Z</time>
      </trkpt>
      <trkpt lat="48.84015" lon="2.40924">
        <ele>48</ele>
        <time>2013-07-18T20:21:41Z</time>
      </trkpt>
      <trkpt lat="48.84022" lon="2.40927">
        <ele>47</ele>
        <time>2013-07-18T20:21:44Z</time>
      </trkpt>
      <trkpt lat="48.84028" lon="2.40928">
        <ele>50</ele>
        <time>2013-07-18T20:21:46Z</time>
      </trkpt>
      <trkpt lat="48.84051" lon="2.40935">
        <ele>52</ele>
        <time>2013-07-18T20:21:55Z</time>
      </trkpt>
      <trkpt lat="48.84054" lon="2.40936">
        <ele>52</ele>
        <time>2013-07-18T20:21:57Z</time>
      </trkpt>
      <trkpt lat="48.84059" lon="2.40935">
        <ele>50</ele>
        <time>2013-07-18T20:22:02Z</time>
      </trkpt>
      <trkpt lat="48.84066" lon="2.40935">
        <ele>52</ele>
        <time>2013-07-18T20:22:06Z</time>
      </trkpt>
      <trkpt lat="48.84072" lon="2.40933">
        <ele>52</ele>
        <time>2013-07-18T20:22:08Z</time>
      </trkpt>
      <trkpt lat="48.84079" lon="2.40932">
        <ele>54</ele>
        <time>2013-07-18T20:22:11Z</time>
      </trkpt>
      <trkpt lat="48.84084" lon="2.40934">
        <ele>52</ele>
        <time>2013-07-18T20:22:13Z</time>
      </trkpt>
      <trkpt lat="48.8409" lon="2.40935">
        <ele>50</ele>
        <time>2013-07-18T20:22:15Z</time>
      </trkpt>
      <trkpt lat="48.84103" lon="2.4094">
        <ele>55</ele>
        <time>2013-07-18T20:22:19Z</time>
      </trkpt>
      <trkpt lat="48.84124" lon="2.40947">
        <ele>50</ele>
        <time>2013-07-18T20:22:26Z</time>
      </trkpt>
      <trkpt lat="48.84135" lon="2.40955">
        <ele>49</ele>
        <time>2013-07-18T20:22:30Z</time>
      </trkpt>
      <trkpt lat="48.84142" lon="2.40956">
        <ele>52</ele>
        <time>2013-07-18T20:22:32Z</time>
      </trkpt>
      <trkpt lat="48.84163" lon="2.40961">
        <ele>46</ele>
        <time>2013-07-18T20:22:38Z</time>
      </trkpt>
      <trkpt lat="48.84168" lon="2.40964">
        <ele>46</ele>
        <time>2013-07-18T20:22:40Z</time>
      </trkpt>
      <trkpt lat="48.84175" lon="2.40966">
        <ele>53</ele>
        <time>2013-07-18T20:22:42Z</time>
      </trkpt>
      <trkpt lat="48.84181" lon="2.40967">
        <ele>53</ele>
        <time>2013-07-18T20:22:44Z</time>
      </trkpt>
      <trkpt lat="48.84189" lon="2.4097">
        <ele>47</ele>
        <time>2013-07-18T20:22:47Z</time>
      </trkpt>
      <trkpt lat="48.84195" lon="2.4097">
        <ele>48</ele>
        <time>2013-07-18T20:22:49Z</time>
      </trkpt>
      <trkpt lat="48.84201" lon="2.40971">
        <ele>51</ele>
        <time>2013-07-18T20:22:51Z</time>
      </trkpt>
      <trkpt lat="48.84213" lon="2.40976">
        <ele>51</ele>
        <time>2013-07-18T20:22:55Z</time>
      </trkpt>
      <trkpt lat="48.84219" lon="2.40978">
        <ele>48</ele>
        <time>2013-07-18T20:22:57Z</time>
      </trkpt>
      <trkpt lat="48.84225" lon="2.40978">
        <ele>52</ele>
        <time>2013-07-18T20:22:59Z</time>
      </trkpt>
      <trkpt lat="48.84236" lon="2.4098">
        <ele>51</ele>
        <time>2013-07-18T20:23:05Z</time>
      </trkpt>
      <trkpt lat="48.8424" lon="2.40986">
        <ele>52</ele>
        <time>2013-07-18T20:23:08Z</time>
      </trkpt>
      <trkpt lat="48.84245" lon="2.40991">
        <ele>51</ele>
        <time>2013-07-18T20:23:12Z</time>
      </trkpt>
      <trkpt lat="48.84251" lon="2.40993">
        <ele>56</ele>
        <time>2013-07-18T20:23:17Z</time>
      </trkpt>
      <trkpt lat="48.84256" lon="2.40998">
        <ele>55</ele>
        <time>2013-07-18T20:23:22Z</time>
      </trkpt>
      <trkpt lat="48.8426" lon="2.41003">
        <ele>59</ele>
        <time>2013-07-18T20:23:25Z</time>
      </trkpt>
      <trkpt lat="48.84266" lon="2.41005">
        <ele>55</ele>
        <time>2013-07-18T20:23:29Z</time>
      </trkpt>
      <trkpt lat="48.84278" lon="2.4101">
        <ele>55</ele>
        <time>2013-07-18T20:23:35Z</time>
      </trkpt>
      <trkpt lat="48.84283" lon="2.41013">
        <ele>57</ele>
        <time>2013-07-18T20:23:37Z</time>
      </trkpt>
      <trkpt lat="48.84289" lon="2.41015">
        <ele>52</ele>
        <time>2013-07-18T20:23:40Z</time>
      </trkpt>
      <trkpt lat="48.84374" lon="2.41015">
        <ele>54</ele>
        <time>2013-07-18T20:24:15Z</time>
      </trkpt>
      <trkpt lat="48.84377" lon="2.41033">
        <ele>54</ele>
        <time>2013-07-18T20:24:16Z</time>
      </trkpt>
      <trkpt lat="48.8441" lon="2.41038">
        <ele>76</ele>
        <time>2013-07-18T20:24:44Z</time>
      </trkpt>
      <trkpt lat="48.84432" lon="2.41049">
        <ele>67</ele>
        <time>2013-07-18T20:24:47Z</time>
      </trkpt>
      <trkpt lat="48.84471" lon="2.41069">
        <ele>61</ele>
        <time>2013-07-18T20:24:56Z</time>
      </trkpt>
      <trkpt lat="48.84478" lon="2.41074">
        <ele>62</ele>
        <time>2013-07-18T20:24:57Z</time>
      </trkpt>
      <trkpt lat="48.84497" lon="2.41077">
        <ele>53</ele>
        <time>2013-07-18T20:25:01Z</time>
      </trkpt>
      <trkpt lat="48.84512" lon="2.41083">
        <ele>58</ele>
        <time>2013-07-18T20:25:06Z</time>
      </trkpt>
      <trkpt lat="48.84538" lon="2.41088">
        <ele>54</ele>
        <time>2013-07-18T20:25:17Z</time>
      </trkpt>
      <trkpt lat="48.84543" lon="2.41089">
        <ele>56</ele>
        <time>2013-07-18T20:25:19Z</time>
      </trkpt>
      <trkpt lat="48.8455" lon="2.41092">
        <ele>49</ele>
        <time>2013-07-18T20:25:21Z</time>
      </trkpt>
      <trkpt lat="48.84569" lon="2.411">
        <ele>51</ele>
        <time>2013-07-18T20:25:30Z</time>
      </trkpt>
      <trkpt lat="48.84574" lon="2.41104">
        <ele>50</ele>
        <time>2013-07-18T20:25:32Z</time>
      </trkpt>
      <trkpt lat="48.84583" lon="2.41112">
        <ele>50</ele>
        <time>2013-07-18T20:25:34Z</time>
      </trkpt>
      <trkpt lat="48.84587" lon="2.41116">
        <ele>53</ele>
        <time>2013-07-18T20:25:35Z</time>
      </trkpt>
      <trkpt lat="48.84605" lon="2.41126">
        <ele>38</ele>
        <time>2013-07-18T20:25:39Z</time>
      </trkpt>
      <trkpt lat="48.84614" lon="2.41125">
        <ele>46</ele>
        <time>2013-07-18T20:25:41Z</time>
      </trkpt>
      <trkpt lat="48.8462" lon="2.41126">
        <ele>45</ele>
        <time>2013-07-18T20:25:43Z</time>
      </trkpt>
      <trkpt lat="48.84626" lon="2.41127">
        <ele>49</ele>
        <time>2013-07-18T20:25:45Z</time>
      </trkpt>
      <trkpt lat="48.8464" lon="2.41129">
        <ele>54</ele>
        <time>2013-07-18T20:25:49Z</time>
      </trkpt>
      <trkpt lat="48.84646" lon="2.41129">
        <ele>53</ele>
        <time>2013-07-18T20:25:51Z</time>
      </trkpt>
      <trkpt lat="48.84653" lon="2.41132">
        <ele>47</ele>
        <time>2013-07-18T20:25:54Z</time>
      </trkpt>
      <trkpt lat="48.84658" lon="2.41136">
        <ele>47</ele>
        <time>2013-07-18T20:25:56Z</time>
      </trkpt>
      <trkpt lat="48.84663" lon="2.4114">
        <ele>43</ele>
        <time>2013-07-18T20:25:58Z</time>
      </trkpt>
      <trkpt lat="48.84669" lon="2.41141">
        <ele>46</ele>
        <time>2013-07-18T20:26:01Z</time>
      </trkpt>
      <trkpt lat="48.84675" lon="2.41145">
        <ele>45</ele>
        <time>2013-07-18T20:26:05Z</time>
      </trkpt>
      <trkpt lat="48.84676" lon="2.41153">
        <ele>46</ele>
        <time>2013-07-18T20:26:07Z</time>
      </trkpt>
      <trkpt lat="48.8468" lon="2.41168">
        <ele>49</ele>
        <time>2013-07-18T20:26:11Z</time>
      </trkpt>
      <trkpt lat="48.84682" lon="2.41167">
        <ele>45</ele>
        <time>2013-07-18T20:26:20Z</time>
      </trkpt>
      <trkpt lat="48.84685" lon="2.41164">
        <ele>53</ele>
        <time>2013-07-18T20:26:49Z</time>
      </trkpt>
      <trkpt lat="48.84686" lon="2.4116">
        <ele>52</ele>
        <time>2013-07-18T20:26:50Z</time>
      </trkpt>
      <trkpt lat="48.84693" lon="2.41162">
        <ele>50</ele>
        <time>2013-07-18T20:26:56Z</time>
      </trkpt>
      <trkpt lat="48.8471" lon="2.41169">
        <ele>53</ele>
        <time>2013-07-18T20:27:03Z</time>
      </trkpt>
      <trkpt lat="48.84717" lon="2.41166">
        <ele>50</ele>
        <time>2013-07-18T20:27:06Z</time>
      </trkpt>
      <trkpt lat="48.84721" lon="2.41156">
        <ele>49</ele>
        <time>2013-07-18T20:27:08Z</time>
      </trkpt>
      <trkpt lat="48.84726" lon="2.41149">
        <ele>48</ele>
        <time>2013-07-18T20:27:10Z</time>
      </trkpt>
      <trkpt lat="48.84732" lon="2.41144">
        <ele>51</ele>
        <time>2013-07-18T20:27:12Z</time>
      </trkpt>
      <trkpt lat="48.84738" lon="2.41142">
        <ele>53</ele>
        <time>2013-07-18T20:27:14Z</time>
      </trkpt>
      <trkpt lat="48.84747" lon="2.41141">
        <ele>48</ele>
        <time>2013-07-18T20:27:19Z</time>
      </trkpt>
      <trkpt lat="48.84757" lon="2.41144">
        <ele>48</ele>
        <time>2013-07-18T20:27:22Z</time>
      </trkpt>
      <trkpt lat="48.84764" lon="2.41147">
        <ele>55</ele>
        <time>2013-07-18T20:27:24Z</time>
      </trkpt>
      <trkpt lat="48.84771" lon="2.41149">
        <ele>59</ele>
        <time>2013-07-18T20:27:26Z</time>
      </trkpt>
      <trkpt lat="48.8479" lon="2.41154">
        <ele>60</ele>
        <time>2013-07-18T20:27:31Z</time>
      </trkpt>
      <trkpt lat="48.84809" lon="2.41156">
        <ele>60</ele>
        <time>2013-07-18T20:27:37Z</time>
      </trkpt>
      <trkpt lat="48.84814" lon="2.41156">
        <ele>59</ele>
        <time>2013-07-18T20:27:39Z</time>
      </trkpt>
      <trkpt lat="48.84829" lon="2.41149">
        <ele>62</ele>
        <time>2013-07-18T20:27:46Z</time>
      </trkpt>
      <trkpt lat="48.84839" lon="2.4115">
        <ele>61</ele>
        <time>2013-07-18T20:27:49Z</time>
      </trkpt>
      <trkpt lat="48.84862" lon="2.41155">
        <ele>54</ele>
        <time>2013-07-18T20:27:53Z</time>
      </trkpt>
      <trkpt lat="48.84884" lon="2.41161">
        <ele>55</ele>
        <time>2013-07-18T20:27:58Z</time>
      </trkpt>
      <trkpt lat="48.84899" lon="2.41167">
        <ele>48</ele>
        <time>2013-07-18T20:28:02Z</time>
      </trkpt>
      <trkpt lat="48.84909" lon="2.41168">
        <ele>47</ele>
        <time>2013-07-18T20:28:05Z</time>
      </trkpt>
      <trkpt lat="48.84921" lon="2.41167">
        <ele>53</ele>
        <time>2013-07-18T20:28:09Z</time>
      </trkpt>
      <trkpt lat="48.84927" lon="2.41165">
        <ele>53</ele>
        <time>2013-07-18T20:28:11Z</time>
      </trkpt>
      <trkpt lat="48.84948" lon="2.4116">
        <ele>50</ele>
        <time>2013-07-18T20:28:18Z</time>
      </trkpt>
      <trkpt lat="48.84956" lon="2.41159">
        <ele>50</ele>
        <time>2013-07-18T20:28:20Z</time>
      </trkpt>
      <trkpt lat="48.84977" lon="2.41156">
        <ele>54</ele>
        <time>2013-07-18T20:28:26Z</time>
      </trkpt>
      <trkpt lat="48.84991" lon="2.41152">
        <ele>54</ele>
        <time>2013-07-18T20:28:31Z</time>
      </trkpt>
      <trkpt lat="48.85056" lon="2.41136">
        <ele>62</ele>
        <time>2013-07-18T20:28:48Z</time>
      </trkpt>
      <trkpt lat="48.85064" lon="2.41136">
        <ele>60</ele>
        <time>2013-07-18T20:28:50Z</time>
      </trkpt>
      <trkpt lat="48.85103" lon="2.4113">
        <ele>54</ele>
        <time>2013-07-18T20:29:03Z</time>
      </trkpt>
      <trkpt lat="48.85118" lon="2.41132">
        <ele>53</ele>
        <time>2013-07-18T20:29:08Z</time>
      </trkpt>
      <trkpt lat="48.85124" lon="2.41131">
        <ele>53</ele>
        <time>2013-07-18T20:29:11Z</time>
      </trkpt>
      <trkpt lat="48.85131" lon="2.41129">
        <ele>52</ele>
        <time>2013-07-18T20:29:14Z</time>
      </trkpt>
      <trkpt lat="48.85138" lon="2.41127">
        <ele>59</ele>
        <time>2013-07-18T20:29:17Z</time>
      </trkpt>
      <trkpt lat="48.85143" lon="2.41125">
        <ele>58</ele>
        <time>2013-07-18T20:29:19Z</time>
      </trkpt>
      <trkpt lat="48.85153" lon="2.41121">
        <ele>57</ele>
        <time>2013-07-18T20:29:24Z</time>
      </trkpt>
      <trkpt lat="48.85159" lon="2.41119">
        <ele>54</ele>
        <time>2013-07-18T20:29:28Z</time>
      </trkpt>
      <trkpt lat="48.85167" lon="2.41114">
        <ele>58</ele>
        <time>2013-07-18T20:29:59Z</time>
      </trkpt>
      <trkpt lat="48.85172" lon="2.41112">
        <ele>60</ele>
        <time>2013-07-18T20:30:03Z</time>
      </trkpt>
      <trkpt lat="48.85179" lon="2.41113">
        <ele>63</ele>
        <time>2013-07-18T20:30:06Z</time>
      </trkpt>
      <trkpt lat="48.85188" lon="2.41112">
        <ele>59</ele>
        <time>2013-07-18T20:30:09Z</time>
      </trkpt>
      <trkpt lat="48.85195" lon="2.4111">
        <ele>64</ele>
        <time>2013-07-18T20:30:12Z</time>
      </trkpt>
      <trkpt lat="48.85201" lon="2.41107">
        <ele>67</ele>
        <time>2013-07-18T20:30:14Z</time>
      </trkpt>
      <trkpt lat="48.85214" lon="2.41098">
        <ele>68</ele>
        <time>2013-07-18T20:30:19Z</time>
      </trkpt>
      <trkpt lat="48.85231" lon="2.41094">
        <ele>79</ele>
        <time>2013-07-18T20:30:26Z</time>
      </trkpt>
      <trkpt lat="48.85255" lon="2.41097">
        <ele>62</ele>
        <time>2013-07-18T20:30:32Z</time>
      </trkpt>
      <trkpt lat="48.85275" lon="2.41101">
        <ele>56</ele>
        <time>2013-07-18T20:30:37Z</time>
      </trkpt>
      <trkpt lat="48.85281" lon="2.41097">
        <ele>60</ele>
        <time>2013-07-18T20:30:42Z</time>
      </trkpt>
      <trkpt lat="48.85297" lon="2.41094">
        <ele>68</ele>
        <time>2013-07-18T20:30:51Z</time>
      </trkpt>
      <trkpt lat="48.85328" lon="2.41084">
        <ele>80</ele>
        <time>2013-07-18T20:31:09Z</time>
      </trkpt>
      <trkpt lat="48.85324" lon="2.41078">
        <ele>85</ele>
        <time>2013-07-18T20:31:12Z</time>
      </trkpt>
      <trkpt lat="48.85319" lon="2.41073">
        <ele>88</ele>
        <time>2013-07-18T20:31:14Z</time>
      </trkpt>
      <trkpt lat="48.85312" lon="2.41076">
        <ele>78</ele>
        <time>2013-07-18T20:31:25Z</time>
      </trkpt>
      <trkpt lat="48.85333" lon="2.4109">
        <ele>59</ele>
        <time>2013-07-18T20:32:16Z</time>
      </trkpt>
      <trkpt lat="48.85342" lon="2.41093">
        <ele>70</ele>
        <time>2013-07-18T20:32:24Z</time>
      </trkpt>
      <trkpt lat="48.85348" lon="2.41101">
        <ele>73</ele>
        <time>2013-07-18T20:32:29Z</time>
      </trkpt>
      <trkpt lat="48.85354" lon="2.41102">
        <ele>75</ele>
        <time>2013-07-18T20:32:31Z</time>
      </trkpt>
      <trkpt lat="48.85361" lon="2.41101">
        <ele>71</ele>
        <time>2013-07-18T20:32:36Z</time>
      </trkpt>
      <trkpt lat="48.85367" lon="2.41098">
        <ele>75</ele>
        <time>2013-07-18T20:32:40Z</time>
      </trkpt>
      <trkpt lat="48.85371" lon="2.41092">
        <ele>78</ele>
        <time>2013-07-18T20:32:43Z</time>
      </trkpt>
      <trkpt lat="48.85374" lon="2.41085">
        <ele>78</ele>
        <time>2013-07-18T20:32:46Z</time>
      </trkpt>
      <trkpt lat="48.85378" lon="2.41079">
        <ele>74</ele>
        <time>2013-07-18T20:32:49Z</time>
      </trkpt>
      <trkpt lat="48.85392" lon="2.41075">
        <ele>73</ele>
        <time>2013-07-18T20:32:56Z</time>
      </trkpt>
      <trkpt lat="48.854" lon="2.41073">
        <ele>84</ele>
        <time>2013-07-18T20:33:00Z</time>
      </trkpt>
      <trkpt lat="48.85406" lon="2.41071">
        <ele>74</ele>
        <time>2013-07-18T20:33:02Z</time>
      </trkpt>
      <trkpt lat="48.85418" lon="2.41064">
        <ele>69</ele>
        <time>2013-07-18T20:33:06Z</time>
      </trkpt>
      <trkpt lat="48.85433" lon="2.4106">
        <ele>65</ele>
        <time>2013-07-18T20:33:11Z</time>
      </trkpt>
      <trkpt lat="48.85438" lon="2.41059">
        <ele>65</ele>
        <time>2013-07-18T20:33:13Z</time>
      </trkpt>
      <trkpt lat="48.85457" lon="2.41059">
        <ele>67</ele>
        <time>2013-07-18T20:33:19Z</time>
      </trkpt>
      <trkpt lat="48.85463" lon="2.4106">
        <ele>67</ele>
        <time>2013-07-18T20:33:21Z</time>
      </trkpt>
      <trkpt lat="48.8547" lon="2.41059">
        <ele>64</ele>
        <time>2013-07-18T20:33:23Z</time>
      </trkpt>
      <trkpt lat="48.8549" lon="2.41059">
        <ele>70</ele>
        <time>2013-07-18T20:33:29Z</time>
      </trkpt>
      <trkpt lat="48.85512" lon="2.41054">
        <ele>71</ele>
        <time>2013-07-18T20:33:36Z</time>
      </trkpt>
      <trkpt lat="48.8554" lon="2.41049">
        <ele>80</ele>
        <time>2013-07-18T20:33:46Z</time>
      </trkpt>
      <trkpt lat="48.85545" lon="2.41051">
        <ele>74</ele>
        <time>2013-07-18T20:33:47Z</time>
      </trkpt>
      <trkpt lat="48.85558" lon="2.41054">
        <ele>65</ele>
        <time>2013-07-18T20:33:50Z</time>
      </trkpt>
      <trkpt lat="48.85565" lon="2.41052">
        <ele>61</ele>
        <time>2013-07-18T20:33:52Z</time>
      </trkpt>
      <trkpt lat="48.85571" lon="2.41051">
        <ele>61</ele>
        <time>2013-07-18T20:33:54Z</time>
      </trkpt>
      <trkpt lat="48.85576" lon="2.4105">
        <ele>63</ele>
        <time>2013-07-18T20:33:56Z</time>
      </trkpt>
      <trkpt lat="48.85586" lon="2.4105">
        <ele>64</ele>
        <time>2013-07-18T20:34:00Z</time>
      </trkpt>
      <trkpt lat="48.85592" lon="2.41049">
        <ele>66</ele>
        <time>2013-07-18T20:34:03Z</time>
      </trkpt>
      <trkpt lat="48.85598" lon="2.41044">
        <ele>63</ele>
        <time>2013-07-18T20:34:06Z</time>
      </trkpt>
      <trkpt lat="48.85603" lon="2.41039">
        <ele>71</ele>
        <time>2013-07-18T20:34:10Z</time>
      </trkpt>
      <trkpt lat="48.85608" lon="2.41035">
        <ele>65</ele>
        <time>2013-07-18T20:34:25Z</time>
      </trkpt>
      <trkpt lat="48.85616" lon="2.41033">
        <ele>67</ele>
        <time>2013-07-18T20:34:28Z</time>
      </trkpt>
      <trkpt lat="48.85628" lon="2.41032">
        <ele>66</ele>
        <time>2013-07-18T20:34:31Z</time>
      </trkpt>
      <trkpt lat="48.85636" lon="2.41029">
        <ele>67</ele>
        <time>2013-07-18T20:34:33Z</time>
      </trkpt>
      <trkpt lat="48.85643" lon="2.41029">
        <ele>65</ele>
        <time>2013-07-18T20:34:35Z</time>
      </trkpt>
      <trkpt lat="48.85648" lon="2.41027">
        <ele>66</ele>
        <time>2013-07-18T20:34:37Z</time>
      </trkpt>
      <trkpt lat="48.85659" lon="2.41022">
        <ele>66</ele>
        <time>2013-07-18T20:34:42Z</time>
      </trkpt>
      <trkpt lat="48.85666" lon="2.4102">
        <ele>60</ele>
        <time>2013-07-18T20:34:45Z</time>
      </trkpt>
      <trkpt lat="48.85671" lon="2.4102">
        <ele>69</ele>
        <time>2013-07-18T20:34:47Z</time>
      </trkpt>
      <trkpt lat="48.85686" lon="2.41013">
        <ele>73</ele>
        <time>2013-07-18T20:34:53Z</time>
      </trkpt>
      <trkpt lat="48.85689" lon="2.41014">
        <ele>69</ele>
        <time>2013-07-18T20:34:55Z</time>
      </trkpt>
      <trkpt lat="48.85695" lon="2.41017">
        <ele>70</ele>
        <time>2013-07-18T20:34:57Z</time>
      </trkpt>
      <trkpt lat="48.85701" lon="2.41017">
        <ele>72</ele>
        <time>2013-07-18T20:34:59Z</time>
      </trkpt>
      <trkpt lat="48.85711" lon="2.41015">
        <ele>70</ele>
        <time>2013-07-18T20:35:02Z</time>
      </trkpt>
      <trkpt lat="48.85731" lon="2.41014">
        <ele>82</ele>
        <time>2013-07-18T20:35:08Z</time>
      </trkpt>
      <trkpt lat="48.85739" lon="2.41015">
        <ele>77</ele>
        <time>2013-07-18T20:35:10Z</time>
      </trkpt>
      <trkpt lat="48.85755" lon="2.41014">
        <ele>76</ele>
        <time>2013-07-18T20:35:15Z</time>
      </trkpt>
      <trkpt lat="48.85775" lon="2.4101">
        <ele>75</ele>
        <time>2013-07-18T20:35:22Z</time>
      </trkpt>
      <trkpt lat="48.85783" lon="2.41011">
        <ele>76</ele>
        <time>2013-07-18T20:35:24Z</time>
      </trkpt>
      <trkpt lat="48.85809" lon="2.41009">
        <ele>73</ele>
        <time>2013-07-18T20:35:31Z</time>
      </trkpt>
      <trkpt lat="48.85816" lon="2.41005">
        <ele>70</ele>
        <time>2013-07-18T20:35:33Z</time>
      </trkpt>
      <trkpt lat="48.85822" lon="2.41005">
        <ele>75</ele>
        <time>2013-07-18T20:35:35Z</time>
      </trkpt>
      <trkpt lat="48.85827" lon="2.41005">
        <ele>73</ele>
        <time>2013-07-18T20:35:37Z</time>
      </trkpt>
      <trkpt lat="48.85834" lon="2.41002">
        <ele>71</ele>
        <time>2013-07-18T20:35:39Z</time>
      </trkpt>
      <trkpt lat="48.85854" lon="2.40994">
        <ele>75</ele>
        <time>2013-07-18T20:35:47Z</time>
      </trkpt>
      <trkpt lat="48.8586" lon="2.40998">
        <ele>76</ele>
        <time>2013-07-18T20:35:49Z</time>
      </trkpt>
      <trkpt lat="48.85866" lon="2.41">
        <ele>76</ele>
        <time>2013-07-18T20:35:51Z</time>
      </trkpt>
      <trkpt lat="48.85872" lon="2.41">
        <ele>82</ele>
        <time>2013-07-18T20:35:53Z</time>
      </trkpt>
      <trkpt lat="48.85877" lon="2.40992">
        <ele>86</ele>
        <time>2013-07-18T20:35:57Z</time>
      </trkpt>
      <trkpt lat="48.85883" lon="2.40989">
        <ele>83</ele>
        <time>2013-07-18T20:36:00Z</time>
      </trkpt>
      <trkpt lat="48.85891" lon="2.40987">
        <ele>80</ele>
        <time>2013-07-18T20:36:03Z</time>
      </trkpt>
      <trkpt lat="48.85913" lon="2.40983">
        <ele>78</ele>
        <time>2013-07-18T20:36:10Z</time>
      </trkpt>
      <trkpt lat="48.8592" lon="2.40985">
        <ele>78</ele>
        <time>2013-07-18T20:36:12Z</time>
      </trkpt>
      <trkpt lat="48.8593" lon="2.40986">
        <ele>77</ele>
        <time>2013-07-18T20:36:15Z</time>
      </trkpt>
      <trkpt lat="48.8594" lon="2.40985">
        <ele>78</ele>
        <time>2013-07-18T20:36:19Z</time>
      </trkpt>
      <trkpt lat="48.85954" lon="2.40974">
        <ele>81</ele>
        <time>2013-07-18T20:36:26Z</time>
      </trkpt>
      <trkpt lat="48.85955" lon="2.40972">
        <ele>78</ele>
        <time>2013-07-18T20:36:27Z</time>
      </trkpt>
      <trkpt lat="48.85958" lon="2.40964">
        <ele>79</ele>
        <time>2013-07-18T20:36:30Z</time>
      </trkpt>
      <trkpt lat="48.85962" lon="2.40959">
        <ele>76</ele>
        <time>2013-07-18T20:36:34Z</time>
      </trkpt>
      <trkpt lat="48.85967" lon="2.40961">
        <ele>79</ele>
        <time>2013-07-18T20:36:35Z</time>
      </trkpt>
      <trkpt lat="48.85973" lon="2.40964">
        <ele>78</ele>
        <time>2013-07-18T20:36:36Z</time>
      </trkpt>
      <trkpt lat="48.85993" lon="2.40972">
        <ele>68</ele>
        <time>2013-07-18T20:36:38Z</time>
      </trkpt>
      <trkpt lat="48.86" lon="2.40973">
        <ele>65</ele>
        <time>2013-07-18T20:36:39Z</time>
      </trkpt>
      <trkpt lat="48.86013" lon="2.40973">
        <ele>62</ele>
        <time>2013-07-18T20:36:42Z</time>
      </trkpt>
      <trkpt lat="48.8602" lon="2.40971">
        <ele>63</ele>
        <time>2013-07-18T20:36:44Z</time>
      </trkpt>
      <trkpt lat="48.86031" lon="2.4097">
        <ele>71</ele>
        <time>2013-07-18T20:36:47Z</time>
      </trkpt>
      <trkpt lat="48.8604" lon="2.40966">
        <ele>73</ele>
        <time>2013-07-18T20:36:51Z</time>
      </trkpt>
      <trkpt lat="48.86046" lon="2.40966">
        <ele>76</ele>
        <time>2013-07-18T20:36:53Z</time>
      </trkpt>
      <trkpt lat="48.86053" lon="2.40967">
        <ele>69</ele>
        <time>2013-07-18T20:36:56Z</time>
      </trkpt>
      <trkpt lat="48.8606" lon="2.40972">
        <ele>68</ele>
        <time>2013-07-18T20:37:00Z</time>
      </trkpt>
      <trkpt lat="48.86067" lon="2.40971">
        <ele>69</ele>
        <time>2013-07-18T20:37:03Z</time>
      </trkpt>
      <trkpt lat="48.86079" lon="2.40968">
        <ele>71</ele>
        <time>2013-07-18T20:37:08Z</time>
      </trkpt>
      <trkpt lat="48.86084" lon="2.40966">
        <ele>68</ele>
        <time>2013-07-18T20:37:10Z</time>
      </trkpt>
      <trkpt lat="48.86089" lon="2.40966">
        <ele>72</ele>
        <time>2013-07-18T20:37:12Z</time>
      </trkpt>
      <trkpt lat="48.86109" lon="2.40964">
        <ele>71</ele>
        <time>2013-07-18T20:37:18Z</time>
      </trkpt>
      <trkpt lat="48.86115" lon="2.40963">
        <ele>75</ele>
        <time>2013-07-18T20:37:20Z</time>
      </trkpt>
      <trkpt lat="48.86176" lon="2.4095">
        <ele>78</ele>
        <time>2013-07-18T20:37:39Z</time>
      </trkpt>
      <trkpt lat="48.86182" lon="2.40946">
        <ele>71</ele>
        <time>2013-07-18T20:37:41Z</time>
      </trkpt>
      <trkpt lat="48.86192" lon="2.40941">
        <ele>79</ele>
        <time>2013-07-18T20:37:44Z</time>
      </trkpt>
      <trkpt lat="48.86211" lon="2.40933">
        <ele>75</ele>
        <time>2013-07-18T20:37:49Z</time>
      </trkpt>
      <trkpt lat="48.86218" lon="2.40933">
        <ele>76</ele>
        <time>2013-07-18T20:37:51Z</time>
      </trkpt>
      <trkpt lat="48.86225" lon="2.40931">
        <ele>73</ele>
        <time>2013-07-18T20:37:54Z</time>
      </trkpt>
      <trkpt lat="48.86244" lon="2.40926">
        <ele>74</ele>
        <time>2013-07-18T20:38:04Z</time>
      </trkpt>
      <trkpt lat="48.86249" lon="2.40923">
        <ele>74</ele>
        <time>2013-07-18T20:38:06Z</time>
      </trkpt>
      <trkpt lat="48.86269" lon="2.40914">
        <ele>81</ele>
        <time>2013-07-18T20:38:16Z</time>
      </trkpt>
      <trkpt lat="48.86277" lon="2.40912">
        <ele>79</ele>
        <time>2013-07-18T20:38:19Z</time>
      </trkpt>
      <trkpt lat="48.86291" lon="2.40908">
        <ele>78</ele>
        <time>2013-07-18T20:38:27Z</time>
      </trkpt>
      <trkpt lat="48.86299" lon="2.40909">
        <ele>79</ele>
        <time>2013-07-18T20:38:29Z</time>
      </trkpt>
      <trkpt lat="48.8631" lon="2.40905">
        <ele>74</ele>
        <time>2013-07-18T20:38:33Z</time>
      </trkpt>
      <trkpt lat="48.86316" lon="2.40904">
        <ele>73</ele>
        <time>2013-07-18T20:38:37Z</time>
      </trkpt>
      <trkpt lat="48.86322" lon="2.40909">
        <ele>71</ele>
        <time>2013-07-18T20:38:42Z</time>
      </trkpt>
      <trkpt lat="48.86332" lon="2.40913">
        <ele>69</ele>
        <time>2013-07-18T20:38:46Z</time>
      </trkpt>
      <trkpt lat="48.86337" lon="2.40915">
        <ele>68</ele>
        <time>2013-07-18T20:38:48Z</time>
      </trkpt>
      <trkpt lat="48.86345" lon="2.40915">
        <ele>71</ele>
        <time>2013-07-18T20:38:51Z</time>
      </trkpt>
      <trkpt lat="48.8635" lon="2.40911">
        <ele>73</ele>
        <time>2013-07-18T20:38:53Z</time>
      </trkpt>
      <trkpt lat="48.86359" lon="2.40908">
        <ele>68</ele>
        <time>2013-07-18T20:38:56Z</time>
      </trkpt>
      <trkpt lat="48.86363" lon="2.40906">
        <ele>65</ele>
        <time>2013-07-18T20:38:58Z</time>
      </trkpt>
      <trkpt lat="48.86373" lon="2.40902">
        <ele>71</ele>
        <time>2013-07-18T20:39:02Z</time>
      </trkpt>
      <trkpt lat="48.86378" lon="2.40903">
        <ele>75</ele>
        <time>2013-07-18T20:39:04Z</time>
      </trkpt>
      <trkpt lat="48.86389" lon="2.40903">
        <ele>76</ele>
        <time>2013-07-18T20:39:08Z</time>
      </trkpt>
      <trkpt lat="48.86395" lon="2.40901">
        <ele>73</ele>
        <time>2013-07-18T20:39:11Z</time>
      </trkpt>
      <trkpt lat="48.86401" lon="2.40901">
        <ele>75</ele>
        <time>2013-07-18T20:39:14Z</time>
      </trkpt>
      <trkpt lat="48.86408" lon="2.40901">
        <ele>73</ele>
        <time>2013-07-18T20:39:17Z</time>
      </trkpt>
      <trkpt lat="48.86414" lon="2.40901">
        <ele>71</ele>
        <time>2013-07-18T20:39:20Z</time>
      </trkpt>
      <trkpt lat="48.86419" lon="2.40904">
        <ele>77</ele>
        <time>2013-07-18T20:39:24Z</time>
      </trkpt>
      <trkpt lat="48.86423" lon="2.4091">
        <ele>73</ele>
        <time>2013-07-18T20:39:29Z</time>
      </trkpt>
      <trkpt lat="48.86424" lon="2.40914">
        <ele>69</ele>
        <time>2013-07-18T20:39:31Z</time>
      </trkpt>
      <trkpt lat="48.86429" lon="2.40918">
        <ele>72</ele>
        <time>2013-07-18T20:39:41Z</time>
      </trkpt>
      <trkpt lat="48.86431" lon="2.40911">
        <ele>86</ele>
        <time>2013-07-18T20:40:12Z</time>
      </trkpt>
      <trkpt lat="48.86434" lon="2.40889">
        <ele>82</ele>
        <time>2013-07-18T20:40:31Z</time>
      </trkpt>
      <trkpt lat="48.86436" lon="2.40901">
        <ele>80</ele>
        <time>2013-07-18T20:41:33Z</time>
      </trkpt>
      <trkpt lat="48.8644" lon="2.40909">
        <ele>123</ele>
        <time>2013-07-18T20:42:44Z</time>
      </trkpt>
      <trkpt lat="48.86441" lon="2.40916">
        <ele>114</ele>
        <time>2013-07-18T20:42:59Z</time>
      </trkpt>
      <trkpt lat="48.86436" lon="2.40916">
        <ele>103</ele>
        <time>2013-07-18T20:43:55Z</time>
      </trkpt>
      <trkpt lat="48.86433" lon="2.40915">
        <ele>102</ele>
        <time>2013-07-18T20:43:56Z</time>
      </trkpt>
      <trkpt lat="48.86438" lon="2.4092">
        <ele>97</ele>
        <time>2013-07-18T20:44:02Z</time>
      </trkpt>
      <trkpt lat="48.86445" lon="2.40924">
        <ele>88</ele>
        <time>2013-07-18T20:44:05Z</time>
      </trkpt>
      <trkpt lat="48.86447" lon="2.40927">
        <ele>74</ele>
        <time>2013-07-18T20:44:14Z</time>
      </trkpt>
      <trkpt lat="48.86449" lon="2.40931">
        <ele>79</ele>
        <time>2013-07-18T20:44:16Z</time>
      </trkpt>
      <trkpt lat="48.86452" lon="2.40932">
        <ele>81</ele>
        <time>2013-07-18T20:44:21Z</time>
      </trkpt>
      <trkpt lat="48.86458" lon="2.40929">
        <ele>81</ele>
        <time>2013-07-18T20:44:24Z</time>
      </trkpt>
      <trkpt lat="48.86468" lon="2.40923">
        <ele>91</ele>
        <time>2013-07-18T20:44:29Z</time>
      </trkpt>
      <trkpt lat="48.86473" lon="2.40919">
        <ele>91</ele>
        <time>2013-07-18T20:44:32Z</time>
      </trkpt>
      <trkpt lat="48.86485" lon="2.40901">
        <ele>93</ele>
        <time>2013-07-18T20:44:46Z</time>
      </trkpt>
      <trkpt lat="48.8649" lon="2.409">
        <ele>86</ele>
        <time>2013-07-18T20:44:59Z</time>
      </trkpt>
      <trkpt lat="48.86497" lon="2.40898">
        <ele>94</ele>
        <time>2013-07-18T20:45:02Z</time>
      </trkpt>
      <trkpt lat="48.86506" lon="2.40897">
        <ele>87</ele>
        <time>2013-07-18T20:45:08Z</time>
      </trkpt>
      <trkpt lat="48.86511" lon="2.40901">
        <ele>85</ele>
        <time>2013-07-18T20:45:13Z</time>
      </trkpt>
      <trkpt lat="48.86516" lon="2.409">
        <ele>86</ele>
        <time>2013-07-18T20:45:17Z</time>
      </trkpt>
      <trkpt lat="48.86522" lon="2.409">
        <ele>83</ele>
        <time>2013-07-18T20:45:20Z</time>
      </trkpt>
      <trkpt lat="48.86527" lon="2.40901">
        <ele>87</ele>
        <time>2013-07-18T20:45:22Z</time>
      </trkpt>
      <trkpt lat="48.86532" lon="2.40901">
        <ele>90</ele>
        <time>2013-07-18T20:45:24Z</time>
      </trkpt>
      <trkpt lat="48.86543" lon="2.40902">
        <ele>89</ele>
        <time>2013-07-18T20:45:28Z</time>
      </trkpt>
      <trkpt lat="48.86547" lon="2.40902">
        <ele>91</ele>
        <time>2013-07-18T20:45:29Z</time>
      </trkpt>
      <trkpt lat="48.8655" lon="2.40902">
        <ele>90</ele>
        <time>2013-07-18T20:45:30Z</time>
      </trkpt>
      <trkpt lat="48.86553" lon="2.40902">
        <ele>88</ele>
        <time>2013-07-18T20:45:31Z</time>
      </trkpt>
      <trkpt lat="48.86567" lon="2.40901">
        <ele>83</ele>
        <time>2013-07-18T20:45:36Z</time>
      </trkpt>
      <trkpt lat="48.86572" lon="2.40903">
        <ele>82</ele>
        <time>2013-07-18T20:45:39Z</time>
      </trkpt>
      <trkpt lat="48.86579" lon="2.40904">
        <ele>82</ele>
        <time>2013-07-18T20:45:42Z</time>
      </trkpt>
      <trkpt lat="48.86585" lon="2.40906">
        <ele>83</ele>
        <time>2013-07-18T20:45:45Z</time>
      </trkpt>
      <trkpt lat="48.86591" lon="2.40904">
        <ele>84</ele>
        <time>2013-07-18T20:46:05Z</time>
      </trkpt>
      <trkpt lat="48.86596" lon="2.40903">
        <ele>87</ele>
        <time>2013-07-18T20:46:07Z</time>
      </trkpt>
      <trkpt lat="48.86604" lon="2.40906">
        <ele>91</ele>
        <time>2013-07-18T20:46:10Z</time>
      </trkpt>
      <trkpt lat="48.86611" lon="2.40907">
        <ele>92</ele>
        <time>2013-07-18T20:46:14Z</time>
      </trkpt>
      <trkpt lat="48.86617" lon="2.4091">
        <ele>93</ele>
        <time>2013-07-18T20:46:17Z</time>
      </trkpt>
      <trkpt lat="48.86623" lon="2.4091">
        <ele>90</ele>
        <time>2013-07-18T20:46:21Z</time>
      </trkpt>
      <trkpt lat="48.86642" lon="2.40911">
        <ele>89</ele>
        <time>2013-07-18T20:46:30Z</time>
      </trkpt>
      <trkpt lat="48.86648" lon="2.4091">
        <ele>94</ele>
        <time>2013-07-18T20:46:42Z</time>
      </trkpt>
      <trkpt lat="48.86653" lon="2.40911">
        <ele>92</ele>
        <time>2013-07-18T20:46:45Z</time>
      </trkpt>
      <trkpt lat="48.86665" lon="2.40916">
        <ele>90</ele>
        <time>2013-07-18T20:46:56Z</time>
      </trkpt>
      <trkpt lat="48.8667" lon="2.40916">
        <ele>89</ele>
        <time>2013-07-18T20:46:58Z</time>
      </trkpt>
      <trkpt lat="48.86677" lon="2.40918">
        <ele>88</ele>
        <time>2013-07-18T20:47:03Z</time>
      </trkpt>
      <trkpt lat="48.8668" lon="2.40925">
        <ele>83</ele>
        <time>2013-07-18T20:47:07Z</time>
      </trkpt>
      <trkpt lat="48.86687" lon="2.40929">
        <ele>85</ele>
        <time>2013-07-18T20:47:11Z</time>
      </trkpt>
      <trkpt lat="48.86693" lon="2.40926">
        <ele>91</ele>
        <time>2013-07-18T20:47:17Z</time>
      </trkpt>
      <trkpt lat="48.86699" lon="2.40926">
        <ele>89</ele>
        <time>2013-07-18T20:47:19Z</time>
      </trkpt>
      <trkpt lat="48.86704" lon="2.40923">
        <ele>95</ele>
        <time>2013-07-18T20:47:22Z</time>
      </trkpt>
      <trkpt lat="48.86713" lon="2.40915">
        <ele>97</ele>
        <time>2013-07-18T20:47:46Z</time>
      </trkpt>
      <trkpt lat="48.86715" lon="2.40906">
        <ele>96</ele>
        <time>2013-07-18T20:47:49Z</time>
      </trkpt>
      <trkpt lat="48.86713" lon="2.40896">
        <ele>104</ele>
        <time>2013-07-18T20:47:52Z</time>
      </trkpt>
      <trkpt lat="48.86719" lon="2.40883">
        <ele>93</ele>
        <time>2013-07-18T20:47:59Z</time>
      </trkpt>
      <trkpt lat="48.86735" lon="2.4088">
        <ele>100</ele>
        <time>2013-07-18T20:48:11Z</time>
      </trkpt>
      <trkpt lat="48.86741" lon="2.40881">
        <ele>104</ele>
        <time>2013-07-18T20:48:14Z</time>
      </trkpt>
      <trkpt lat="48.86745" lon="2.40885">
        <ele>104</ele>
        <time>2013-07-18T20:48:16Z</time>
      </trkpt>
      <trkpt lat="48.86751" lon="2.40887">
        <ele>103</ele>
        <time>2013-07-18T20:48:19Z</time>
      </trkpt>
      <trkpt lat="48.86765" lon="2.40883">
        <ele>104</ele>
        <time>2013-07-18T20:48:25Z</time>
      </trkpt>
      <trkpt lat="48.86779" lon="2.40881">
        <ele>98</ele>
        <time>2013-07-18T20:48:32Z</time>
      </trkpt>
      <trkpt lat="48.86781" lon="2.4088">
        <ele>94</ele>
        <time>2013-07-18T20:48:33Z</time>
      </trkpt>
      <trkpt lat="48.86787" lon="2.40878">
        <ele>92</ele>
        <time>2013-07-18T20:48:37Z</time>
      </trkpt>
      <trkpt lat="48.8679" lon="2.40885">
        <ele>97</ele>
        <time>2013-07-18T20:48:56Z</time>
      </trkpt>
      <trkpt lat="48.86796" lon="2.40886">
        <ele>99</ele>
        <time>2013-07-18T20:48:59Z</time>
      </trkpt>
      <trkpt lat="48.86802" lon="2.40891">
        <ele>102</ele>
        <time>2013-07-18T20:49:02Z</time>
      </trkpt>
      <trkpt lat="48.86817" lon="2.40892">
        <ele>104</ele>
        <time>2013-07-18T20:49:09Z</time>
      </trkpt>
      <trkpt lat="48.86831" lon="2.40891">
        <ele>99</ele>
        <time>2013-07-18T20:49:16Z</time>
      </trkpt>
      <trkpt lat="48.86857" lon="2.40885">
        <ele>113</ele>
        <time>2013-07-18T20:49:27Z</time>
      </trkpt>
      <trkpt lat="48.86864" lon="2.40886">
        <ele>118</ele>
        <time>2013-07-18T20:49:31Z</time>
      </trkpt>
      <trkpt lat="48.8687" lon="2.40886">
        <ele>105</ele>
        <time>2013-07-18T20:49:34Z</time>
      </trkpt>
      <trkpt lat="48.86875" lon="2.40889">
        <ele>90</ele>
        <time>2013-07-18T20:50:11Z</time>
      </trkpt>
      <trkpt lat="48.8688" lon="2.40881">
        <ele>90</ele>
        <time>2013-07-18T20:50:14Z</time>
      </trkpt>
      <trkpt lat="48.86886" lon="2.40878">
        <ele>92</ele>
        <time>2013-07-18T20:50:17Z</time>
      </trkpt>
      <trkpt lat="48.86893" lon="2.40876">
        <ele>94</ele>
        <time>2013-07-18T20:50:22Z</time>
      </trkpt>
      <trkpt lat="48.869" lon="2.40876">
        <ele>98</ele>
        <time>2013-07-18T20:50:25Z</time>
      </trkpt>
      <trkpt lat="48.86906" lon="2.40875">
        <ele>103</ele>
        <time>2013-07-18T20:50:27Z</time>
      </trkpt>
      <trkpt lat="48.86911" lon="2.40876">
        <ele>105</ele>
        <time>2013-07-18T20:50:29Z</time>
      </trkpt>
      <trkpt lat="48.8694" lon="2.40878">
        <ele>112</ele>
        <time>2013-07-18T20:50:42Z</time>
      </trkpt>
      <trkpt lat="48.86948" lon="2.40881">
        <ele>119</ele>
        <time>2013-07-18T20:50:46Z</time>
      </trkpt>
      <trkpt lat="48.86964" lon="2.40881">
        <ele>113</ele>
        <time>2013-07-18T20:50:52Z</time>
      </trkpt>
      <trkpt lat="48.86986" lon="2.40882">
        <ele>104</ele>
        <time>2013-07-18T20:51:01Z</time>
      </trkpt>
      <trkpt lat="48.87001" lon="2.40878">
        <ele>112</ele>
        <time>2013-07-18T20:51:07Z</time>
      </trkpt>
      <trkpt lat="48.87011" lon="2.40877">
        <ele>112</ele>
        <time>2013-07-18T20:51:11Z</time>
      </trkpt>
      <trkpt lat="48.87031" lon="2.40875">
        <ele>108</ele>
        <time>2013-07-18T20:51:19Z</time>
      </trkpt>
      <trkpt lat="48.87048" lon="2.40874">
        <ele>116</ele>
        <time>2013-07-18T20:51:40Z</time>
      </trkpt>
      <trkpt lat="48.87065" lon="2.40877">
        <ele>125</ele>
        <time>2013-07-18T20:51:48Z</time>
      </trkpt>
      <trkpt lat="48.87082" lon="2.40876">
        <ele>119</ele>
        <time>2013-07-18T20:51:54Z</time>
      </trkpt>
      <trkpt lat="48.87087" lon="2.40875">
        <ele>117</ele>
        <time>2013-07-18T20:51:56Z</time>
      </trkpt>
      <trkpt lat="48.87106" lon="2.40868">
        <ele>118</ele>
        <time>2013-07-18T20:52:04Z</time>
      </trkpt>
      <trkpt lat="48.87121" lon="2.40867">
        <ele>121</ele>
        <time>2013-07-18T20:52:10Z</time>
      </trkpt>
      <trkpt lat="48.87161" lon="2.40859">
        <ele>117</ele>
        <time>2013-07-18T20:52:26Z</time>
      </trkpt>
      <trkpt lat="48.87166" lon="2.40858">
        <ele>116</ele>
        <time>2013-07-18T20:52:28Z</time>
      </trkpt>
      <trkpt lat="48.87176" lon="2.40857">
        <ele>116</ele>
        <time>2013-07-18T20:52:32Z</time>
      </trkpt>
      <trkpt lat="48.87181" lon="2.40854">
        <ele>122</ele>
        <time>2013-07-18T20:52:35Z</time>
      </trkpt>
      <trkpt lat="48.87189" lon="2.40852">
        <ele>122</ele>
        <time>2013-07-18T20:52:38Z</time>
      </trkpt>
      <trkpt lat="48.87205" lon="2.40853">
        <ele>123</ele>
        <time>2013-07-18T20:52:46Z</time>
      </trkpt>
      <trkpt lat="48.87207" lon="2.40853">
        <ele>124</ele>
        <time>2013-07-18T20:52:47Z</time>
      </trkpt>
      <trkpt lat="48.87214" lon="2.40851">
        <ele>126</ele>
        <time>2013-07-18T20:52:50Z</time>
      </trkpt>
      <trkpt lat="48.87229" lon="2.40851">
        <ele>127</ele>
        <time>2013-07-18T20:52:57Z</time>
      </trkpt>
      <trkpt lat="48.87231" lon="2.40851">
        <ele>128</ele>
        <time>2013-07-18T20:52:58Z</time>
      </trkpt>
      <trkpt lat="48.87241" lon="2.4085">
        <ele>129</ele>
        <time>2013-07-18T20:53:03Z</time>
      </trkpt>
      <trkpt lat="48.87248" lon="2.4085">
        <ele>126</ele>
        <time>2013-07-18T20:53:06Z</time>
      </trkpt>
      <trkpt lat="48.87261" lon="2.40849">
        <ele>121</ele>
        <time>2013-07-18T20:53:11Z</time>
      </trkpt>
      <trkpt lat="48.87266" lon="2.40844">
        <ele>119</ele>
        <time>2013-07-18T20:53:14Z</time>
      </trkpt>
      <trkpt lat="48.87272" lon="2.40842">
        <ele>114</ele>
        <time>2013-07-18T20:53:17Z</time>
      </trkpt>
      <trkpt lat="48.87277" lon="2.40843">
        <ele>117</ele>
        <time>2013-07-18T20:53:21Z</time>
      </trkpt>
      <trkpt lat="48.87282" lon="2.40841">
        <ele>122</ele>
        <time>2013-07-18T20:53:24Z</time>
      </trkpt>
      <trkpt lat="48.87287" lon="2.40841">
        <ele>124</ele>
        <time>2013-07-18T20:53:26Z</time>
      </trkpt>
      <trkpt lat="48.87293" lon="2.4084">
        <ele>128</ele>
        <time>2013-07-18T20:53:29Z</time>
      </trkpt>
      <trkpt lat="48.87299" lon="2.40835">
        <ele>128</ele>
        <time>2013-07-18T20:53:32Z</time>
      </trkpt>
      <trkpt lat="48.87294" lon="2.40847">
        <ele>129</ele>
        <time>2013-07-18T20:53:53Z</time>
      </trkpt>
      <trkpt lat="48.87299" lon="2.4085">
        <ele>120</ele>
        <time>2013-07-18T20:53:57Z</time>
      </trkpt>
      <trkpt lat="48.87304" lon="2.4086">
        <ele>122</ele>
        <time>2013-07-18T20:54:18Z</time>
      </trkpt>
      <trkpt lat="48.87308" lon="2.40866">
        <ele>122</ele>
        <time>2013-07-18T20:54:21Z</time>
      </trkpt>
      <trkpt lat="48.87315" lon="2.40868">
        <ele>125</ele>
        <time>2013-07-18T20:54:24Z</time>
      </trkpt>
      <trkpt lat="48.87322" lon="2.40868">
        <ele>124</ele>
        <time>2013-07-18T20:54:27Z</time>
      </trkpt>
      <trkpt lat="48.87339" lon="2.40867">
        <ele>125</ele>
        <time>2013-07-18T20:54:33Z</time>
      </trkpt>
      <trkpt lat="48.87344" lon="2.40865">
        <ele>129</ele>
        <time>2013-07-18T20:54:35Z</time>
      </trkpt>
      <trkpt lat="48.87362" lon="2.40858">
        <ele>128</ele>
        <time>2013-07-18T20:54:41Z</time>
      </trkpt>
      <trkpt lat="48.87371" lon="2.40856">
        <ele>128</ele>
        <time>2013-07-18T20:54:43Z</time>
      </trkpt>
      <trkpt lat="48.87409" lon="2.40846">
        <ele>128</ele>
        <time>2013-07-18T20:54:54Z</time>
      </trkpt>
      <trkpt lat="48.87416" lon="2.40843">
        <ele>127</ele>
        <time>2013-07-18T20:54:56Z</time>
      </trkpt>
      <trkpt lat="48.87436" lon="2.40835">
        <ele>127</ele>
        <time>2013-07-18T20:55:02Z</time>
      </trkpt>
      <trkpt lat="48.8745" lon="2.40831">
        <ele>130</ele>
        <time>2013-07-18T20:55:06Z</time>
      </trkpt>
      <trkpt lat="48.87455" lon="2.40825">
        <ele>122</ele>
        <time>2013-07-18T20:55:09Z</time>
      </trkpt>
      <trkpt lat="48.87462" lon="2.40823">
        <ele>120</ele>
        <time>2013-07-18T20:55:11Z</time>
      </trkpt>
      <trkpt lat="48.87468" lon="2.40818">
        <ele>121</ele>
        <time>2013-07-18T20:55:13Z</time>
      </trkpt>
      <trkpt lat="48.87474" lon="2.40816">
        <ele>125</ele>
        <time>2013-07-18T20:55:15Z</time>
      </trkpt>
      <trkpt lat="48.87531" lon="2.40795">
        <ele>126</ele>
        <time>2013-07-18T20:55:38Z</time>
      </trkpt>
      <trkpt lat="48.87542" lon="2.4079">
        <ele>128</ele>
        <time>2013-07-18T20:55:43Z</time>
      </trkpt>
      <trkpt lat="48.87548" lon="2.40787">
        <ele>125</ele>
        <time>2013-07-18T20:55:46Z</time>
      </trkpt>
      <trkpt lat="48.87567" lon="2.40777">
        <ele>115</ele>
        <time>2013-07-18T20:55:53Z</time>
      </trkpt>
      <trkpt lat="48.87573" lon="2.40777">
        <ele>117</ele>
        <time>2013-07-18T20:55:55Z</time>
      </trkpt>
      <trkpt lat="48.87578" lon="2.40773">
        <ele>115</ele>
        <time>2013-07-18T20:55:57Z</time>
      </trkpt>
      <trkpt lat="48.87584" lon="2.40769">
        <ele>115</ele>
        <time>2013-07-18T20:55:59Z</time>
      </trkpt>
      <trkpt lat="48.87591" lon="2.40768">
        <ele>111</ele>
        <time>2013-07-18T20:56:01Z</time>
      </trkpt>
      <trkpt lat="48.87597" lon="2.40766">
        <ele>117</ele>
        <time>2013-07-18T20:56:03Z</time>
      </trkpt>
      <trkpt lat="48.87616" lon="2.40755">
        <ele>111</ele>
        <time>2013-07-18T20:56:10Z</time>
      </trkpt>
      <trkpt lat="48.87634" lon="2.40749">
        <ele>114</ele>
        <time>2013-07-18T20:56:16Z</time>
      </trkpt>
      <trkpt lat="48.87639" lon="2.40747">
        <ele>115</ele>
        <time>2013-07-18T20:56:19Z</time>
      </trkpt>
      <trkpt lat="48.87642" lon="2.40741">
        <ele>113</ele>
        <time>2013-07-18T20:56:21Z</time>
      </trkpt>
      <trkpt lat="48.87647" lon="2.40737">
        <ele>115</ele>
        <time>2013-07-18T20:56:24Z</time>
      </trkpt>
      <trkpt lat="48.87652" lon="2.40732">
        <ele>118</ele>
        <time>2013-07-18T20:56:26Z</time>
      </trkpt>
      <trkpt lat="48.87654" lon="2.40729">
        <ele>117</ele>
        <time>2013-07-18T20:56:27Z</time>
      </trkpt>
      <trkpt lat="48.87665" lon="2.40719">
        <ele>116</ele>
        <time>2013-07-18T20:56:32Z</time>
      </trkpt>
      <trkpt lat="48.87672" lon="2.40715">
        <ele>116</ele>
        <time>2013-07-18T20:56:34Z</time>
      </trkpt>
      <trkpt lat="48.87691" lon="2.40702">
        <ele>114</ele>
        <time>2013-07-18T20:56:39Z</time>
      </trkpt>
      <trkpt lat="48.87697" lon="2.40696">
        <ele>113</ele>
        <time>2013-07-18T20:56:41Z</time>
      </trkpt>
      <trkpt lat="48.87706" lon="2.40693">
        <ele>119</ele>
        <time>2013-07-18T20:56:43Z</time>
      </trkpt>
      <trkpt lat="48.87715" lon="2.40693">
        <ele>114</ele>
        <time>2013-07-18T20:56:45Z</time>
      </trkpt>
      <trkpt lat="48.87723" lon="2.4069">
        <ele>113</ele>
        <time>2013-07-18T20:56:47Z</time>
      </trkpt>
      <trkpt lat="48.87736" lon="2.40683">
        <ele>111</ele>
        <time>2013-07-18T20:56:51Z</time>
      </trkpt>
      <trkpt lat="48.87747" lon="2.40672">
        <ele>109</ele>
        <time>2013-07-18T20:56:54Z</time>
      </trkpt>
      <trkpt lat="48.8776" lon="2.40663">
        <ele>106</ele>
        <time>2013-07-18T20:56:58Z</time>
      </trkpt>
      <trkpt lat="48.87766" lon="2.40657">
        <ele>106</ele>
        <time>2013-07-18T20:57:00Z</time>
      </trkpt>
      <trkpt lat="48.87779" lon="2.40642">
        <ele>108</ele>
        <time>2013-07-18T20:57:04Z</time>
      </trkpt>
      <trkpt lat="48.87786" lon="2.40632">
        <ele>109</ele>
        <time>2013-07-18T20:57:06Z</time>
      </trkpt>
      <trkpt lat="48.87794" lon="2.40616">
        <ele>110</ele>
        <time>2013-07-18T20:57:09Z</time>
      </trkpt>
      <trkpt lat="48.87795" lon="2.40603">
        <ele>109</ele>
        <time>2013-07-18T20:57:11Z</time>
      </trkpt>
      <trkpt lat="48.87798" lon="2.40591">
        <ele>113</ele>
        <time>2013-07-18T20:57:13Z</time>
      </trkpt>
      <trkpt lat="48.87805" lon="2.40562">
        <ele>106</ele>
        <time>2013-07-18T20:57:18Z</time>
      </trkpt>
      <trkpt lat="48.87806" lon="2.40554">
        <ele>108</ele>
        <time>2013-07-18T20:57:19Z</time>
      </trkpt>
      <trkpt lat="48.87814" lon="2.40492">
        <ele>108</ele>
        <time>2013-07-18T20:57:25Z</time>
      </trkpt>
      <trkpt lat="48.87815" lon="2.40482">
        <ele>110</ele>
        <time>2013-07-18T20:57:26Z</time>
      </trkpt>
      <trkpt lat="48.87817" lon="2.40465">
        <ele>108</ele>
        <time>2013-07-18T20:57:28Z</time>
      </trkpt>
      <trkpt lat="48.87822" lon="2.40429">
        <ele>105</ele>
        <time>2013-07-18T20:57:32Z</time>
      </trkpt>
      <trkpt lat="48.87828" lon="2.40398">
        <ele>100</ele>
        <time>2013-07-18T20:57:35Z</time>
      </trkpt>
      <trkpt lat="48.87848" lon="2.40299">
        <ele>102</ele>
        <time>2013-07-18T20:57:44Z</time>
      </trkpt>
      <trkpt lat="48.8786" lon="2.40237">
        <ele>99</ele>
        <time>2013-07-18T20:57:50Z</time>
      </trkpt>
      <trkpt lat="48.87863" lon="2.40227">
        <ele>96</ele>
        <time>2013-07-18T20:57:51Z</time>
      </trkpt>
      <trkpt lat="48.87868" lon="2.40212">
        <ele>95</ele>
        <time>2013-07-18T20:57:53Z</time>
      </trkpt>
      <trkpt lat="48.87872" lon="2.40205">
        <ele>94</ele>
        <time>2013-07-18T20:57:54Z</time>
      </trkpt>
      <trkpt lat="48.87876" lon="2.40198">
        <ele>96</ele>
        <time>2013-07-18T20:57:55Z</time>
      </trkpt>
      <trkpt lat="48.87882" lon="2.40193">
        <ele>93</ele>
        <time>2013-07-18T20:57:56Z</time>
      </trkpt>
      <trkpt lat="48.87893" lon="2.40184">
        <ele>93</ele>
        <time>2013-07-18T20:57:58Z</time>
      </trkpt>
      <trkpt lat="48.87899" lon="2.40181">
        <ele>95</ele>
        <time>2013-07-18T20:57:59Z</time>
      </trkpt>
      <trkpt lat="48.87905" lon="2.40181">
        <ele>97</ele>
        <time>2013-07-18T20:58:00Z</time>
      </trkpt>
      <trkpt lat="48.87922" lon="2.40179">
        <ele>94</ele>
        <time>2013-07-18T20:58:09Z</time>
      </trkpt>
      <trkpt lat="48.87922" lon="2.40176">
        <ele>92</ele>
        <time>2013-07-18T20:58:50Z</time>
      </trkpt>
      <trkpt lat="48.87923" lon="2.4017">
        <ele>99</ele>
        <time>2013-07-18T20:58:56Z</time>
      </trkpt>
      <trkpt lat="48.87923" lon="2.40165">
        <ele>97</ele>
        <time>2013-07-18T20:58:58Z</time>
      </trkpt>
      <trkpt lat="48.87923" lon="2.4016">
        <ele>95</ele>
        <time>2013-07-18T20:59:02Z</time>
      </trkpt>
      <trkpt lat="48.87924" lon="2.40155">
        <ele>92</ele>
        <time>2013-07-18T20:59:05Z</time>
      </trkpt>
      <trkpt lat="48.87928" lon="2.40152">
        <ele>90</ele>
        <time>2013-07-18T20:59:07Z</time>
      </trkpt>
      <trkpt lat="48.8793" lon="2.4015">
        <ele>92</ele>
        <time>2013-07-18T20:59:08Z</time>
      </trkpt>
      <trkpt lat="48.87935" lon="2.40149">
        <ele>91</ele>
        <time>2013-07-18T20:59:13Z</time>
      </trkpt>
      <trkpt lat="48.87937" lon="2.40147">
        <ele>88</ele>
        <time>2013-07-18T20:59:15Z</time>
      </trkpt>
      <trkpt lat="48.87947" lon="2.4014">
        <ele>92</ele>
        <time>2013-07-18T20:59:21Z</time>
      </trkpt>
      <trkpt lat="48.8795" lon="2.40136">
        <ele>92</ele>
        <time>2013-07-18T20:59:23Z</time>
      </trkpt>
      <trkpt lat="48.87953" lon="2.40133">
        <ele>91</ele>
        <time>2013-07-18T20:59:25Z</time>
      </trkpt>
      <trkpt lat="48.87957" lon="2.40128">
        <ele>88</ele>
        <time>2013-07-18T20:59:28Z</time>
      </trkpt>
      <trkpt lat="48.87961" lon="2.40126">
        <ele>91</ele>
        <time>2013-07-18T20:59:30Z</time>
      </trkpt>
      <trkpt lat="48.87965" lon="2.40123">
        <ele>86</ele>
        <time>2013-07-18T20:59:32Z</time>
      </trkpt>
      <trkpt lat="48.87975" lon="2.40117">
        <ele>87</ele>
        <time>2013-07-18T20:59:36Z</time>
      </trkpt>
      <trkpt lat="48.87981" lon="2.40112">
        <ele>85</ele>
        <time>2013-07-18T20:59:38Z</time>
      </trkpt>
      <trkpt lat="48.87988" lon="2.40109">
        <ele>90</ele>
        <time>2013-07-18T20:59:43Z</time>
      </trkpt>
      <trkpt lat="48.87982" lon="2.40111">
        <ele>92</ele>
        <time>2013-07-18T20:59:47Z</time>
      </trkpt>
      <trkpt lat="48.87977" lon="2.40111">
        <ele>86</ele>
        <time>2013-07-18T20:59:51Z</time>
      </trkpt>
      <trkpt lat="48.87973" lon="2.4012">
        <ele>95</ele>
        <time>2013-07-18T21:00:11Z</time>
      </trkpt>
      <trkpt lat="48.87974" lon="2.40117">
        <ele>96</ele>
        <time>2013-07-18T21:00:13Z</time>
      </trkpt>
      <trkpt lat="48.87974" lon="2.40111">
        <ele>97</ele>
        <time>2013-07-18T21:00:18Z</time>
      </trkpt>
      <trkpt lat="48.87972" lon="2.40104">
        <ele>99</ele>
        <time>2013-07-18T21:00:25Z</time>
      </trkpt>
      <trkpt lat="48.87972" lon="2.40101">
        <ele>101</ele>
        <time>2013-07-18T21:00:30Z</time>
      </trkpt>
      <trkpt lat="48.87974" lon="2.40094">
        <ele>90</ele>
        <time>2013-07-18T21:00:38Z</time>
      </trkpt>
      <trkpt lat="48.87973" lon="2.40088">
        <ele>99</ele>
        <time>2013-07-18T21:00:45Z</time>
      </trkpt>
      <trkpt lat="48.87976" lon="2.40079">
        <ele>90</ele>
        <time>2013-07-18T21:00:51Z</time>
      </trkpt>
      <trkpt lat="48.87981" lon="2.40067">
        <ele>95</ele>
        <time>2013-07-18T21:00:59Z</time>
      </trkpt>
      <trkpt lat="48.87988" lon="2.4006">
        <ele>100</ele>
        <time>2013-07-18T21:01:02Z</time>
      </trkpt>
      <trkpt lat="48.87994" lon="2.40057">
        <ele>100</ele>
        <time>2013-07-18T21:01:04Z</time>
      </trkpt>
      <trkpt lat="48.87999" lon="2.40051">
        <ele>95</ele>
        <time>2013-07-18T21:01:06Z</time>
      </trkpt>
      <trkpt lat="48.88005" lon="2.40047">
        <ele>98</ele>
        <time>2013-07-18T21:01:08Z</time>
      </trkpt>
      <trkpt lat="48.88021" lon="2.40032">
        <ele>92</ele>
        <time>2013-07-18T21:01:15Z</time>
      </trkpt>
      <trkpt lat="48.88035" lon="2.40022">
        <ele>92</ele>
        <time>2013-07-18T21:01:21Z</time>
      </trkpt>
      <trkpt lat="48.8804" lon="2.40017">
        <ele>92</ele>
        <time>2013-07-18T21:01:23Z</time>
      </trkpt>
      <trkpt lat="48.88044" lon="2.40014">
        <ele>96</ele>
        <time>2013-07-18T21:01:25Z</time>
      </trkpt>
      <trkpt lat="48.88054" lon="2.40006">
        <ele>87</ele>
        <time>2013-07-18T21:01:29Z</time>
      </trkpt>
      <trkpt lat="48.88056" lon="2.40003">
        <ele>87</ele>
        <time>2013-07-18T21:01:30Z</time>
      </trkpt>
      <trkpt lat="48.88058" lon="2.4">
        <ele>90</ele>
        <time>2013-07-18T21:01:31Z</time>
      </trkpt>
      <trkpt lat="48.88063" lon="2.39995">
        <ele>91</ele>
        <time>2013-07-18T21:01:34Z</time>
      </trkpt>
      <trkpt lat="48.88068" lon="2.39993">
        <ele>87</ele>
        <time>2013-07-18T21:01:39Z</time>
      </trkpt>
      <trkpt lat="48.88075" lon="2.39994">
        <ele>90</ele>
        <time>2013-07-18T21:01:42Z</time>
      </trkpt>
      <trkpt lat="48.88116" lon="2.39998">
        <ele>95</ele>
        <time>2013-07-18T21:01:51Z</time>
      </trkpt>
      <trkpt lat="48.88124" lon="2.40004">
        <ele>92</ele>
        <time>2013-07-18T21:01:53Z</time>
      </trkpt>
      <trkpt lat="48.88132" lon="2.40011">
        <ele>92</ele>
        <time>2013-07-18T21:01:55Z</time>
      </trkpt>
      <trkpt lat="48.8814" lon="2.4002">
        <ele>93</ele>
        <time>2013-07-18T21:01:57Z</time>
      </trkpt>
      <trkpt lat="48.88156" lon="2.40037">
        <ele>85</ele>
        <time>2013-07-18T21:02:01Z</time>
      </trkpt>
      <trkpt lat="48.88169" lon="2.4005">
        <ele>89</ele>
        <time>2013-07-18T21:02:04Z</time>
      </trkpt>
      <trkpt lat="48.88174" lon="2.40052">
        <ele>90</ele>
        <time>2013-07-18T21:02:05Z</time>
      </trkpt>
      <trkpt lat="48.88195" lon="2.40057">
        <ele>88</ele>
        <time>2013-07-18T21:02:09Z</time>
      </trkpt>
      <trkpt lat="48.88201" lon="2.40056">
        <ele>87</ele>
        <time>2013-07-18T21:02:10Z</time>
      </trkpt>
      <trkpt lat="48.88214" lon="2.40053">
        <ele>87</ele>
        <time>2013-07-18T21:02:12Z</time>
      </trkpt>
      <trkpt lat="48.8822" lon="2.4005">
        <ele>86</ele>
        <time>2013-07-18T21:02:13Z</time>
      </trkpt>
      <trkpt lat="48.88225" lon="2.40046">
        <ele>85</ele>
        <time>2013-07-18T21:02:14Z</time>
      </trkpt>
      <trkpt lat="48.88243" lon="2.40019">
        <ele>78</ele>
        <time>2013-07-18T21:02:18Z</time>
      </trkpt>
      <trkpt lat="48.88247" lon="2.40008">
        <ele>75</ele>
        <time>2013-07-18T21:02:19Z</time>
      </trkpt>
      <trkpt lat="48.88257" lon="2.39982">
        <ele>78</ele>
        <time>2013-07-18T21:02:22Z</time>
      </trkpt>
      <trkpt lat="48.88259" lon="2.39975">
        <ele>79</ele>
        <time>2013-07-18T21:02:23Z</time>
      </trkpt>
      <trkpt lat="48.88264" lon="2.39951">
        <ele>82</ele>
        <time>2013-07-18T21:02:28Z</time>
      </trkpt>
      <trkpt lat="48.88265" lon="2.39934">
        <ele>80</ele>
        <time>2013-07-18T21:02:31Z</time>
      </trkpt>
      <trkpt lat="48.88268" lon="2.39905">
        <ele>79</ele>
        <time>2013-07-18T21:02:38Z</time>
      </trkpt>
      <trkpt lat="48.88269" lon="2.3989">
        <ele>77</ele>
        <time>2013-07-18T21:02:41Z</time>
      </trkpt>
      <trkpt lat="48.88273" lon="2.39857">
        <ele>76</ele>
        <time>2013-07-18T21:02:47Z</time>
      </trkpt>
      <trkpt lat="48.88276" lon="2.39844">
        <ele>80</ele>
        <time>2013-07-18T21:02:49Z</time>
      </trkpt>
      <trkpt lat="48.88281" lon="2.39816">
        <ele>79</ele>
        <time>2013-07-18T21:02:53Z</time>
      </trkpt>
      <trkpt lat="48.88285" lon="2.39802">
        <ele>79</ele>
        <time>2013-07-18T21:02:55Z</time>
      </trkpt>
      <trkpt lat="48.88293" lon="2.39771">
        <ele>79</ele>
        <time>2013-07-18T21:02:59Z</time>
      </trkpt>
      <trkpt lat="48.88297" lon="2.39764">
        <ele>74</ele>
        <time>2013-07-18T21:03:00Z</time>
      </trkpt>
      <trkpt lat="48.88301" lon="2.39757">
        <ele>78</ele>
        <time>2013-07-18T21:03:01Z</time>
      </trkpt>
      <trkpt lat="48.88304" lon="2.3975">
        <ele>76</ele>
        <time>2013-07-18T21:03:02Z</time>
      </trkpt>
      <trkpt lat="48.88313" lon="2.39734">
        <ele>78</ele>
        <time>2013-07-18T21:03:05Z</time>
      </trkpt>
      <trkpt lat="48.88327" lon="2.39717">
        <ele>77</ele>
        <time>2013-07-18T21:03:10Z</time>
      </trkpt>
      <trkpt lat="48.88337" lon="2.39709">
        <ele>73</ele>
        <time>2013-07-18T21:03:13Z</time>
      </trkpt>
      <trkpt lat="48.88343" lon="2.39706">
        <ele>72</ele>
        <time>2013-07-18T21:03:15Z</time>
      </trkpt>
      <trkpt lat="48.88353" lon="2.39698">
        <ele>72</ele>
        <time>2013-07-18T21:03:19Z</time>
      </trkpt>
      <trkpt lat="48.8836" lon="2.39694">
        <ele>75</ele>
        <time>2013-07-18T21:03:21Z</time>
      </trkpt>
      <trkpt lat="48.88369" lon="2.39697">
        <ele>73</ele>
        <time>2013-07-18T21:03:24Z</time>
      </trkpt>
      <trkpt lat="48.88373" lon="2.39692">
        <ele>76</ele>
        <time>2013-07-18T21:03:27Z</time>
      </trkpt>
      <trkpt lat="48.88375" lon="2.39701">
        <ele>82</ele>
        <time>2013-07-18T21:03:54Z</time>
      </trkpt>
      <trkpt lat="48.88374" lon="2.39711">
        <ele>80</ele>
        <time>2013-07-18T21:04:00Z</time>
      </trkpt>
      <trkpt lat="48.88383" lon="2.39717">
        <ele>86</ele>
        <time>2013-07-18T21:04:11Z</time>
      </trkpt>
      <trkpt lat="48.88389" lon="2.39718">
        <ele>88</ele>
        <time>2013-07-18T21:04:13Z</time>
      </trkpt>
      <trkpt lat="48.88396" lon="2.39716">
        <ele>84</ele>
        <time>2013-07-18T21:04:15Z</time>
      </trkpt>
      <trkpt lat="48.88403" lon="2.39713">
        <ele>77</ele>
        <time>2013-07-18T21:04:17Z</time>
      </trkpt>
      <trkpt lat="48.88409" lon="2.39708">
        <ele>76</ele>
        <time>2013-07-18T21:04:19Z</time>
      </trkpt>
      <trkpt lat="48.88424" lon="2.39701">
        <ele>75</ele>
        <time>2013-07-18T21:04:23Z</time>
      </trkpt>
      <trkpt lat="48.8843" lon="2.39699">
        <ele>75</ele>
        <time>2013-07-18T21:04:24Z</time>
      </trkpt>
      <trkpt lat="48.8844" lon="2.39696">
        <ele>70</ele>
        <time>2013-07-18T21:04:26Z</time>
      </trkpt>
      <trkpt lat="48.88447" lon="2.39696">
        <ele>64</ele>
        <time>2013-07-18T21:04:27Z</time>
      </trkpt>
      <trkpt lat="48.8853" lon="2.39687">
        <ele>63</ele>
        <time>2013-07-18T21:04:39Z</time>
      </trkpt>
      <trkpt lat="48.88535" lon="2.39684">
        <ele>63</ele>
        <time>2013-07-18T21:04:40Z</time>
      </trkpt>
      <trkpt lat="48.8854" lon="2.39682">
        <ele>62</ele>
        <time>2013-07-18T21:04:41Z</time>
      </trkpt>
      <trkpt lat="48.88552" lon="2.39679">
        <ele>64</ele>
        <time>2013-07-18T21:04:43Z</time>
      </trkpt>
      <trkpt lat="48.88564" lon="2.39677">
        <ele>65</ele>
        <time>2013-07-18T21:04:45Z</time>
      </trkpt>
      <trkpt lat="48.88601" lon="2.39674">
        <ele>62</ele>
        <time>2013-07-18T21:04:52Z</time>
      </trkpt>
      <trkpt lat="48.88609" lon="2.39679">
        <ele>62</ele>
        <time>2013-07-18T21:04:54Z</time>
      </trkpt>
      <trkpt lat="48.88612" lon="2.39684">
        <ele>62</ele>
        <time>2013-07-18T21:05:04Z</time>
      </trkpt>
      <trkpt lat="48.88608" lon="2.39676">
        <ele>63</ele>
        <time>2013-07-18T21:05:28Z</time>
      </trkpt>
      <trkpt lat="48.88606" lon="2.39671">
        <ele>61</ele>
        <time>2013-07-18T21:05:30Z</time>
      </trkpt>
      <trkpt lat="48.88602" lon="2.39665">
        <ele>63</ele>
        <time>2013-07-18T21:05:35Z</time>
      </trkpt>
      <trkpt lat="48.88599" lon="2.39662">
        <ele>56</ele>
        <time>2013-07-18T21:05:39Z</time>
      </trkpt>
      <trkpt lat="48.88601" lon="2.39649">
        <ele>52</ele>
        <time>2013-07-18T21:05:49Z</time>
      </trkpt>
      <trkpt lat="48.88603" lon="2.39641">
        <ele>53</ele>
        <time>2013-07-18T21:05:55Z</time>
      </trkpt>
      <trkpt lat="48.88609" lon="2.39637">
        <ele>58</ele>
        <time>2013-07-18T21:05:59Z</time>
      </trkpt>
      <trkpt lat="48.88629" lon="2.39627">
        <ele>60</ele>
        <time>2013-07-18T21:06:06Z</time>
      </trkpt>
      <trkpt lat="48.88637" lon="2.39628">
        <ele>60</ele>
        <time>2013-07-18T21:06:08Z</time>
      </trkpt>
      <trkpt lat="48.88642" lon="2.39629">
        <ele>61</ele>
        <time>2013-07-18T21:06:10Z</time>
      </trkpt>
      <trkpt lat="48.88655" lon="2.39632">
        <ele>61</ele>
        <time>2013-07-18T21:06:14Z</time>
      </trkpt>
      <trkpt lat="48.88671" lon="2.39628">
        <ele>59</ele>
        <time>2013-07-18T21:06:18Z</time>
      </trkpt>
      <trkpt lat="48.88734" lon="2.39612">
        <ele>61</ele>
        <time>2013-07-18T21:06:32Z</time>
      </trkpt>
      <trkpt lat="48.88743" lon="2.39609">
        <ele>56</ele>
        <time>2013-07-18T21:06:34Z</time>
      </trkpt>
      <trkpt lat="48.88782" lon="2.39599">
        <ele>60</ele>
        <time>2013-07-18T21:06:43Z</time>
      </trkpt>
      <trkpt lat="48.8879" lon="2.39597">
        <ele>59</ele>
        <time>2013-07-18T21:06:45Z</time>
      </trkpt>
      <trkpt lat="48.88797" lon="2.39594">
        <ele>58</ele>
        <time>2013-07-18T21:06:47Z</time>
      </trkpt>
      <trkpt lat="48.88804" lon="2.39593">
        <ele>57</ele>
        <time>2013-07-18T21:06:49Z</time>
      </trkpt>
      <trkpt lat="48.88809" lon="2.39591">
        <ele>57</ele>
        <time>2013-07-18T21:06:51Z</time>
      </trkpt>
      <trkpt lat="48.88866" lon="2.39566">
        <ele>58</ele>
        <time>2013-07-18T21:07:11Z</time>
      </trkpt>
      <trkpt lat="48.88872" lon="2.39563">
        <ele>56</ele>
        <time>2013-07-18T21:07:13Z</time>
      </trkpt>
      <trkpt lat="48.88889" lon="2.39556">
        <ele>57</ele>
        <time>2013-07-18T21:07:19Z</time>
      </trkpt>
      <trkpt lat="48.88907" lon="2.39548">
        <ele>57</ele>
        <time>2013-07-18T21:07:28Z</time>
      </trkpt>
      <trkpt lat="48.88912" lon="2.39547">
        <ele>58</ele>
        <time>2013-07-18T21:07:30Z</time>
      </trkpt>
      <trkpt lat="48.88918" lon="2.39545">
        <ele>57</ele>
        <time>2013-07-18T21:07:32Z</time>
      </trkpt>
      <trkpt lat="48.88924" lon="2.39542">
        <ele>54</ele>
        <time>2013-07-18T21:07:34Z</time>
      </trkpt>
      <trkpt lat="48.8893" lon="2.39541">
        <ele>55</ele>
        <time>2013-07-18T21:07:36Z</time>
      </trkpt>
      <trkpt lat="48.88947" lon="2.3954">
        <ele>56</ele>
        <time>2013-07-18T21:07:42Z</time>
      </trkpt>
      <trkpt lat="48.88951" lon="2.39545">
        <ele>55</ele>
        <time>2013-07-18T21:07:44Z</time>
      </trkpt>
      <trkpt lat="48.88956" lon="2.39549">
        <ele>56</ele>
        <time>2013-07-18T21:07:46Z</time>
      </trkpt>
      <trkpt lat="48.88958" lon="2.3955">
        <ele>54</ele>
        <time>2013-07-18T21:07:47Z</time>
      </trkpt>
      <trkpt lat="48.88961" lon="2.39552">
        <ele>56</ele>
        <time>2013-07-18T21:07:48Z</time>
      </trkpt>
      <trkpt lat="48.88965" lon="2.39556">
        <ele>52</ele>
        <time>2013-07-18T21:07:50Z</time>
      </trkpt>
      <trkpt lat="48.88972" lon="2.39561">
        <ele>56</ele>
        <time>2013-07-18T21:07:53Z</time>
      </trkpt>
      <trkpt lat="48.88975" lon="2.39561">
        <ele>55</ele>
        <time>2013-07-18T21:07:54Z</time>
      </trkpt>
      <trkpt lat="48.88985" lon="2.39562">
        <ele>56</ele>
        <time>2013-07-18T21:07:59Z</time>
      </trkpt>
      <trkpt lat="48.88986" lon="2.39565">
        <ele>58</ele>
        <time>2013-07-18T21:08:00Z</time>
      </trkpt>
      <trkpt lat="48.8899" lon="2.39581">
        <ele>61</ele>
        <time>2013-07-18T21:08:05Z</time>
      </trkpt>
      <trkpt lat="48.88991" lon="2.39587">
        <ele>61</ele>
        <time>2013-07-18T21:08:07Z</time>
      </trkpt>
      <trkpt lat="48.88991" lon="2.39591">
        <ele>56</ele>
        <time>2013-07-18T21:08:08Z</time>
      </trkpt>
      <trkpt lat="48.88991" lon="2.39595">
        <ele>55</ele>
        <time>2013-07-18T21:08:09Z</time>
      </trkpt>
      <trkpt lat="48.88991" lon="2.39599">
        <ele>55</ele>
        <time>2013-07-18T21:08:10Z</time>
      </trkpt>
      <trkpt lat="48.88994" lon="2.39623">
        <ele>50</ele>
        <time>2013-07-18T21:08:16Z</time>
      </trkpt>
      <trkpt lat="48.88996" lon="2.39631">
        <ele>49</ele>
        <time>2013-07-18T21:08:18Z</time>
      </trkpt>
      <trkpt lat="48.89001" lon="2.39647">
        <ele>50</ele>
        <time>2013-07-18T21:08:21Z</time>
      </trkpt>
      <trkpt lat="48.8901" lon="2.39657">
        <ele>55</ele>
        <time>2013-07-18T21:08:26Z</time>
      </trkpt>
      <trkpt lat="48.89014" lon="2.39662">
        <ele>54</ele>
        <time>2013-07-18T21:08:29Z</time>
      </trkpt>
      <trkpt lat="48.89015" lon="2.3967">
        <ele>55</ele>
        <time>2013-07-18T21:08:32Z</time>
      </trkpt>
      <trkpt lat="48.89016" lon="2.39673">
        <ele>56</ele>
        <time>2013-07-18T21:08:33Z</time>
      </trkpt>
      <trkpt lat="48.8902" lon="2.39688">
        <ele>60</ele>
        <time>2013-07-18T21:08:38Z</time>
      </trkpt>
      <trkpt lat="48.89022" lon="2.3969">
        <ele>57</ele>
        <time>2013-07-18T21:08:39Z</time>
      </trkpt>
      <trkpt lat="48.89024" lon="2.39692">
        <ele>56</ele>
        <time>2013-07-18T21:08:40Z</time>
      </trkpt>
      <trkpt lat="48.89033" lon="2.39695">
        <ele>55</ele>
        <time>2013-07-18T21:08:43Z</time>
      </trkpt>
      <trkpt lat="48.89038" lon="2.39696">
        <ele>53</ele>
        <time>2013-07-18T21:08:45Z</time>
      </trkpt>
      <trkpt lat="48.89034" lon="2.39707">
        <ele>57</ele>
        <time>2013-07-18T21:08:50Z</time>
      </trkpt>
      <trkpt lat="48.8903" lon="2.39716">
        <ele>58</ele>
        <time>2013-07-18T21:08:52Z</time>
      </trkpt>
      <trkpt lat="48.89025" lon="2.3973">
        <ele>53</ele>
        <time>2013-07-18T21:08:55Z</time>
      </trkpt>
      <trkpt lat="48.89026" lon="2.39742">
        <ele>55</ele>
        <time>2013-07-18T21:08:57Z</time>
      </trkpt>
      <trkpt lat="48.89029" lon="2.39766">
        <ele>54</ele>
        <time>2013-07-18T21:09:01Z</time>
      </trkpt>
      <trkpt lat="48.89031" lon="2.39777">
        <ele>53</ele>
        <time>2013-07-18T21:09:03Z</time>
      </trkpt>
      <trkpt lat="48.89036" lon="2.39792">
        <ele>57</ele>
        <time>2013-07-18T21:09:06Z</time>
      </trkpt>
      <trkpt lat="48.89044" lon="2.39818">
        <ele>56</ele>
        <time>2013-07-18T21:09:10Z</time>
      </trkpt>
      <trkpt lat="48.89048" lon="2.3983">
        <ele>58</ele>
        <time>2013-07-18T21:09:12Z</time>
      </trkpt>
      <trkpt lat="48.89055" lon="2.39837">
        <ele>55</ele>
        <time>2013-07-18T21:09:14Z</time>
      </trkpt>
      <trkpt lat="48.89065" lon="2.39845">
        <ele>57</ele>
        <time>2013-07-18T21:09:17Z</time>
      </trkpt>
      <trkpt lat="48.89072" lon="2.39849">
        <ele>56</ele>
        <time>2013-07-18T21:09:19Z</time>
      </trkpt>
      <trkpt lat="48.89084" lon="2.39853">
        <ele>59</ele>
        <time>2013-07-18T21:09:22Z</time>
      </trkpt>
      <trkpt lat="48.89091" lon="2.39852">
        <ele>60</ele>
        <time>2013-07-18T21:09:24Z</time>
      </trkpt>
      <trkpt lat="48.89109" lon="2.39847">
        <ele>59</ele>
        <time>2013-07-18T21:09:28Z</time>
      </trkpt>
      <trkpt lat="48.89131" lon="2.39839">
        <ele>65</ele>
        <time>2013-07-18T21:09:33Z</time>
      </trkpt>
      <trkpt lat="48.89143" lon="2.39834">
        <ele>62</ele>
        <time>2013-07-18T21:09:36Z</time>
      </trkpt>
      <trkpt lat="48.89165" lon="2.39827">
        <ele>61</ele>
        <time>2013-07-18T21:09:41Z</time>
      </trkpt>
      <trkpt lat="48.89184" lon="2.39824">
        <ele>59</ele>
        <time>2013-07-18T21:09:45Z</time>
      </trkpt>
      <trkpt lat="48.8919" lon="2.39824">
        <ele>61</ele>
        <time>2013-07-18T21:09:46Z</time>
      </trkpt>
      <trkpt lat="48.89212" lon="2.39823">
        <ele>56</ele>
        <time>2013-07-18T21:09:50Z</time>
      </trkpt>
      <trkpt lat="48.89221" lon="2.39821">
        <ele>55</ele>
        <time>2013-07-18T21:09:52Z</time>
      </trkpt>
      <trkpt lat="48.8926" lon="2.39811">
        <ele>59</ele>
        <time>2013-07-18T21:10:01Z</time>
      </trkpt>
      <trkpt lat="48.89269" lon="2.39808">
        <ele>59</ele>
        <time>2013-07-18T21:10:03Z</time>
      </trkpt>
      <trkpt lat="48.89287" lon="2.39804">
        <ele>58</ele>
        <time>2013-07-18T21:10:07Z</time>
      </trkpt>
      <trkpt lat="48.89306" lon="2.398">
        <ele>53</ele>
        <time>2013-07-18T21:10:12Z</time>
      </trkpt>
      <trkpt lat="48.89313" lon="2.39798">
        <ele>63</ele>
        <time>2013-07-18T21:10:14Z</time>
      </trkpt>
      <trkpt lat="48.89319" lon="2.39796">
        <ele>67</ele>
        <time>2013-07-18T21:10:16Z</time>
      </trkpt>
      <trkpt lat="48.89325" lon="2.39796">
        <ele>68</ele>
        <time>2013-07-18T21:10:21Z</time>
      </trkpt>
      <trkpt lat="48.89346" lon="2.39798">
        <ele>65</ele>
        <time>2013-07-18T21:10:26Z</time>
      </trkpt>
      <trkpt lat="48.89353" lon="2.39799">
        <ele>60</ele>
        <time>2013-07-18T21:10:28Z</time>
      </trkpt>
      <trkpt lat="48.89358" lon="2.39802">
        <ele>62</ele>
        <time>2013-07-18T21:10:31Z</time>
      </trkpt>
      <trkpt lat="48.89359" lon="2.39803">
        <ele>87</ele>
        <time>2013-07-18T21:10:44Z</time>
      </trkpt>
      <trkpt lat="48.89356" lon="2.3981">
        <ele>95</ele>
        <time>2013-07-18T21:10:55Z</time>
      </trkpt>
      <trkpt lat="48.89361" lon="2.39813">
        <ele>87</ele>
        <time>2013-07-18T21:11:01Z</time>
      </trkpt>
      <trkpt lat="48.89365" lon="2.3982">
        <ele>72</ele>
        <time>2013-07-18T21:11:06Z</time>
      </trkpt>
      <trkpt lat="48.8937" lon="2.39818">
        <ele>67</ele>
        <time>2013-07-18T21:11:12Z</time>
      </trkpt>
      <trkpt lat="48.89406" lon="2.39802">
        <ele>79</ele>
        <time>2013-07-18T21:11:27Z</time>
      </trkpt>
      <trkpt lat="48.89413" lon="2.398">
        <ele>86</ele>
        <time>2013-07-18T21:11:30Z</time>
      </trkpt>
      <trkpt lat="48.89417" lon="2.39796">
        <ele>73</ele>
        <time>2013-07-18T21:11:32Z</time>
      </trkpt>
      <trkpt lat="48.89424" lon="2.39789">
        <ele>70</ele>
        <time>2013-07-18T21:11:35Z</time>
      </trkpt>
      <trkpt lat="48.89429" lon="2.39785">
        <ele>66</ele>
        <time>2013-07-18T21:11:38Z</time>
      </trkpt>
      <trkpt lat="48.89435" lon="2.39783">
        <ele>67</ele>
        <time>2013-07-18T21:11:40Z</time>
      </trkpt>
      <trkpt lat="48.89453" lon="2.39775">
        <ele>61</ele>
        <time>2013-07-18T21:11:46Z</time>
      </trkpt>
      <trkpt lat="48.89459" lon="2.39771">
        <ele>57</ele>
        <time>2013-07-18T21:11:48Z</time>
      </trkpt>
      <trkpt lat="48.89484" lon="2.39754">
        <ele>56</ele>
        <time>2013-07-18T21:11:56Z</time>
      </trkpt>
      <trkpt lat="48.89491" lon="2.39751">
        <ele>54</ele>
        <time>2013-07-18T21:11:58Z</time>
      </trkpt>
      <trkpt lat="48.89494" lon="2.3975">
        <ele>51</ele>
        <time>2013-07-18T21:11:59Z</time>
      </trkpt>
      <trkpt lat="48.89496" lon="2.39749">
        <ele>55</ele>
        <time>2013-07-18T21:12:00Z</time>
      </trkpt>
      <trkpt lat="48.89498" lon="2.39748">
        <ele>56</ele>
        <time>2013-07-18T21:12:01Z</time>
      </trkpt>
      <trkpt lat="48.8952" lon="2.39735">
        <ele>59</ele>
        <time>2013-07-18T21:12:09Z</time>
      </trkpt>
      <trkpt lat="48.89525" lon="2.39733">
        <ele>58</ele>
        <time>2013-07-18T21:12:11Z</time>
      </trkpt>
      <trkpt lat="48.89539" lon="2.39729">
        <ele>54</ele>
        <time>2013-07-18T21:12:17Z</time>
      </trkpt>
      <trkpt lat="48.89542" lon="2.39728">
        <ele>55</ele>
        <time>2013-07-18T21:12:18Z</time>
      </trkpt>
      <trkpt lat="48.89546" lon="2.39726">
        <ele>53</ele>
        <time>2013-07-18T21:12:20Z</time>
      </trkpt>
      <trkpt lat="48.89551" lon="2.39722">
        <ele>59</ele>
        <time>2013-07-18T21:12:22Z</time>
      </trkpt>
      <trkpt lat="48.89553" lon="2.3972">
        <ele>59</ele>
        <time>2013-07-18T21:12:23Z</time>
      </trkpt>
      <trkpt lat="48.89555" lon="2.39718">
        <ele>62</ele>
        <time>2013-07-18T21:12:24Z</time>
      </trkpt>
      <trkpt lat="48.89557" lon="2.39717">
        <ele>59</ele>
        <time>2013-07-18T21:12:25Z</time>
      </trkpt>
      <trkpt lat="48.8957" lon="2.39707">
        <ele>58</ele>
        <time>2013-07-18T21:12:32Z</time>
      </trkpt>
      <trkpt lat="48.89578" lon="2.39706">
        <ele>56</ele>
        <time>2013-07-18T21:12:36Z</time>
      </trkpt>
      <trkpt lat="48.89582" lon="2.39711">
        <ele>54</ele>
        <time>2013-07-18T21:12:39Z</time>
      </trkpt>
      <trkpt lat="48.89581" lon="2.39716">
        <ele>52</ele>
        <time>2013-07-18T21:12:54Z</time>
      </trkpt>
      <trkpt lat="48.8958" lon="2.39719">
        <ele>53</ele>
        <time>2013-07-18T21:12:56Z</time>
      </trkpt>
      <trkpt lat="48.89582" lon="2.39728">
        <ele>51</ele>
        <time>2013-07-18T21:13:01Z</time>
      </trkpt>
      <trkpt lat="48.89584" lon="2.39732">
        <ele>53</ele>
        <time>2013-07-18T21:13:03Z</time>
      </trkpt>
      <trkpt lat="48.89586" lon="2.39738">
        <ele>52</ele>
        <time>2013-07-18T21:13:05Z</time>
      </trkpt>
      <trkpt lat="48.89586" lon="2.39742">
        <ele>56</ele>
        <time>2013-07-18T21:13:06Z</time>
      </trkpt>
      <trkpt lat="48.89588" lon="2.39755">
        <ele>54</ele>
        <time>2013-07-18T21:13:10Z</time>
      </trkpt>
      <trkpt lat="48.89588" lon="2.39763">
        <ele>53</ele>
        <time>2013-07-18T21:13:12Z</time>
      </trkpt>
      <trkpt lat="48.89588" lon="2.39766">
        <ele>54</ele>
        <time>2013-07-18T21:13:13Z</time>
      </trkpt>
      <trkpt lat="48.89589" lon="2.3977">
        <ele>50</ele>
        <time>2013-07-18T21:13:15Z</time>
      </trkpt>
      <trkpt lat="48.89589" lon="2.39775">
        <ele>51</ele>
        <time>2013-07-18T21:13:17Z</time>
      </trkpt>
      <trkpt lat="48.89589" lon="2.39796">
        <ele>50</ele>
        <time>2013-07-18T21:13:22Z</time>
      </trkpt>
      <trkpt lat="48.89589" lon="2.398">
        <ele>51</ele>
        <time>2013-07-18T21:13:23Z</time>
      </trkpt>
      <trkpt lat="48.89589" lon="2.39803">
        <ele>51</ele>
        <time>2013-07-18T21:13:24Z</time>
      </trkpt>
      <trkpt lat="48.8959" lon="2.39809">
        <ele>52</ele>
        <time>2013-07-18T21:13:26Z</time>
      </trkpt>
      <trkpt lat="48.89591" lon="2.39812">
        <ele>55</ele>
        <time>2013-07-18T21:13:27Z</time>
      </trkpt>
      <trkpt lat="48.89591" lon="2.39817">
        <ele>56</ele>
        <time>2013-07-18T21:13:28Z</time>
      </trkpt>
      <trkpt lat="48.89591" lon="2.39826">
        <ele>54</ele>
        <time>2013-07-18T21:13:30Z</time>
      </trkpt>
      <trkpt lat="48.89591" lon="2.39829">
        <ele>54</ele>
        <time>2013-07-18T21:13:31Z</time>
      </trkpt>
      <trkpt lat="48.89591" lon="2.3984">
        <ele>54</ele>
        <time>2013-07-18T21:13:35Z</time>
      </trkpt>
      <trkpt lat="48.8959" lon="2.39848">
        <ele>53</ele>
        <time>2013-07-18T21:13:37Z</time>
      </trkpt>
      <trkpt lat="48.89591" lon="2.39912">
        <ele>51</ele>
        <time>2013-07-18T21:13:50Z</time>
      </trkpt>
      <trkpt lat="48.89589" lon="2.39921">
        <ele>47</ele>
        <time>2013-07-18T21:13:52Z</time>
      </trkpt>
      <trkpt lat="48.89586" lon="2.39929">
        <ele>52</ele>
        <time>2013-07-18T21:13:54Z</time>
      </trkpt>
      <trkpt lat="48.89585" lon="2.39937">
        <ele>46</ele>
        <time>2013-07-18T21:13:56Z</time>
      </trkpt>
      <trkpt lat="48.89586" lon="2.39945">
        <ele>50</ele>
        <time>2013-07-18T21:13:58Z</time>
      </trkpt>
      <trkpt lat="48.89584" lon="2.39956">
        <ele>53</ele>
        <time>2013-07-18T21:14:01Z</time>
      </trkpt>
      <trkpt lat="48.8958" lon="2.39976">
        <ele>50</ele>
        <time>2013-07-18T21:14:06Z</time>
      </trkpt>
      <trkpt lat="48.89574" lon="2.40005">
        <ele>52</ele>
        <time>2013-07-18T21:14:13Z</time>
      </trkpt>
      <trkpt lat="48.89575" lon="2.40013">
        <ele>52</ele>
        <time>2013-07-18T21:14:15Z</time>
      </trkpt>
      <trkpt lat="48.89574" lon="2.40023">
        <ele>48</ele>
        <time>2013-07-18T21:14:18Z</time>
      </trkpt>
      <trkpt lat="48.89572" lon="2.40031">
        <ele>47</ele>
        <time>2013-07-18T21:14:23Z</time>
      </trkpt>
      <trkpt lat="48.89571" lon="2.40044">
        <ele>49</ele>
        <time>2013-07-18T21:14:34Z</time>
      </trkpt>
      <trkpt lat="48.89571" lon="2.40053">
        <ele>51</ele>
        <time>2013-07-18T21:14:38Z</time>
      </trkpt>
      <trkpt lat="48.89568" lon="2.4006">
        <ele>49</ele>
        <time>2013-07-18T21:14:48Z</time>
      </trkpt>
      <trkpt lat="48.89567" lon="2.40062">
        <ele>44</ele>
        <time>2013-07-18T21:14:58Z</time>
      </trkpt>
      <trkpt lat="48.89565" lon="2.40069">
        <ele>46</ele>
        <time>2013-07-18T21:15:06Z</time>
      </trkpt>
      <trkpt lat="48.89563" lon="2.40076">
        <ele>57</ele>
        <time>2013-07-18T21:15:12Z</time>
      </trkpt>
      <trkpt lat="48.89563" lon="2.40085">
        <ele>53</ele>
        <time>2013-07-18T21:15:14Z</time>
      </trkpt>
      <trkpt lat="48.89564" lon="2.40093">
        <ele>58</ele>
        <time>2013-07-18T21:15:17Z</time>
      </trkpt>
      <trkpt lat="48.89569" lon="2.40101">
        <ele>58</ele>
        <time>2013-07-18T21:15:21Z</time>
      </trkpt>
      <trkpt lat="48.89574" lon="2.40108">
        <ele>53</ele>
        <time>2013-07-18T21:15:26Z</time>
      </trkpt>
      <trkpt lat="48.8958" lon="2.4011">
        <ele>53</ele>
        <time>2013-07-18T21:15:29Z</time>
      </trkpt>
      <trkpt lat="48.89598" lon="2.40115">
        <ele>48</ele>
        <time>2013-07-18T21:15:38Z</time>
      </trkpt>
      <trkpt lat="48.896" lon="2.40115">
        <ele>47</ele>
        <time>2013-07-18T21:15:40Z</time>
      </trkpt>
      <trkpt lat="48.89605" lon="2.40116">
        <ele>49</ele>
        <time>2013-07-18T21:15:43Z</time>
      </trkpt>
      <trkpt lat="48.89609" lon="2.40118">
        <ele>51</ele>
        <time>2013-07-18T21:15:45Z</time>
      </trkpt>
      <trkpt lat="48.89618" lon="2.40121">
        <ele>56</ele>
        <time>2013-07-18T21:15:49Z</time>
      </trkpt>
      <trkpt lat="48.89632" lon="2.40123">
        <ele>53</ele>
        <time>2013-07-18T21:15:54Z</time>
      </trkpt>
      <trkpt lat="48.89637" lon="2.40118">
        <ele>56</ele>
        <time>2013-07-18T21:15:57Z</time>
      </trkpt>
      <trkpt lat="48.89639" lon="2.40111">
        <ele>53</ele>
        <time>2013-07-18T21:16:03Z</time>
      </trkpt>
      <trkpt lat="48.89646" lon="2.40096">
        <ele>65</ele>
        <time>2013-07-18T21:16:09Z</time>
      </trkpt>
      <trkpt lat="48.89652" lon="2.40096">
        <ele>62</ele>
        <time>2013-07-18T21:16:13Z</time>
      </trkpt>
      <trkpt lat="48.89654" lon="2.40098">
        <ele>61</ele>
        <time>2013-07-18T21:16:14Z</time>
      </trkpt>
      <trkpt lat="48.89657" lon="2.40101">
        <ele>60</ele>
        <time>2013-07-18T21:16:16Z</time>
      </trkpt>
      <trkpt lat="48.8966" lon="2.40101">
        <ele>59</ele>
        <time>2013-07-18T21:16:17Z</time>
      </trkpt>
      <trkpt lat="48.89662" lon="2.40099">
        <ele>58</ele>
        <time>2013-07-18T21:16:18Z</time>
      </trkpt>
      <trkpt lat="48.89664" lon="2.40096">
        <ele>59</ele>
        <time>2013-07-18T21:16:19Z</time>
      </trkpt>
      <trkpt lat="48.89672" lon="2.4008">
        <ele>58</ele>
        <time>2013-07-18T21:16:23Z</time>
      </trkpt>
      <trkpt lat="48.89683" lon="2.40052">
        <ele>54</ele>
        <time>2013-07-18T21:16:28Z</time>
      </trkpt>
      <trkpt lat="48.89691" lon="2.40038">
        <ele>55</ele>
        <time>2013-07-18T21:16:32Z</time>
      </trkpt>
      <trkpt lat="48.89695" lon="2.40031">
        <ele>52</ele>
        <time>2013-07-18T21:16:34Z</time>
      </trkpt>
      <trkpt lat="48.897" lon="2.40025">
        <ele>47</ele>
        <time>2013-07-18T21:16:36Z</time>
      </trkpt>
      <trkpt lat="48.89705" lon="2.40018">
        <ele>50</ele>
        <time>2013-07-18T21:16:38Z</time>
      </trkpt>
      <trkpt lat="48.89712" lon="2.40011">
        <ele>48</ele>
        <time>2013-07-18T21:16:40Z</time>
      </trkpt>
      <trkpt lat="48.89722" lon="2.4">
        <ele>52</ele>
        <time>2013-07-18T21:16:43Z</time>
      </trkpt>
      <trkpt lat="48.89729" lon="2.39989">
        <ele>53</ele>
        <time>2013-07-18T21:16:46Z</time>
      </trkpt>
      <trkpt lat="48.89741" lon="2.39974">
        <ele>51</ele>
        <time>2013-07-18T21:16:52Z</time>
      </trkpt>
      <trkpt lat="48.89745" lon="2.39967">
        <ele>48</ele>
        <time>2013-07-18T21:16:54Z</time>
      </trkpt>
      <trkpt lat="48.89749" lon="2.39961">
        <ele>53</ele>
        <time>2013-07-18T21:16:56Z</time>
      </trkpt>
      <trkpt lat="48.89753" lon="2.39954">
        <ele>52</ele>
        <time>2013-07-18T21:17:00Z</time>
      </trkpt>
      <trkpt lat="48.89757" lon="2.39947">
        <ele>53</ele>
        <time>2013-07-18T21:17:03Z</time>
      </trkpt>
      <trkpt lat="48.89758" lon="2.39943">
        <ele>52</ele>
        <time>2013-07-18T21:17:04Z</time>
      </trkpt>
      <trkpt lat="48.89759" lon="2.3994">
        <ele>55</ele>
        <time>2013-07-18T21:17:05Z</time>
      </trkpt>
      <trkpt lat="48.89761" lon="2.39935">
        <ele>56</ele>
        <time>2013-07-18T21:17:07Z</time>
      </trkpt>
      <trkpt lat="48.89763" lon="2.39931">
        <ele>52</ele>
        <time>2013-07-18T21:17:09Z</time>
      </trkpt>
      <trkpt lat="48.89765" lon="2.39928">
        <ele>47</ele>
        <time>2013-07-18T21:17:11Z</time>
      </trkpt>
      <trkpt lat="48.89766" lon="2.39926">
        <ele>49</ele>
        <time>2013-07-18T21:17:13Z</time>
      </trkpt>
      <trkpt lat="48.8977" lon="2.39921">
        <ele>52</ele>
        <time>2013-07-18T21:17:15Z</time>
      </trkpt>
      <trkpt lat="48.89778" lon="2.39911">
        <ele>50</ele>
        <time>2013-07-18T21:17:19Z</time>
      </trkpt>
      <trkpt lat="48.8978" lon="2.39908">
        <ele>55</ele>
        <time>2013-07-18T21:17:20Z</time>
      </trkpt>
      <trkpt lat="48.89784" lon="2.39903">
        <ele>53</ele>
        <time>2013-07-18T21:17:22Z</time>
      </trkpt>
      <trkpt lat="48.89786" lon="2.399">
        <ele>53</ele>
        <time>2013-07-18T21:17:23Z</time>
      </trkpt>
      <trkpt lat="48.89788" lon="2.39898">
        <ele>54</ele>
        <time>2013-07-18T21:17:24Z</time>
      </trkpt>
      <trkpt lat="48.89791" lon="2.39893">
        <ele>54</ele>
        <time>2013-07-18T21:17:26Z</time>
      </trkpt>
      <trkpt lat="48.89796" lon="2.39888">
        <ele>56</ele>
        <time>2013-07-18T21:17:28Z</time>
      </trkpt>
      <trkpt lat="48.89801" lon="2.39881">
        <ele>56</ele>
        <time>2013-07-18T21:17:30Z</time>
      </trkpt>
      <trkpt lat="48.89806" lon="2.39874">
        <ele>53</ele>
        <time>2013-07-18T21:17:32Z</time>
      </trkpt>
      <trkpt lat="48.89814" lon="2.39865">
        <ele>54</ele>
        <time>2013-07-18T21:17:36Z</time>
      </trkpt>
      <trkpt lat="48.89816" lon="2.39863">
        <ele>55</ele>
        <time>2013-07-18T21:17:37Z</time>
      </trkpt>
      <trkpt lat="48.89835" lon="2.39841">
        <ele>49</ele>
        <time>2013-07-18T21:17:47Z</time>
      </trkpt>
      <trkpt lat="48.89839" lon="2.39835">
        <ele>54</ele>
        <time>2013-07-18T21:17:49Z</time>
      </trkpt>
      <trkpt lat="48.89843" lon="2.39827">
        <ele>57</ele>
        <time>2013-07-18T21:17:51Z</time>
      </trkpt>
      <trkpt lat="48.89848" lon="2.39816">
        <ele>54</ele>
        <time>2013-07-18T21:17:53Z</time>
      </trkpt>
      <trkpt lat="48.89853" lon="2.39807">
        <ele>54</ele>
        <time>2013-07-18T21:17:55Z</time>
      </trkpt>
      <trkpt lat="48.89857" lon="2.39797">
        <ele>58</ele>
        <time>2013-07-18T21:17:57Z</time>
      </trkpt>
      <trkpt lat="48.8987" lon="2.3977">
        <ele>57</ele>
        <time>2013-07-18T21:18:02Z</time>
      </trkpt>
      <trkpt lat="48.89877" lon="2.39761">
        <ele>54</ele>
        <time>2013-07-18T21:18:04Z</time>
      </trkpt>
      <trkpt lat="48.89892" lon="2.39741">
        <ele>56</ele>
        <time>2013-07-18T21:18:08Z</time>
      </trkpt>
      <trkpt lat="48.8991" lon="2.39722">
        <ele>55</ele>
        <time>2013-07-18T21:18:12Z</time>
      </trkpt>
      <trkpt lat="48.89916" lon="2.39721">
        <ele>54</ele>
        <time>2013-07-18T21:18:13Z</time>
      </trkpt>
      <trkpt lat="48.89927" lon="2.39716">
        <ele>53</ele>
        <time>2013-07-18T21:18:15Z</time>
      </trkpt>
      <trkpt lat="48.89931" lon="2.3971">
        <ele>52</ele>
        <time>2013-07-18T21:18:16Z</time>
      </trkpt>
      <trkpt lat="48.89935" lon="2.39705">
        <ele>52</ele>
        <time>2013-07-18T21:18:17Z</time>
      </trkpt>
      <trkpt lat="48.89937" lon="2.3969">
        <ele>49</ele>
        <time>2013-07-18T21:18:19Z</time>
      </trkpt>
      <trkpt lat="48.89938" lon="2.39683">
        <ele>49</ele>
        <time>2013-07-18T21:18:20Z</time>
      </trkpt>
      <trkpt lat="48.89942" lon="2.39672">
        <ele>47</ele>
        <time>2013-07-18T21:18:22Z</time>
      </trkpt>
      <trkpt lat="48.89945" lon="2.39666">
        <ele>46</ele>
        <time>2013-07-18T21:18:23Z</time>
      </trkpt>
      <trkpt lat="48.89949" lon="2.3966">
        <ele>47</ele>
        <time>2013-07-18T21:18:24Z</time>
      </trkpt>
      <trkpt lat="48.90012" lon="2.39569">
        <ele>45</ele>
        <time>2013-07-18T21:18:37Z</time>
      </trkpt>
      <trkpt lat="48.90057" lon="2.39504">
        <ele>48</ele>
        <time>2013-07-18T21:18:48Z</time>
      </trkpt>
      <trkpt lat="48.90065" lon="2.39496">
        <ele>46</ele>
        <time>2013-07-18T21:18:50Z</time>
      </trkpt>
      <trkpt lat="48.90073" lon="2.3949">
        <ele>48</ele>
        <time>2013-07-18T21:18:52Z</time>
      </trkpt>
      <trkpt lat="48.90082" lon="2.39482">
        <ele>49</ele>
        <time>2013-07-18T21:18:54Z</time>
      </trkpt>
      <trkpt lat="48.90087" lon="2.39477">
        <ele>48</ele>
        <time>2013-07-18T21:18:55Z</time>
      </trkpt>
      <trkpt lat="48.90092" lon="2.39472">
        <ele>46</ele>
        <time>2013-07-18T21:18:56Z</time>
      </trkpt>
      <trkpt lat="48.90161" lon="2.39407">
        <ele>40</ele>
        <time>2013-07-18T21:19:11Z</time>
      </trkpt>
      <trkpt lat="48.90191" lon="2.39377">
        <ele>42</ele>
        <time>2013-07-18T21:19:19Z</time>
      </trkpt>
      <trkpt lat="48.902" lon="2.3937">
        <ele>39</ele>
        <time>2013-07-18T21:19:21Z</time>
      </trkpt>
      <trkpt lat="48.9021" lon="2.39359">
        <ele>44</ele>
        <time>2013-07-18T21:19:24Z</time>
      </trkpt>
      <trkpt lat="48.90217" lon="2.3935">
        <ele>44</ele>
        <time>2013-07-18T21:19:26Z</time>
      </trkpt>
      <trkpt lat="48.90228" lon="2.39332">
        <ele>40</ele>
        <time>2013-07-18T21:19:30Z</time>
      </trkpt>
      <trkpt lat="48.9024" lon="2.39316">
        <ele>38</ele>
        <time>2013-07-18T21:19:34Z</time>
      </trkpt>
      <trkpt lat="48.90257" lon="2.39299">
        <ele>43</ele>
        <time>2013-07-18T21:19:39Z</time>
      </trkpt>
      <trkpt lat="48.90264" lon="2.39297">
        <ele>46</ele>
        <time>2013-07-18T21:19:41Z</time>
      </trkpt>
      <trkpt lat="48.90305" lon="2.39289">
        <ele>44</ele>
        <time>2013-07-18T21:19:56Z</time>
      </trkpt>
      <trkpt lat="48.9031" lon="2.39285">
        <ele>46</ele>
        <time>2013-07-18T21:19:58Z</time>
      </trkpt>
      <trkpt lat="48.90315" lon="2.39276">
        <ele>40</ele>
        <time>2013-07-18T21:20:01Z</time>
      </trkpt>
      <trkpt lat="48.90327" lon="2.3926">
        <ele>51</ele>
        <time>2013-07-18T21:20:06Z</time>
      </trkpt>
      <trkpt lat="48.90332" lon="2.39255">
        <ele>49</ele>
        <time>2013-07-18T21:20:08Z</time>
      </trkpt>
      <trkpt lat="48.90336" lon="2.39248">
        <ele>44</ele>
        <time>2013-07-18T21:20:11Z</time>
      </trkpt>
      <trkpt lat="48.90348" lon="2.39234">
        <ele>39</ele>
        <time>2013-07-18T21:20:18Z</time>
      </trkpt>
      <trkpt lat="48.90354" lon="2.39232">
        <ele>46</ele>
        <time>2013-07-18T21:20:21Z</time>
      </trkpt>
      <trkpt lat="48.90362" lon="2.39223">
        <ele>44</ele>
        <time>2013-07-18T21:20:28Z</time>
      </trkpt>
      <trkpt lat="48.90373" lon="2.39214">
        <ele>43</ele>
        <time>2013-07-18T21:20:34Z</time>
      </trkpt>
      <trkpt lat="48.90379" lon="2.39205">
        <ele>47</ele>
        <time>2013-07-18T21:20:38Z</time>
      </trkpt>
      <trkpt lat="48.90393" lon="2.39184">
        <ele>48</ele>
        <time>2013-07-18T21:20:45Z</time>
      </trkpt>
      <trkpt lat="48.90404" lon="2.39172">
        <ele>47</ele>
        <time>2013-07-18T21:20:49Z</time>
      </trkpt>
      <trkpt lat="48.90411" lon="2.39167">
        <ele>47</ele>
        <time>2013-07-18T21:20:51Z</time>
      </trkpt>
      <trkpt lat="48.90417" lon="2.39161">
        <ele>42</ele>
        <time>2013-07-18T21:20:53Z</time>
      </trkpt>
      <trkpt lat="48.90424" lon="2.39154">
        <ele>44</ele>
        <time>2013-07-18T21:20:55Z</time>
      </trkpt>
      <trkpt lat="48.9043" lon="2.39148">
        <ele>47</ele>
        <time>2013-07-18T21:20:57Z</time>
      </trkpt>
      <trkpt lat="48.9044" lon="2.39137">
        <ele>48</ele>
        <time>2013-07-18T21:21:02Z</time>
      </trkpt>
      <trkpt lat="48.90447" lon="2.39129">
        <ele>42</ele>
        <time>2013-07-18T21:21:05Z</time>
      </trkpt>
      <trkpt lat="48.90453" lon="2.39123">
        <ele>39</ele>
        <time>2013-07-18T21:21:08Z</time>
      </trkpt>
      <trkpt lat="48.90459" lon="2.39113">
        <ele>42</ele>
        <time>2013-07-18T21:21:12Z</time>
      </trkpt>
      <trkpt lat="48.90464" lon="2.39109">
        <ele>43</ele>
        <time>2013-07-18T21:21:14Z</time>
      </trkpt>
      <trkpt lat="48.90492" lon="2.39082">
        <ele>38</ele>
        <time>2013-07-18T21:21:26Z</time>
      </trkpt>
      <trkpt lat="48.90498" lon="2.39083">
        <ele>42</ele>
        <time>2013-07-18T21:21:30Z</time>
      </trkpt>
      <trkpt lat="48.90504" lon="2.39075">
        <ele>42</ele>
        <time>2013-07-18T21:21:34Z</time>
      </trkpt>
      <trkpt lat="48.90515" lon="2.39065">
        <ele>47</ele>
        <time>2013-07-18T21:21:39Z</time>
      </trkpt>
      <trkpt lat="48.90548" lon="2.39036">
        <ele>51</ele>
        <time>2013-07-18T21:21:53Z</time>
      </trkpt>
      <trkpt lat="48.90564" lon="2.39017">
        <ele>53</ele>
        <time>2013-07-18T21:22:01Z</time>
      </trkpt>
      <trkpt lat="48.90584" lon="2.38994">
        <ele>43</ele>
        <time>2013-07-18T21:22:13Z</time>
      </trkpt>
      <trkpt lat="48.90605" lon="2.3896">
        <ele>43</ele>
        <time>2013-07-18T21:23:22Z</time>
      </trkpt>
      <trkpt lat="48.90605" lon="2.38975">
        <ele>42</ele>
        <time>2013-07-18T21:23:31Z</time>
      </trkpt>
      <trkpt lat="48.90614" lon="2.38964">
        <ele>49</ele>
        <time>2013-07-18T21:23:42Z</time>
      </trkpt>
      <trkpt lat="48.9062" lon="2.38965">
        <ele>49</ele>
        <time>2013-07-18T21:23:44Z</time>
      </trkpt>
      <trkpt lat="48.90625" lon="2.38964">
        <ele>45</ele>
        <time>2013-07-18T21:23:46Z</time>
      </trkpt>
      <trkpt lat="48.90628" lon="2.38963">
        <ele>44</ele>
        <time>2013-07-18T21:23:47Z</time>
      </trkpt>
      <trkpt lat="48.90631" lon="2.38961">
        <ele>42</ele>
        <time>2013-07-18T21:23:49Z</time>
      </trkpt>
      <trkpt lat="48.90637" lon="2.38956">
        <ele>43</ele>
        <time>2013-07-18T21:23:52Z</time>
      </trkpt>
      <trkpt lat="48.9064" lon="2.3895">
        <ele>44</ele>
        <time>2013-07-18T21:23:55Z</time>
      </trkpt>
      <trkpt lat="48.90644" lon="2.38942">
        <ele>42</ele>
        <time>2013-07-18T21:24:00Z</time>
      </trkpt>
      <trkpt lat="48.90647" lon="2.38932">
        <ele>42</ele>
        <time>2013-07-18T21:24:04Z</time>
      </trkpt>
      <trkpt lat="48.90654" lon="2.38925">
        <ele>39</ele>
        <time>2013-07-18T21:24:06Z</time>
      </trkpt>
      <trkpt lat="48.90659" lon="2.38923">
        <ele>40</ele>
        <time>2013-07-18T21:24:08Z</time>
      </trkpt>
      <trkpt lat="48.90666" lon="2.38917">
        <ele>35</ele>
        <time>2013-07-18T21:24:11Z</time>
      </trkpt>
      <trkpt lat="48.9067" lon="2.38912">
        <ele>37</ele>
        <time>2013-07-18T21:24:13Z</time>
      </trkpt>
      <trkpt lat="48.9068" lon="2.38898">
        <ele>39</ele>
        <time>2013-07-18T21:24:18Z</time>
      </trkpt>
      <trkpt lat="48.90683" lon="2.38892">
        <ele>38</ele>
        <time>2013-07-18T21:24:20Z</time>
      </trkpt>
      <trkpt lat="48.90687" lon="2.38886">
        <ele>36</ele>
        <time>2013-07-18T21:24:22Z</time>
      </trkpt>
      <trkpt lat="48.90691" lon="2.38878">
        <ele>36</ele>
        <time>2013-07-18T21:24:25Z</time>
      </trkpt>
      <trkpt lat="48.90694" lon="2.38869">
        <ele>28</ele>
        <time>2013-07-18T21:24:28Z</time>
      </trkpt>
      <trkpt lat="48.90699" lon="2.38862">
        <ele>35</ele>
        <time>2013-07-18T21:24:31Z</time>
      </trkpt>
      <trkpt lat="48.90703" lon="2.38858">
        <ele>45</ele>
        <time>2013-07-18T21:24:33Z</time>
      </trkpt>
      <trkpt lat="48.90711" lon="2.38858">
        <ele>50</ele>
        <time>2013-07-18T21:24:35Z</time>
      </trkpt>
      <trkpt lat="48.90719" lon="2.38863">
        <ele>49</ele>
        <time>2013-07-18T21:24:38Z</time>
      </trkpt>
      <trkpt lat="48.90725" lon="2.38862">
        <ele>46</ele>
        <time>2013-07-18T21:24:40Z</time>
      </trkpt>
      <trkpt lat="48.90732" lon="2.38856">
        <ele>41</ele>
        <time>2013-07-18T21:24:42Z</time>
      </trkpt>
      <trkpt lat="48.90749" lon="2.38842">
        <ele>45</ele>
        <time>2013-07-18T21:24:47Z</time>
      </trkpt>
      <trkpt lat="48.90754" lon="2.38836">
        <ele>42</ele>
        <time>2013-07-18T21:24:49Z</time>
      </trkpt>
      <trkpt lat="48.90759" lon="2.38833">
        <ele>42</ele>
        <time>2013-07-18T21:24:51Z</time>
      </trkpt>
      <trkpt lat="48.90774" lon="2.3882">
        <ele>44</ele>
        <time>2013-07-18T21:24:56Z</time>
      </trkpt>
      <trkpt lat="48.90792" lon="2.38806">
        <ele>34</ele>
        <time>2013-07-18T21:25:01Z</time>
      </trkpt>
      <trkpt lat="48.90799" lon="2.38803">
        <ele>32</ele>
        <time>2013-07-18T21:25:04Z</time>
      </trkpt>
      <trkpt lat="48.90815" lon="2.38799">
        <ele>39</ele>
        <time>2013-07-18T21:25:11Z</time>
      </trkpt>
      <trkpt lat="48.90821" lon="2.388">
        <ele>42</ele>
        <time>2013-07-18T21:25:13Z</time>
      </trkpt>
      <trkpt lat="48.90826" lon="2.388">
        <ele>34</ele>
        <time>2013-07-18T21:25:15Z</time>
      </trkpt>
      <trkpt lat="48.90844" lon="2.38803">
        <ele>36</ele>
        <time>2013-07-18T21:25:21Z</time>
      </trkpt>
      <trkpt lat="48.90863" lon="2.38808">
        <ele>45</ele>
        <time>2013-07-18T21:25:29Z</time>
      </trkpt>
      <trkpt lat="48.9087" lon="2.38811">
        <ele>45</ele>
        <time>2013-07-18T21:25:32Z</time>
      </trkpt>
      <trkpt lat="48.90877" lon="2.38811">
        <ele>43</ele>
        <time>2013-07-18T21:25:35Z</time>
      </trkpt>
      <trkpt lat="48.90885" lon="2.38814">
        <ele>39</ele>
        <time>2013-07-18T21:25:39Z</time>
      </trkpt>
      <trkpt lat="48.90899" lon="2.38815">
        <ele>38</ele>
        <time>2013-07-18T21:25:49Z</time>
      </trkpt>
      <trkpt lat="48.90902" lon="2.38808">
        <ele>36</ele>
        <time>2013-07-18T21:25:59Z</time>
      </trkpt>
      <trkpt lat="48.90911" lon="2.38752">
        <ele>46</ele>
        <time>2013-07-18T21:26:58Z</time>
      </trkpt>
      <trkpt lat="48.90916" lon="2.38804">
        <ele>131</ele>
        <time>2013-07-18T21:28:24Z</time>
      </trkpt>
      <trkpt lat="48.90913" lon="2.38795">
        <ele>50</ele>
        <time>2013-07-18T21:29:05Z</time>
      </trkpt>
      <trkpt lat="48.90908" lon="2.38791">
        <ele>61</ele>
        <time>2013-07-18T21:30:16Z</time>
      </trkpt>
      <trkpt lat="48.90889" lon="2.38769">
        <ele>43</ele>
        <time>2013-07-18T21:30:22Z</time>
      </trkpt>
      <trkpt lat="48.90883" lon="2.38753">
        <ele>43</ele>
        <time>2013-07-18T21:30:29Z</time>
      </trkpt>
    </trkseg>
  </trk>
</gpx>